[[{"header":{"parameterUnit":"m.s-1","parameterCategory":1,"la1":30.6,"la2":28.766,"lo1":-90.7593,"lo2":-88.6598,"dy":0.0162,"dx":0.0183,"nx":116,"ny":114,"refTime":"2024-04-05T12:00:00:Z","depth":0,"parameterNumber":2,"parameterNumberName":"U-component_of_WINDS"},"data":[0.0,0.0,0.0,0.0,0.0,0.0,0.0,0.0,0.0,0.0,0.0,0.0,0.0,0.0,0.0,0.0,0.0,0.0,0.0,0.0,0.0,0.0,0.0,0.0,0.0,0.0,0.0,0.0,0.0,0.0,0.0,0.0,0.0,0.0,0.0,0.0,0.0,0.0,0.0,0.0,0.0,0.0,0.0,0.0,0.0,0.0,0.0,0.0,0.0,0.0,0.0,0.0,0.0,0.0,0.0,0.0,0.0,0.0,0.0,0.0,0.0,0.0,0.0,0.0,0.0,0.0,0.0,0.0,0.0,0.0,0.0,0.0,0.0,0.0,0.0,0.0,0.0,0.0,0.0,0.0,0.0,0.0,0.0,0.0,0.0,0.0,0.0,0.0,0.0,0.0,0.0,0.0,0.0,0.0,0.0,0.0,0.0,0.0,0.0,0.0,0.0,0.0,0.0,0.0,0.0,0.0,0.0,0.0,0.0,0.0,0.0,0.0,0.0,0.0,0.0,0.0,0.0,0.0,0.0,0.0,0.0,0.0,0.0,0.0,0.0,0.0,0.0,0.0,0.0,0.0,0.0,0.0,0.0,0.0,0.0,0.0,0.0,0.0,0.0,0.0,0.0,0.0,0.0,0.0,0.0,0.0,0.0,0.0,0.0,0.0,0.0,0.0,0.0,0.0,0.0,0.0,0.0,0.0,0.0,0.0,0.0,0.0,0.0,0.0,0.0,0.0,0.0,0.0,0.0,0.0,0.0,0.0,0.0,0.0,0.0,0.0,0.0,0.0,0.0,0.0,0.0,0.0,0.0,0.0,0.0,0.0,0.0,0.0,0.0,0.0,0.0,0.0,0.0,0.0,0.0,0.0,0.0,0.0,0.0,0.0,0.0,0.0,0.0,0.0,0.0,0.0,0.0,0.0,0.0,0.0,0.0,0.0,0.0,0.0,0.0,0.0,0.0,0.0,0.0,0.0,0.0,0.0,0.0,0.0,0.0,0.0,0.0,0.0,0.0,0.0,0.0,0.0,0.0,0.0,0.0,0.0,0.0,0.0,0.0,0.0,0.0,0.0,0.0,0.0,0.0,0.0,0.0,0.0,0.0,0.0,0.0,0.0,0.0,0.0,0.0,0.0,0.0,0.0,0.0,0.0,0.0,0.0,0.0,0.0,0.0,0.0,0.0,0.0,0.0,0.0,0.0,0.0,0.0,0.0,0.0,0.0,0.0,0.0,0.0,0.0,0.0,0.0,0.0,0.0,0.0,0.0,0.0,0.0,0.0,0.0,0.0,0.0,0.0,0.0,0.0,0.0,0.0,0.0,0.0,0.0,0.0,0.0,0.0,0.0,0.0,0.0,0.0,0.0,0.0,0.0,0.0,0.0,0.0,0.0,0.0,0.0,0.0,0.0,0.0,0.0,0.0,0.0,0.0,0.0,0.0,0.0,0.0,0.0,0.0,0.0,0.0,0.0,0.0,0.0,0.0,0.0,0.0,0.0,0.0,0.0,0.0,0.0,0.0,0.0,0.0,0.0,0.0,0.0,0.0,0.0,0.0,0.0,0.0,0.0,0.0,0.0,0.0,0.0,0.0,0.0,0.0,0.0,0.0,0.0,0.0,0.0,0.0,0.0,0.0,0.0,0.0,0.0,0.0,0.0,0.0,0.0,0.0,0.0,0.0,0.0,0.0,0.0,0.0,0.0,0.0,0.0,0.0,0.0,0.0,0.0,0.0,0.0,0.0,0.0,0.0,0.0,0.0,0.0,0.0,0.0,0.0,0.0,0.0,0.0,0.0,0.0,0.0,0.0,0.0,0.0,0.0,0.0,0.0,0.0,0.0,0.0,0.0,0.0,0.0,0.0,0.0,0.0,0.0,0.0,0.0,0.0,0.0,0.0,0.0,0.0,0.0,0.0,0.0,0.0,0.0,0.0,0.0,0.0,0.0,0.0,0.0,0.0,0.0,0.0,0.0,0.0,0.0,0.0,0.0,0.0,0.0,0.0,0.0,0.0,0.0,0.0,0.0,0.0,0.0,0.0,0.0,0.0,0.0,0.0,0.0,0.0,0.0,0.0,0.0,0.0,0.0,0.0,0.0,0.0,0.0,0.0,0.0,0.0,0.0,0.0,0.0,0.0,0.0,0.0,0.0,0.0,0.0,0.0,0.0,0.0,0.0,0.0,0.0,0.0,0.0,0.0,0.0,0.0,0.0,0.0,0.0,0.0,0.0,0.0,0.0,0.0,0.0,0.0,0.0,0.0,0.0,0.0,0.0,0.0,0.0,0.0,0.0,0.0,0.0,0.0,0.0,0.0,0.0,0.0,0.0,0.0,0.0,0.0,0.0,0.0,0.0,0.0,0.0,0.0,0.0,0.0,0.0,0.0,0.0,0.0,0.0,0.0,0.0,0.0,0.0,0.0,0.0,0.0,0.0,0.0,0.0,0.0,0.0,0.0,0.0,0.0,0.0,0.0,0.0,0.0,0.0,0.0,0.0,0.0,0.0,0.0,0.0,0.0,0.0,0.0,0.0,0.0,0.0,0.0,0.0,0.0,0.0,0.0,0.0,0.0,0.0,0.0,0.0,0.0,0.0,0.0,0.0,0.0,0.0,0.0,0.0,0.0,0.0,0.0,0.0,0.0,0.0,0.0,0.0,0.0,0.0,0.0,0.0,0.0,0.0,0.0,0.0,0.0,0.0,0.0,0.0,0.0,0.0,0.0,0.0,0.0,0.0,0.0,0.0,0.0,0.0,0.0,0.0,0.0,0.0,0.0,0.0,0.0,0.0,0.0,0.0,0.0,0.0,0.0,0.0,0.0,0.0,0.0,0.0,0.0,0.0,0.0,0.0,0.0,0.0,0.0,0.0,0.0,0.0,0.0,0.0,0.0,0.0,0.0,0.0,0.0,0.0,0.0,0.0,0.0,0.0,0.0,0.0,0.0,0.0,0.0,0.0,0.0,0.0,0.0,0.0,0.0,0.0,0.0,0.0,0.0,0.0,0.0,0.0,0.0,0.0,0.0,0.0,0.0,0.0,0.0,0.0,0.0,0.0,0.0,0.0,0.0,0.0,0.0,0.0,0.0,0.0,0.0,0.0,0.0,0.0,0.0,0.0,0.0,0.0,0.0,0.0,0.0,0.0,0.0,0.0,0.0,0.0,0.0,0.0,0.0,0.0,0.0,0.0,0.0,0.0,0.0,0.0,0.0,0.0,0.0,0.0,0.0,0.0,0.0,0.0,0.0,0.0,0.0,0.0,0.0,0.0,0.0,0.0,0.0,0.0,0.0,0.0,0.0,0.0,0.0,0.0,0.0,0.0,0.0,0.0,0.0,0.0,0.0,0.0,0.0,0.0,0.0,0.0,0.0,0.0,0.0,0.0,0.0,0.0,0.0,0.0,0.0,0.0,0.0,0.0,0.0,0.0,0.0,0.0,0.0,0.0,0.0,0.0,0.0,0.0,0.0,0.0,0.0,0.0,0.0,0.0,0.0,0.0,0.0,0.0,0.0,0.0,0.0,0.0,0.0,0.0,0.0,0.0,0.0,0.0,0.0,0.0,0.0,0.0,0.0,0.0,0.0,0.0,0.0,0.0,0.0,0.0,0.0,0.0,0.0,0.0,0.0,0.0,0.0,0.0,0.0,0.0,0.0,0.0,0.0,0.0,0.0,0.0,0.0,0.0,0.0,0.0,0.0,0.0,0.0,0.0,0.0,0.0,0.0,0.0,0.0,0.0,0.0,0.0,0.0,0.0,0.0,0.0,0.0,0.0,0.0,0.0,0.0,0.0,0.0,0.0,0.0,0.0,0.0,0.0,0.0,0.0,0.0,0.0,0.0,0.0,0.0,0.0,0.0,0.0,0.0,0.0,0.0,0.0,0.0,0.0,0.0,0.0,0.0,0.0,0.0,0.0,0.0,0.0,0.0,0.0,0.0,0.0,0.0,0.0,0.0,0.0,0.0,0.0,0.0,0.0,0.0,0.0,0.0,0.0,0.0,0.0,0.0,0.0,0.0,0.0,0.0,0.0,0.0,0.0,0.0,0.0,0.0,0.0,0.0,0.0,0.0,0.0,0.0,0.0,0.0,0.0,0.0,0.0,0.0,0.0,0.0,0.0,0.0,0.0,0.0,0.0,0.0,0.0,0.0,0.0,0.0,0.0,0.0,0.0,0.0,0.0,0.0,0.0,0.0,0.0,0.0,0.0,0.0,0.0,0.0,0.0,0.0,0.0,0.0,0.0,0.0,0.0,0.0,0.0,0.0,0.0,0.0,0.0,0.0,0.0,0.0,0.0,0.0,0.0,0.0,0.0,0.0,0.0,0.0,0.0,0.0,0.0,0.0,0.0,0.0,0.0,0.0,0.0,0.0,0.0,0.0,0.0,0.0,0.0,0.0,0.0,0.0,0.0,0.0,0.0,0.0,0.0,0.0,0.0,0.0,0.0,0.0,0.0,0.0,0.0,0.0,0.0,0.0,0.0,0.0,0.0,0.0,0.0,0.0,0.0,0.0,0.0,0.0,0.0,0.0,0.0,0.0,0.0,0.0,0.0,0.0,0.0,0.0,0.0,0.0,0.0,0.0,0.0,0.0,0.0,0.0,0.0,0.0,0.0,0.0,0.0,0.0,0.0,0.0,0.0,0.0,0.0,0.0,0.0,0.0,0.0,0.0,0.0,0.0,0.0,0.0,0.0,0.0,0.0,0.0,0.0,0.0,0.0,0.0,0.0,0.0,0.0,0.0,0.0,0.0,0.0,0.0,0.0,0.0,0.0,0.0,0.0,0.0,0.0,0.0,0.0,0.0,0.0,0.0,0.0,0.0,0.0,0.0,0.0,0.0,0.0,0.0,0.0,0.0,0.0,0.0,0.0,0.0,0.0,0.0,0.0,0.0,0.0,0.0,0.0,0.0,0.0,0.0,0.0,0.0,0.0,0.0,0.0,0.0,0.0,0.0,0.0,0.0,0.0,0.0,0.0,0.0,0.0,0.0,0.0,0.0,0.0,0.0,0.0,0.0,0.0,0.0,0.0,0.0,0.0,0.0,0.0,0.0,0.0,0.0,0.0,0.0,0.0,0.0,0.0,0.0,0.0,0.0,0.0,0.0,0.0,0.0,0.0,0.0,0.0,0.0,0.0,0.0,0.0,0.0,0.0,0.0,0.0,0.0,0.0,0.0,0.0,0.0,0.0,0.0,0.0,0.0,0.0,0.0,0.0,0.0,0.0,0.0,0.0,0.0,0.0,0.0,0.0,0.0,0.0,0.0,0.0,0.0,0.0,0.0,0.0,0.0,0.0,0.0,0.0,0.0,0.0,0.0,0.0,0.0,0.0,0.0,0.0,0.0,0.0,0.0,0.0,0.0,0.0,0.0,0.0,0.0,0.0,0.0,0.0,0.0,0.0,0.0,0.0,0.0,0.0,0.0,0.0,0.0,0.0,0.0,0.0,0.0,0.0,0.0,0.0,0.0,0.0,0.0,0.0,0.0,0.0,0.0,0.0,0.0,0.0,0.0,0.0,0.0,0.0,0.0,0.0,0.0,0.0,0.0,0.0,0.0,0.0,0.0,0.0,0.0,0.0,0.0,0.0,0.0,0.0,0.0,0.0,0.0,0.0,0.0,0.0,0.0,0.0,0.0,0.0,0.0,0.0,0.0,0.0,0.0,0.0,0.0,0.0,0.0,0.0,0.0,0.0,0.0,0.0,0.0,0.0,0.0,0.0,0.0,0.0,0.0,0.0,0.0,0.0,0.0,0.0,0.0,0.0,0.0,0.0,0.0,0.0,0.0,0.0,0.0,0.0,0.0,0.0,0.0,0.0,0.0,0.0,0.0,0.0,0.0,0.0,0.0,0.0,0.0,0.0,0.0,0.0,0.0,0.0,0.0,0.0,0.0,0.0,0.0,0.0,0.0,0.0,0.0,0.0,0.0,0.0,0.0,0.0,0.0,0.0,0.0,0.0,0.0,0.0,0.0,0.0,0.0,0.0,0.0,0.0,0.0,0.0,0.0,0.0,0.0,0.0,0.0,0.0,0.0,0.0,0.0,0.0,0.0,0.0,0.0,0.0,0.0,0.0,0.0,0.0,0.0,0.0,0.0,0.0,0.0,0.0,0.0,-4.2919,0.0,0.0,0.0,0.0,0.0,0.0,0.0,0.0,0.0,0.0,0.0,0.0,0.0,0.0,0.0,0.0,0.0,0.0,0.0,0.0,0.0,0.0,0.0,0.0,-2.8779,-2.8762,-2.963,-2.8259,-2.7319,-2.7319,-2.6812,-2.6524,-2.6524,-2.6173,-2.626,-2.6714,-2.6972,-2.7454,-2.8072,-2.8797,-2.9416,-2.996,-3.1974,-3.3434,-3.4403,0.0,0.0,0.0,0.0,0.0,0.0,0.0,0.0,0.0,0.0,0.0,0.0,0.0,0.0,0.0,0.0,0.0,0.0,0.0,0.0,0.0,0.0,0.0,0.0,0.0,0.0,0.0,0.0,0.0,0.0,0.0,0.0,0.0,0.0,0.0,0.0,0.0,0.0,0.0,0.0,0.0,0.0,0.0,0.0,0.0,0.0,0.0,0.0,0.0,0.0,0.0,0.0,0.0,0.0,0.0,0.0,0.0,0.0,0.0,0.0,0.0,0.0,0.0,0.0,0.0,0.0,0.0,0.0,0.0,0.0,0.0,-4.3061,0.0,0.0,0.0,0.0,0.0,0.0,0.0,0.0,0.0,0.0,0.0,0.0,0.0,0.0,0.0,0.0,0.0,0.0,0.0,0.0,0.0,-2.6966,-2.7447,-2.7205,-2.7239,-2.7756,-2.683,-2.6171,-2.6171,-2.6027,-2.5902,-2.5902,-2.5902,-2.5902,-2.5902,-2.6088,-2.6289,-2.6431,-2.6556,-2.7485,-2.9316,-3.0888,-3.2057,0.0,0.0,0.0,0.0,0.0,0.0,0.0,0.0,0.0,0.0,0.0,0.0,0.0,0.0,0.0,0.0,0.0,0.0,0.0,0.0,0.0,0.0,0.0,0.0,0.0,0.0,0.0,0.0,0.0,0.0,0.0,0.0,0.0,0.0,0.0,0.0,0.0,0.0,0.0,0.0,0.0,0.0,0.0,0.0,0.0,0.0,0.0,0.0,0.0,0.0,0.0,0.0,0.0,0.0,0.0,0.0,0.0,0.0,0.0,0.0,0.0,0.0,0.0,0.0,0.0,-4.5403,-4.5122,-4.4363,-4.532,-4.5664,-4.5514,-4.5133,-4.482,-4.4592,0.0,0.0,0.0,0.0,0.0,0.0,0.0,0.0,0.0,0.0,0.0,0.0,0.0,0.0,0.0,0.0,0.0,0.0,0.0,0.0,-2.4945,-2.5814,-2.5876,-2.6084,-2.6685,-2.5672,-2.5041,-2.5041,-2.4102,-2.356,-2.356,-2.356,-2.356,-2.356,-2.451,-2.4676,-2.388,-2.5941,-2.7861,-2.9658,-3.102,-3.1734,-3.191,0.0,0.0,0.0,0.0,0.0,0.0,0.0,0.0,0.0,0.0,0.0,0.0,0.0,0.0,0.0,0.0,0.0,0.0,0.0,0.0,0.0,0.0,0.0,0.0,0.0,0.0,0.0,0.0,0.0,0.0,0.0,0.0,0.0,0.0,0.0,0.0,0.0,0.0,0.0,0.0,0.0,0.0,0.0,0.0,-4.5107,-4.5941,0.0,0.0,0.0,0.0,0.0,0.0,0.0,0.0,0.0,0.0,0.0,0.0,0.0,-4.5974,-4.6599,-4.6654,-4.6728,-4.6782,-4.6856,-4.6434,-4.5643,-4.5806,-4.623,-4.6838,-4.6782,0.0,-4.5087,-4.4605,0.0,0.0,0.0,0.0,0.0,0.0,0.0,0.0,0.0,0.0,0.0,0.0,0.0,0.0,0.0,0.0,0.0,0.0,0.0,0.0,0.0,-2.3967,-2.4074,-2.3969,-2.3411,-2.2899,-2.2584,-2.2089,-2.1678,-2.1344,-2.1158,-2.114,-2.1309,-2.1771,-2.2125,-2.2193,-2.4338,-2.611,-2.7582,-2.9086,-3.0317,-3.1227,-3.157,-3.2508,-3.3807,-3.2643,0.0,0.0,0.0,0.0,0.0,0.0,0.0,0.0,0.0,0.0,0.0,0.0,0.0,0.0,0.0,0.0,0.0,0.0,0.0,0.0,0.0,0.0,0.0,0.0,0.0,0.0,0.0,0.0,0.0,0.0,0.0,0.0,0.0,0.0,0.0,0.0,0.0,0.0,0.0,-4.3246,-4.4558,-4.3986,-4.4359,-4.401,0.0,0.0,0.0,0.0,0.0,0.0,0.0,0.0,0.0,-4.573,-4.6338,-4.7082,-4.7881,-4.8297,-4.8746,-4.9167,-4.871,-4.8306,-4.7939,-4.7462,-4.7462,-4.7773,-4.7773,-4.7445,-4.6833,-4.5482,-4.44,-4.3516,0.0,0.0,0.0,0.0,-4.2008,-4.2109,0.0,0.0,0.0,0.0,0.0,0.0,0.0,0.0,0.0,0.0,0.0,0.0,-2.1895,-2.2179,-2.2294,-2.1965,-2.1777,-2.1512,-2.093,-2.0769,-2.0443,-1.9917,-1.9632,-1.9616,-1.9868,-1.991,-2.0568,-2.1986,-2.3135,-2.4466,-2.5912,-2.7156,-2.8407,-2.9691,-3.0433,-3.1776,-3.3452,-3.3003,-3.2633,0.0,0.0,0.0,0.0,0.0,0.0,0.0,0.0,0.0,0.0,0.0,0.0,0.0,0.0,0.0,0.0,0.0,0.0,0.0,0.0,0.0,0.0,0.0,0.0,0.0,0.0,0.0,0.0,0.0,0.0,0.0,0.0,0.0,0.0,0.0,0.0,0.0,0.0,-4.3636,-4.4577,-4.2943,-4.4534,-4.4775,0.0,0.0,0.0,0.0,0.0,0.0,-4.5501,-4.607,-4.6565,-4.6926,-4.763,-4.8227,-4.8837,-4.9401,-4.9892,-5.0277,-4.9476,-4.8967,-4.8769,-4.8307,-4.8075,-4.8075,-4.8248,-4.8306,-4.8142,-4.6183,-4.5041,-4.4332,-4.2945,-4.2384,-4.2384,-4.2384,-4.2384,-4.2473,0.0,0.0,0.0,0.0,0.0,0.0,0.0,0.0,0.0,0.0,0.0,-1.9434,-2.0371,-2.072,-2.1129,-2.1677,-2.1687,-2.1558,-2.1288,-2.0737,-2.0278,-1.9901,-1.9632,-1.9616,-1.9868,-1.9882,-2.1148,-2.378,-2.3126,-2.3816,-2.5808,-2.6006,-2.6311,-2.6734,-2.8872,-3.099,-3.2712,-3.0292,-3.0365,-3.1956,0.0,0.0,0.0,0.0,0.0,0.0,0.0,0.0,0.0,0.0,0.0,0.0,0.0,0.0,0.0,0.0,0.0,0.0,0.0,0.0,0.0,0.0,0.0,0.0,0.0,0.0,0.0,0.0,0.0,0.0,0.0,0.0,0.0,0.0,0.0,0.0,0.0,0.0,0.0,-4.471,-4.7623,0.0,0.0,0.0,0.0,-4.4507,-4.4597,-4.5241,-4.6632,-4.6632,-4.7226,-4.8654,-4.939,-4.9811,-4.9847,-4.9872,-4.9568,-4.8908,-4.8079,-4.7299,-4.6578,-4.7168,-4.7449,-4.747,-4.8055,-4.8306,-4.8159,-4.6526,-4.5846,-4.5662,-4.4044,-4.3419,-4.3419,-4.3419,-4.3419,-4.3487,0.0,0.0,0.0,0.0,0.0,-1.7498,-1.8117,-1.7963,-1.8009,-1.86,-1.9085,-1.9413,-1.9475,-2.0239,-2.0569,-2.0269,-1.9617,-1.9584,-2.0302,-1.8468,-1.7843,-1.8979,-1.7146,-1.6048,-1.5796,-1.6411,-1.7863,-2.0146,-2.0138,-2.1773,-2.4934,-2.478,-2.5423,-2.675,-2.7569,-2.8311,-2.9146,-3.0748,-3.1311,-3.0997,-3.0228,0.0,0.0,0.0,0.0,0.0,0.0,0.0,0.0,0.0,0.0,0.0,0.0,0.0,0.0,0.0,0.0,0.0,0.0,0.0,0.0,0.0,0.0,0.0,0.0,0.0,0.0,0.0,0.0,0.0,0.0,0.0,0.0,0.0,0.0,0.0,0.0,0.0,0.0,-4.3651,-4.6189,0.0,-4.5216,-4.5678,-4.6321,-4.6693,-4.7597,-4.8372,-4.8883,-4.9331,-4.9585,-4.9619,-5.0351,-5.0502,-4.9978,-5.0462,-5.0307,-4.9553,-4.8749,-4.797,-4.7216,-4.6895,-4.6774,-4.6774,-4.6999,-4.7088,-4.698,-4.5882,-4.5635,-4.5773,-4.4709,-4.3975,-4.3515,-4.3515,-4.3515,-4.3532,0.0,0.0,0.0,0.0,-1.6453,-1.6438,-1.7117,-1.7021,-1.6898,-1.7085,-1.7534,-1.7725,-1.7265,-1.8053,-1.8436,-1.8116,-1.7483,-1.7345,-1.8045,-1.6183,-1.5498,-1.6625,-1.4938,-1.3953,-1.3897,-1.4688,-1.597,-1.766,-1.784,-1.9255,-2.1819,-2.2206,-2.3142,-2.4455,-2.5592,-2.6136,-2.6408,-2.9543,-3.045,-2.983,0.0,0.0,-2.9611,0.0,0.0,0.0,0.0,0.0,0.0,0.0,0.0,0.0,0.0,0.0,0.0,0.0,0.0,0.0,0.0,0.0,0.0,0.0,0.0,0.0,0.0,0.0,0.0,0.0,0.0,0.0,0.0,0.0,0.0,0.0,0.0,0.0,0.0,0.0,-4.5515,-4.3309,-4.6056,-4.7429,-4.5599,-4.6609,-4.7701,-4.8452,-4.9386,-5.0219,-5.0811,-5.1082,-5.1116,-5.0845,-5.1073,-5.0832,-5.0042,-5.0528,-5.0118,-4.8915,-4.8399,-4.7596,-4.6644,-4.6284,-4.6112,-4.6112,-4.6294,-4.6248,-4.5988,-4.5457,-4.5108,-4.4847,-4.4319,-4.3905,-4.3579,-4.3342,-4.3339,-4.3515,0.0,0.0,0.0,-1.5421,-1.4727,-1.4472,-1.5761,-1.5323,-1.4571,-1.3789,-1.4006,-1.4118,-1.3774,-1.4161,-1.469,-1.5476,-1.5463,-1.5272,-1.4841,-1.4063,-1.346,-1.2999,-1.3151,-1.3662,-1.4465,-1.4968,-1.5652,-1.6698,-1.6488,-1.6498,-1.6835,-1.8406,-1.9317,-1.9675,-2.2811,-2.4378,-2.4856,-2.6118,-2.7409,0.0,0.0,0.0,-2.9263,0.0,0.0,0.0,0.0,0.0,0.0,0.0,0.0,0.0,0.0,0.0,0.0,0.0,0.0,0.0,0.0,0.0,0.0,0.0,0.0,0.0,0.0,0.0,0.0,0.0,0.0,0.0,0.0,0.0,0.0,0.0,0.0,0.0,-4.2687,-4.5151,-4.6171,-4.4031,-4.7644,-4.919,-4.6271,-4.7972,-4.9383,-4.9705,-4.9709,-5.0453,-5.2134,-5.1592,-5.1524,-5.2233,-5.1557,-5.0845,-5.0101,-5.0033,-4.8917,-4.6786,-4.6786,-4.6036,-4.4643,-4.5222,-4.5468,-4.5494,-4.6088,-4.5941,-4.5257,-4.5244,-4.4359,-4.3014,-4.2921,-4.3244,-4.366,-4.2943,-4.2995,-4.3497,0.0,0.0,-1.3899,-1.3341,-1.3014,-1.2745,-1.2641,-1.2462,-1.2382,-1.2594,-1.3173,-1.3692,-1.4026,-1.464,-1.5276,-1.5782,-1.4461,-1.4113,-1.5388,-1.3236,-1.2015,-1.2138,-1.2708,-1.2691,-1.1929,-1.2208,-1.3211,-1.4909,-1.4717,-1.5492,-1.7087,-1.7434,-1.7736,-1.8096,-1.8993,-2.0297,-2.1873,-2.1932,0.0,0.0,0.0,0.0,-2.6633,0.0,0.0,0.0,0.0,0.0,0.0,0.0,0.0,0.0,0.0,0.0,0.0,0.0,0.0,0.0,0.0,0.0,0.0,0.0,0.0,0.0,0.0,0.0,0.0,0.0,0.0,0.0,0.0,0.0,0.0,0.0,0.0,-4.2136,-4.2993,-4.5078,-4.6265,-4.5667,-4.7098,-4.8142,-4.7995,-4.8551,-4.9276,-5.0156,-5.0199,-5.0408,-5.0899,-5.1427,-5.1549,-5.1219,-5.1195,-5.0845,-5.0101,-4.9052,-4.7936,-4.6786,-4.6244,-4.55,-4.4615,-4.4776,-4.4824,-4.4852,-4.5008,-4.4986,-4.4772,-4.4163,-4.3683,-4.328,-4.3067,-4.2732,-4.2305,-4.2113,-4.2422,-4.2995,0.0,-1.3402,-1.3071,-1.2395,-1.1847,-1.1467,-1.1339,-1.1283,-1.132,-1.145,-1.1962,-1.2303,-1.2279,-1.2707,-1.3083,-1.339,-1.2343,-1.2079,-1.3075,-1.0823,-0.9633,-1.0122,-1.0568,-1.096,-1.1219,-1.1314,-1.2016,-1.33,-1.3159,-1.3737,-1.498,-1.5767,-1.6181,-1.6362,-1.724,-1.829,-1.942,-1.9217,0.0,0.0,0.0,0.0,-2.6109,-2.6289,-2.6756,-2.7511,-2.8543,-2.9423,-3.0273,-3.146,0.0,0.0,0.0,0.0,0.0,0.0,0.0,0.0,0.0,0.0,0.0,0.0,0.0,0.0,0.0,0.0,0.0,0.0,0.0,0.0,0.0,0.0,0.0,0.0,-4.0473,-4.2293,-4.3228,-4.5296,-4.6741,-4.6741,-4.707,-4.7538,-4.8084,-4.8168,-4.8594,-4.9655,-4.9734,-4.9931,-5.0358,-5.093,-5.1071,-5.0648,-5.05,-5.0087,-4.9325,-4.8293,-4.7247,-4.621,-4.5866,-4.5297,-4.4615,-4.4615,-4.4615,0.0,-4.4615,-4.4412,-4.4045,-4.3578,-4.3064,0.0,0.0,0.0,0.0,0.0,-4.2021,-4.2362,0.0,-1.3041,-1.2409,-1.2159,-1.1165,-1.0535,-1.0817,-1.0869,-1.0697,-1.0219,-1.0465,-1.0389,-0.9607,-0.9693,-0.9856,-0.995,-0.9963,-0.9794,-0.9373,-0.7662,-0.6944,-0.752,-0.7868,-0.897,-1.0925,-1.1378,-1.165,-1.1755,-1.1757,-1.183,-1.1837,-1.3714,-1.4514,-1.4471,-1.6305,-1.7204,-1.7473,0.0,0.0,0.0,0.0,0.0,-2.6376,-2.5716,-2.5885,-2.6498,-2.7395,-2.7978,-2.8568,-3.03,0.0,0.0,0.0,0.0,0.0,0.0,0.0,0.0,0.0,0.0,0.0,0.0,0.0,0.0,0.0,0.0,0.0,0.0,0.0,0.0,0.0,0.0,0.0,0.0,-4.1333,-4.2532,-4.3183,-4.5343,-4.6931,-4.7062,-4.7222,-4.7309,-4.7309,-4.7309,-4.7679,-4.8553,-4.8636,-4.9044,-5.0009,0.0,0.0,0.0,0.0,-4.8968,-4.8285,-4.7621,-4.6619,-4.5272,-4.5354,-4.5005,-4.4327,-4.4412,-4.444,-4.444,-4.4559,-4.4181,-4.3511,-4.3259,-4.2287,-4.0965,-4.1043,-4.1392,-4.1877,-4.1732,-4.1703,-4.1725,0.0,-1.4724,-1.4157,-1.1413,-1.0747,-1.0061,-0.8559,-0.8294,-0.8431,-0.8649,-0.8931,-0.9105,-0.9049,-0.9415,-0.9707,-0.9849,-0.9863,-0.9271,-0.7897,-0.632,-0.5547,-0.5852,-0.7565,-0.8063,-0.6951,-1.0248,-1.1176,-0.9495,-1.1087,-1.183,-1.183,-1.2223,-1.2434,-1.2607,-1.3,-1.4196,-1.5859,0.0,0.0,0.0,0.0,0.0,-2.3753,-2.4411,-2.4906,-2.5368,-2.6208,-2.7165,-2.8293,-2.9852,-2.9912,-2.9635,-3.1456,0.0,0.0,0.0,0.0,0.0,0.0,0.0,0.0,0.0,0.0,0.0,0.0,0.0,0.0,0.0,0.0,0.0,0.0,0.0,0.0,-3.7702,-3.9695,-4.1319,-4.1906,-4.3266,-4.4627,-4.5644,-4.6682,-4.7309,-4.7309,-4.7309,-4.7366,-4.7581,-4.7624,-4.7679,-4.7892,-4.8677,-4.9094,-4.9094,-4.8733,-4.8413,-4.8285,-4.6474,-4.5164,-4.4328,0.0,0.0,-4.2552,-4.3229,-4.3562,-4.3591,-4.4298,-4.4513,-4.422,-4.2355,-4.0707,-3.9408,-4.0052,-4.0391,-4.0533,-4.0943,-4.107,-4.1138,0.0,-1.6896,-1.4787,-1.2687,-1.0846,-0.9348,-0.8474,-0.7916,-0.7733,-0.8106,-0.8411,-0.8655,-0.8804,-0.9028,-0.9191,-0.9259,-0.858,-0.7235,-0.5077,-0.4161,-0.3808,-0.4233,-0.5275,-0.5914,-0.6062,-0.8009,-0.854,-0.7599,-0.9548,-1.0467,-1.0542,-1.1531,-1.206,-1.2135,-1.2135,-1.2778,0.0,0.0,0.0,0.0,0.0,0.0,-2.0386,-2.1816,-2.2455,-2.2862,-2.5065,-2.6093,-2.6674,-2.831,-2.8321,-2.8032,-2.9865,-2.9662,-2.8704,0.0,0.0,0.0,0.0,0.0,0.0,0.0,0.0,0.0,0.0,0.0,0.0,0.0,0.0,-3.4323,-3.534,0.0,-3.7462,-3.8291,-3.9471,-4.0333,-4.0617,-4.1739,-4.3026,-4.4303,-4.5598,-4.6344,-4.6344,-4.6931,-4.7309,-4.7309,-4.7309,-4.7309,-4.7309,-4.7764,-4.8072,-4.8072,-4.7558,-4.7167,-4.6795,-4.5503,-4.4535,-4.391,-4.3631,-4.3131,-4.2525,-4.2943,-4.2971,-4.2676,-4.3108,-4.332,-4.3158,-4.1295,-4.0109,-3.9361,-3.9068,-3.9428,-4.0104,-4.0417,-4.048,-4.0528,0.0,-1.9698,-1.6347,-1.4875,-1.1889,-0.9738,-0.9758,-0.8872,-0.8219,-0.8294,-0.8577,-0.8699,-0.8567,-0.8628,-0.8568,-0.8326,-0.6945,-0.5086,-0.2687,-0.2035,-0.2011,-0.2506,-0.2849,-0.3742,-0.5081,-0.5733,-0.5961,-0.5708,-0.7642,-0.8588,-0.8588,-1.0644,-1.1566,-1.1531,-1.1911,-1.2128,0.0,0.0,0.0,0.0,0.0,0.0,-1.7107,-1.8904,-1.9864,-2.0601,-2.369,-2.4627,-2.462,-2.6356,-2.6391,-2.5948,-2.7444,-2.7647,-2.7343,-2.7172,-2.7941,0.0,0.0,0.0,0.0,0.0,0.0,0.0,0.0,0.0,-2.9913,-3.1706,-3.326,-3.4915,-3.6974,-3.7967,-3.8818,-3.9848,-3.9848,-3.9747,-3.9848,-4.0669,-4.1644,-4.2803,-4.42,-4.5024,-4.5024,-4.6166,-4.6931,-4.6931,-4.7149,-4.7309,-4.7309,-4.7309,-4.7309,-4.7309,-4.6681,-4.5992,-4.5304,-4.4804,-4.4188,-4.3457,-4.3599,-4.3292,-4.2505,-4.2673,-4.2358,-4.1756,-4.1917,-4.1789,-4.1278,-4.0288,-3.9649,-3.9146,-3.8179,-3.8557,-3.9636,-3.9636,-3.9714,-3.9876,0.0,-2.3699,-2.1271,-1.7428,-1.4902,-1.3142,-1.2243,-1.1162,-1.0195,-0.9419,-0.9535,-0.9275,-0.8213,-0.835,-0.8083,-0.7013,-0.5594,-0.4099,-0.2589,-0.1056,-0.028,-0.0365,-0.209,-0.2371,-0.0706,-0.4376,-0.5309,-0.3443,-0.5405,-0.6371,-0.6368,-0.8347,-0.928,-0.9345,-1.1232,0.0,0.0,0.0,0.0,0.0,0.0,0.0,-1.4923,-1.6558,-1.8295,-2.0051,-2.1765,-2.2388,-2.261,-2.4331,-2.4475,-2.4223,-2.615,-2.6238,-2.5369,-2.4401,0.0,-2.308,-2.1825,-2.1671,-2.2408,-2.4914,-2.5117,-2.5717,0.0,0.0,-3.1243,-3.2535,-3.5459,-3.7816,-3.7965,-3.923,-4.045,-4.1,-4.0325,-3.9873,-4.035,-4.0102,-4.0106,-4.0743,-4.2525,-4.3693,-4.3693,-4.4886,-4.5598,-4.5598,-4.6638,-4.7309,-4.7309,-4.7309,-4.7309,-4.7309,-4.6681,-4.5992,-4.5304,-4.4638,-4.3728,-4.2535,-4.256,-4.1904,-4.0734,-4.1463,-4.1479,-4.0894,-4.1658,-4.0896,-3.9121,-3.9657,-3.8741,-3.7031,-3.7562,-3.7908,-3.808,-3.808,-3.8469,-3.9016,0.0,0.0,-2.3596,-2.1226,-1.8018,-1.5453,-1.4447,-1.288,-1.1682,-1.1288,-1.023,-0.9332,-0.8911,-0.8492,-0.7367,-0.5296,-0.4585,-0.331,-0.1154,-0.0392,0.0,0.0,-0.081,-0.0899,0.0,-0.17,-0.2171,-0.1319,-0.3337,-0.4347,-0.4345,-0.7578,-0.9026,-0.8965,-1.0996,0.0,0.0,0.0,0.0,0.0,0.0,0.0,-1.4181,-1.6871,-1.8136,-1.8764,-2.0734,-2.147,0.0,0.0,-2.2159,-2.2224,-2.3994,-2.4092,-2.3441,-2.3178,-2.3128,0.0,-2.2749,-2.263,0.0,0.0,-2.4343,-2.5121,-2.7711,-2.8539,-2.9525,-3.2079,-3.4458,-3.6488,-3.7958,-3.9255,-4.0348,0.0,-4.0676,-4.0375,-4.0874,-4.0249,-3.9898,-4.045,-4.1235,-4.22,-4.3195,-4.4173,-4.4743,-4.4743,-4.5664,-4.6211,-4.6211,-4.6931,-4.7309,-4.7309,-4.6681,-4.5992,-4.5304,-4.4646,-4.3838,-4.291,-4.291,-4.2432,-4.1572,-4.1526,-4.0921,-3.9925,-3.9914,-3.9388,-3.85,-3.8071,-3.7394,-3.6554,-3.6506,-3.6446,-3.6569,-3.7472,-3.8023,-3.8246,0.0,0.0,0.0,-2.4145,-2.1093,-1.8351,-1.6774,-1.4741,-1.333,-1.3129,-1.1091,-0.9545,-0.9076,-0.8434,-0.693,-0.4218,-0.4,-0.2866,-0.0178,0.0,0.0,0.0,0.0,0.0,0.0,0.0,0.0,0.0,-0.1476,-0.2265,-0.2349,-0.5884,-0.7735,-0.8177,-1.0197,0.0,0.0,0.0,0.0,0.0,0.0,0.0,-1.5395,-1.8086,-1.8986,-1.8897,-2.0266,-2.0588,0.0,0.0,-2.0013,-2.0199,-2.1446,-2.1555,-2.1257,-2.148,-2.1843,-2.2234,-2.2324,0.0,0.0,-2.3078,-2.3709,-2.46,-2.6019,-2.696,-2.8247,-3.0943,-3.3021,-3.4926,-3.6926,-3.8568,-3.9938,-4.0794,-4.081,-4.0927,-4.148,-4.0626,-4.0124,-4.0676,-4.0601,-4.1071,-4.2527,-4.3336,-4.3781,-4.3781,-4.4452,-4.4886,-4.4886,-4.5734,-4.6255,-4.6255,-4.5639,-4.4995,-4.432,-4.3968,-4.3482,-4.282,-4.317,-4.3,-4.2381,-4.1542,-4.0576,-3.9649,-3.8781,-3.8302,-3.8033,-3.6926,-3.6387,-3.6178,-3.5699,-3.5519,-3.5619,-3.6753,-3.7294,-3.7469,0.0,0.0,0.0,0.0,-2.4036,-2.2334,-1.9335,-1.7009,-1.5331,-1.463,-1.2316,-0.9985,-0.8062,-0.795,-0.693,-0.4218,-0.4017,-0.2879,-0.0172,0.0,0.0,0.0,0.0,0.0,0.0,0.0,0.0,0.0,-0.0077,-0.0078,-0.0157,-0.2271,-0.4272,-0.6215,-0.8354,-1.0208,0.0,0.0,0.0,0.0,0.0,0.0,-1.9115,-1.9966,-2.0758,-2.1335,-2.0228,0.0,0.0,0.0,-1.837,-1.8183,-1.8519,-1.8655,0.0,-1.8601,-1.84,-1.8185,0.0,0.0,-1.9565,-2.1726,-2.2676,-2.3672,-2.555,-2.7219,-2.8498,-2.9077,-3.1742,-3.4091,-3.4513,-3.7065,-3.9324,-3.9961,-4.0758,-4.1505,-4.2112,-4.1178,-4.0701,-4.12,-4.0852,-4.0727,0.0,-4.2009,-4.2462,-4.2462,-4.3112,-4.3551,-4.3551,-4.3598,-4.3646,-4.3646,-4.311,-4.25,-4.1844,-4.238,-4.2305,-4.167,-4.278,-4.3,-4.2351,-4.1025,-4.0397,-4.0307,-3.896,-3.8033,-3.7375,-3.6746,-3.6118,-3.5519,-3.5519,-3.5519,-3.5519,-3.5554,-3.6038,-3.663,0.0,0.0,0.0,0.0,0.0,-2.3686,-2.1334,-1.8585,-1.6759,-1.6734,-1.425,0.0,0.0,0.0,0.0,0.0,-0.5836,-0.459,-0.2768,-0.182,-0.1301,-0.1295,-0.0466,0.0,0.0,0.0,0.0,0.0,0.0,0.0,-0.0076,-0.3425,-0.5307,-0.5995,-0.943,-1.1203,0.0,0.0,0.0,0.0,0.0,0.0,-1.8744,-2.1142,-2.148,-2.08,0.0,0.0,0.0,0.0,-1.9413,-1.8726,-1.8988,0.0,0.0,-1.6131,-1.607,-1.6375,-1.6962,0.0,-1.8526,-2.0665,-2.1505,-2.2213,-2.4024,-2.5619,-2.7168,-2.8409,-3.012,-3.1775,-3.3,-3.5146,-3.7214,-3.8878,-4.037,-4.1601,-4.2585,-4.1756,-4.1075,-4.125,-4.148,0.0,0.0,0.0,0.0,-4.1155,-4.1834,-4.223,-4.223,-4.3026,-4.331,-4.297,-4.2362,-4.1754,-4.1118,-4.0513,-4.0308,-4.049,-4.0449,-3.9918,-3.8934,-3.9199,-3.8688,-3.7557,-3.7034,-3.6645,-3.6312,-3.5268,-3.5112,-3.5519,-3.5519,-3.5519,-3.5519,-3.5519,-3.5651,-3.5787,0.0,0.0,0.0,0.0,0.0,0.0,0.0,0.0,0.0,0.0,0.0,0.0,0.0,0.0,0.0,0.0,0.0,-0.66,-0.5456,-0.4484,-0.4035,-0.4111,-0.3277,-0.2852,-0.2802,-0.2844,-0.2899,-0.3174,-0.3161,-0.3282,-0.3542,-0.6112,-0.7724,-0.8569,-1.1181,-1.2731,0.0,0.0,0.0,0.0,0.0,0.0,-1.8938,-2.1256,-2.1222,0.0,0.0,0.0,0.0,0.0,0.0,0.0,-1.8182,-1.7109,-1.5746,-1.4867,-1.4691,-1.4998,-1.5801,-1.68,-1.7954,-1.9512,-2.0522,-2.1362,-2.2466,-2.4409,-2.6238,-2.7081,-2.8719,-3.026,-3.1119,-3.2992,-3.4845,-3.6094,-3.8136,-3.9812,-4.0716,-3.9885,-3.9588,-4.0635,-4.0769,-4.0789,0.0,0.0,0.0,-4.0526,-4.0773,-4.0945,-4.0945,-4.169,-4.1914,-4.1373,-4.0709,-4.0014,-3.9256,-3.8661,-3.8714,-3.9265,-3.892,-3.8311,-3.7577,-3.7839,-3.7338,-3.6207,-3.5469,-3.5138,-3.5009,-3.3959,-3.3905,-3.4442,-3.4442,-3.4442,-3.4442,-3.4442,-3.4442,-3.4455,0.0,0.0,0.0,0.0,0.0,0.0,0.0,0.0,0.0,0.0,0.0,0.0,0.0,0.0,0.0,0.0,0.0,0.0,-0.8415,0.0,0.0,-0.8318,-0.8311,-0.8341,-0.8353,-0.8349,-0.8653,-0.9285,-0.9227,-0.9559,-1.0133,-1.0213,-1.1389,-1.3489,-1.3626,-1.4841,-1.6704,0.0,0.0,0.0,0.0,0.0,-1.992,-2.053,0.0,0.0,0.0,0.0,0.0,0.0,0.0,0.0,-1.6293,-1.5293,-1.4691,-1.4815,-1.4375,-1.4036,-1.4741,-1.6269,-1.7766,-1.8447,-1.9877,-2.1109,-2.1109,-2.3591,-2.5852,-2.537,-2.7549,-2.9336,0.0,0.0,-3.2374,-3.2048,-3.4428,-3.6488,-3.6894,-3.6229,-3.6639,0.0,0.0,0.0,0.0,0.0,0.0,-4.0395,0.0,-3.9697,-3.9647,-3.9647,-3.9396,-3.8844,-3.8216,-3.7412,-3.638,-3.6897,-3.7461,-3.7952,-3.7979,-3.7979,-3.7924,-3.6776,-3.6251,-3.6101,-3.4278,-3.3541,-3.3449,-3.2806,-3.2558,-3.2593,-3.2593,-3.2593,-3.2593,-3.2593,-3.2593,-3.273,0.0,0.0,0.0,0.0,0.0,0.0,0.0,0.0,0.0,0.0,0.0,0.0,0.0,0.0,0.0,0.0,0.0,0.0,0.0,0.0,0.0,0.0,0.0,0.0,0.0,0.0,0.0,0.0,0.0,-1.5516,-1.5712,-1.7116,-1.7799,0.0,-1.9194,-1.9469,-1.8882,0.0,0.0,0.0,0.0,0.0,-2.0308,0.0,0.0,0.0,0.0,0.0,0.0,0.0,0.0,0.0,-1.7469,-1.6976,-1.6701,-1.609,-1.5977,-1.6155,-1.6706,-1.7572,-1.8601,-2.0093,-2.0779,-2.1109,-2.1109,-2.335,-2.5353,-2.4933,-2.6605,-2.8027,0.0,0.0,0.0,-3.19,-3.4602,0.0,-3.7767,-3.7677,0.0,-3.7485,0.0,-3.7976,-3.7363,-3.8501,0.0,0.0,-3.9322,-3.9521,-3.9145,-3.9069,-3.8617,-3.7638,-3.7134,-3.6458,-3.5755,-3.5497,-3.5021,-3.4434,-3.4805,-3.4779,-3.4408,-3.4456,-3.4031,-3.3245,-3.2735,-3.2493,-3.2364,-3.1776,-3.1947,-3.2593,-3.2593,-3.2593,-3.2593,-3.2593,-3.2352,-3.1986,0.0,0.0,0.0,0.0,0.0,0.0,0.0,0.0,0.0,0.0,0.0,0.0,0.0,0.0,0.0,0.0,0.0,0.0,0.0,0.0,0.0,0.0,0.0,0.0,0.0,0.0,0.0,0.0,0.0,0.0,0.0,-2.4079,-2.4205,-2.3555,-2.4653,-2.4253,-2.2814,0.0,0.0,0.0,0.0,0.0,0.0,0.0,0.0,0.0,0.0,0.0,0.0,0.0,0.0,-1.8461,-1.8104,-1.7616,-1.7127,-1.6693,0.0,-1.7362,-1.7743,-1.9199,-2.0899,-2.1881,-2.2659,-2.3068,-2.2535,-2.4182,-2.5588,-2.4833,-2.5968,0.0,-2.6777,0.0,0.0,0.0,0.0,0.0,-3.5452,-3.524,-3.5243,0.0,-3.618,0.0,-3.6329,-3.7175,-3.753,0.0,-3.877,-3.9446,-3.8944,-3.8919,-3.8366,-3.7211,-3.6885,-3.6232,-3.5157,-3.4399,-3.3696,-3.3111,-3.3395,-3.337,-3.3086,-3.2854,-3.2429,-3.1829,0.0,-3.1112,-3.1009,-3.0712,-3.0921,-3.1378,-3.1378,-3.1378,-3.1378,-3.1378,-3.1007,-3.0432,0.0,0.0,0.0,0.0,0.0,0.0,0.0,0.0,0.0,0.0,-2.4388,0.0,0.0,0.0,0.0,0.0,0.0,0.0,0.0,0.0,0.0,0.0,0.0,0.0,0.0,0.0,0.0,0.0,0.0,0.0,0.0,0.0,0.0,0.0,0.0,0.0,0.0,0.0,0.0,0.0,0.0,0.0,0.0,0.0,0.0,0.0,0.0,0.0,0.0,0.0,-1.8195,-1.8275,-1.8624,-1.8172,-1.7514,-1.7738,-1.8319,-1.897,-1.9038,-2.1396,-2.3764,-2.3764,-2.4836,-2.5578,-2.4384,-2.5263,-2.5952,-2.4755,0.0,-2.6309,-2.6309,-2.7305,-2.8184,-2.834,0.0,-3.1113,-3.2051,-3.1523,-3.1959,-3.4401,-3.408,-3.4328,-3.6016,-3.5912,-3.5781,-3.5714,-3.7774,-3.8782,-3.8237,-3.8138,-3.7618,-3.6378,-3.6354,-3.5585,-3.4004,-3.3214,-3.2742,-3.2612,-3.2864,-3.2925,-3.2703,-3.1746,-3.1286,-3.1235,0.0,0.0,-2.9804,-2.9804,-2.9804,-2.9804,-2.9804,-2.9804,-2.9804,-2.9804,-2.9428,-2.8813,0.0,0.0,0.0,0.0,0.0,0.0,0.0,0.0,0.0,0.0,-2.9095,-2.7237,0.0,0.0,0.0,0.0,0.0,0.0,0.0,0.0,0.0,0.0,0.0,0.0,0.0,0.0,0.0,0.0,0.0,0.0,0.0,0.0,0.0,0.0,0.0,0.0,0.0,0.0,0.0,0.0,0.0,0.0,0.0,0.0,0.0,0.0,0.0,0.0,0.0,0.0,-1.9292,-1.9546,-1.984,-2.0708,-2.1728,-2.1987,-2.3097,-2.4297,-2.43,-2.4932,-2.5587,-2.5587,-2.5496,-2.5205,-2.4318,-2.4795,0.0,0.0,-2.5002,-2.581,-2.581,-2.6602,-2.7578,-2.8633,0.0,0.0,0.0,0.0,-3.2015,0.0,0.0,0.0,0.0,0.0,0.0,0.0,0.0,-3.526,-3.4703,-3.4343,-3.3522,-3.205,-3.1982,-3.1454,-3.0308,-3.1139,-3.1045,-3.0033,-3.1601,-3.1833,-3.086,-3.0762,-3.0758,-3.0708,-3.008,0.0,-2.9804,-2.9804,-2.9804,-2.9804,-2.9804,-2.9804,-2.9804,-2.9804,-2.9428,-2.8813,0.0,0.0,0.0,0.0,0.0,0.0,0.0,-3.2338,-3.4053,-3.3993,-3.335,-3.2528,-3.1564,-3.1695,-3.2048,0.0,0.0,0.0,0.0,0.0,0.0,0.0,0.0,0.0,0.0,0.0,0.0,0.0,0.0,0.0,0.0,0.0,0.0,0.0,0.0,0.0,0.0,0.0,0.0,0.0,0.0,0.0,0.0,0.0,0.0,0.0,0.0,0.0,0.0,0.0,-2.0269,-2.1391,-2.1586,-2.2132,-2.2992,-2.3972,-2.544,-2.697,-2.7935,-2.8957,-2.9693,-2.9693,-2.9332,-2.8408,-2.6155,0.0,0.0,0.0,-2.4651,-2.5117,-2.5352,-2.6269,0.0,-2.7832,-2.9023,0.0,0.0,0.0,0.0,0.0,0.0,0.0,0.0,0.0,0.0,0.0,0.0,-3.2212,-3.3399,-3.2785,-3.1982,-3.0993,-3.0676,-3.0317,-2.9845,-3.0125,-2.9943,-2.9396,-3.0129,-3.0395,-3.0371,-2.9932,-2.9731,-2.9666,-2.9169,0.0,-2.8131,-2.8688,-2.8949,-2.8988,-2.9585,-2.9804,-2.9804,-2.9804,-2.9428,-2.8813,0.0,0.0,0.0,0.0,0.0,0.0,0.0,-3.3106,-3.504,-3.4953,-3.6237,-3.6624,-3.5112,-3.4806,-3.4898,0.0,0.0,0.0,0.0,0.0,0.0,0.0,0.0,0.0,0.0,0.0,0.0,0.0,0.0,0.0,0.0,0.0,0.0,0.0,0.0,0.0,0.0,0.0,0.0,0.0,0.0,0.0,0.0,0.0,0.0,0.0,0.0,0.0,0.0,0.0,-2.1627,-2.2912,-2.332,-2.3567,-2.392,-2.5051,-2.7017,-2.9086,-3.0564,-3.2251,-3.3564,-3.3564,-3.2916,-3.1433,-2.8215,-2.6852,0.0,0.0,-2.4277,-2.4453,-2.5008,-2.5898,-2.668,0.0,-2.8144,-2.9394,0.0,0.0,0.0,0.0,0.0,0.0,0.0,0.0,0.0,0.0,0.0,0.0,-3.2006,-3.1302,-3.0603,-3.0171,-2.9642,-2.9336,-2.9226,-2.9088,-2.8866,-2.8612,-2.8699,-2.9079,-2.9607,-2.8841,-2.8498,-2.8516,-2.7998,0.0,0.0,-2.74,-2.7763,-2.7844,-2.8752,-2.9091,-2.9091,-2.9091,-2.8723,-2.8183,0.0,0.0,0.0,0.0,0.0,0.0,0.0,-3.2956,-3.4322,-3.6088,-3.6447,-3.6922,-3.7898,-3.7446,-3.688,0.0,0.0,0.0,0.0,0.0,0.0,0.0,0.0,0.0,0.0,0.0,0.0,0.0,0.0,0.0,0.0,0.0,0.0,0.0,0.0,0.0,0.0,0.0,0.0,0.0,0.0,0.0,0.0,0.0,0.0,0.0,0.0,0.0,0.0,0.0,0.0,-2.3191,-2.4804,-2.5736,-2.6134,-2.5929,0.0,0.0,-3.2184,-3.3612,-3.5068,-3.5068,-3.3453,-3.1379,-2.9413,0.0,0.0,-2.4121,-2.3848,-2.4102,-2.4969,-2.5223,-2.5625,0.0,0.0,-2.7812,0.0,0.0,0.0,0.0,0.0,0.0,0.0,0.0,0.0,0.0,0.0,0.0,-2.8767,-2.8311,-2.7855,-2.7368,-2.6983,-2.6517,-2.6121,-2.7194,-2.7173,-2.6042,-2.7788,-2.805,-2.7073,-2.7216,-2.7285,-2.724,-2.6809,0.0,0.0,-2.6607,-2.6648,-2.6648,-2.6771,-2.6812,-2.6812,-2.6812,-2.6495,-2.6012,0.0,0.0,0.0,0.0,0.0,0.0,-3.2304,-3.3962,-3.5579,-3.6387,-3.7165,-3.7973,-3.8901,-3.8781,-3.8362,-3.7674,0.0,0.0,0.0,0.0,0.0,0.0,0.0,0.0,0.0,0.0,0.0,-4.1204,0.0,0.0,0.0,0.0,0.0,0.0,0.0,0.0,0.0,0.0,0.0,0.0,0.0,0.0,0.0,0.0,0.0,0.0,0.0,0.0,0.0,0.0,0.0,0.0,-2.5083,-2.5729,0.0,0.0,-2.8345,-3.0275,-3.1933,-3.3812,-3.5288,-3.5288,-3.4313,-3.2628,-2.9863,0.0,-2.5542,-2.4081,-2.3789,-2.3965,-2.457,-2.4883,-2.5282,0.0,0.0,0.0,0.0,0.0,0.0,0.0,0.0,0.0,0.0,0.0,0.0,0.0,0.0,0.0,-2.7891,-2.75,-2.6953,-2.622,-2.6074,-2.5869,-2.5693,-2.6207,-2.6207,-2.5723,-2.6249,-2.6563,-2.6706,-2.6275,-2.6087,-2.6066,-2.5636,0.0,0.0,-2.5168,-2.5462,-2.5546,-2.6213,-2.6524,-2.6524,-2.6524,-2.639,-2.6098,0.0,0.0,0.0,0.0,0.0,-3.3992,-3.3326,-3.4728,-3.6088,-3.6686,-3.7554,-3.8512,-3.9589,-3.9493,-3.929,-3.902,-3.7793,0.0,0.0,0.0,0.0,0.0,0.0,0.0,0.0,0.0,-4.185,-4.2492,-4.256,-4.2833,0.0,0.0,0.0,0.0,0.0,0.0,0.0,0.0,0.0,0.0,0.0,0.0,0.0,0.0,0.0,0.0,0.0,0.0,0.0,0.0,0.0,0.0,0.0,0.0,0.0,0.0,-2.8061,-2.9225,-3.1412,-3.3486,-3.5218,-3.579,-3.4855,-3.3149,0.0,0.0,-2.5754,-2.452,-2.4013,-2.3965,-2.4512,-2.4863,-2.5165,0.0,0.0,-2.6387,-2.6934,0.0,0.0,0.0,0.0,0.0,0.0,0.0,0.0,0.0,0.0,0.0,0.0,-2.6875,-2.6426,-2.5937,-2.5752,-2.5693,-2.5693,-2.5605,-2.5547,-2.5527,-2.5078,-2.5285,-2.5967,-2.5255,-2.4951,-2.491,0.0,0.0,0.0,-2.3973,-2.4296,-2.4382,-2.5189,-2.5484,-2.5484,-2.5484,-2.544,-2.5202,0.0,0.0,0.0,0.0,0.0,0.0,-3.533,-3.4972,-3.5222,-3.7135,-3.7404,-3.8182,-4.0157,-3.9798,-3.9679,-4.0337,-3.914,0.0,0.0,0.0,0.0,0.0,0.0,0.0,0.0,0.0,-4.3363,-4.5536,-4.4019,-4.4054,-4.5476,-4.158,-3.949,0.0,0.0,0.0,0.0,0.0,0.0,0.0,0.0,0.0,0.0,0.0,0.0,0.0,0.0,0.0,0.0,0.0,0.0,0.0,0.0,-2.7342,0.0,0.0,-2.8208,-3.0071,-3.0874,-3.2802,-3.5038,-3.7015,-3.4855,-3.2384,0.0,0.0,-2.5978,-2.5474,-2.4553,-2.4043,-2.4949,-2.5106,-2.5215,-2.5615,0.0,0.0,-2.6894,0.0,0.0,0.0,0.0,0.0,0.0,0.0,0.0,0.0,0.0,0.0,0.0,-2.5996,-2.5937,-2.6367,-2.5957,-2.5693,-2.5693,-2.5293,-2.5125,-2.5106,-2.4629,-2.4414,-2.4414,-2.3984,-2.3834,0.0,0.0,0.0,0.0,-2.3101,-2.3144,-2.3144,-2.3144,-2.3144,-2.3144,-2.3144,-2.2871,-2.2503,0.0,0.0,0.0,0.0,0.0,0.0,0.0,-3.5799,-3.6315,-3.7263,-3.7404,-3.8182,-4.0187,-4.0217,-4.0337,-4.0995,-3.9439,0.0,0.0,0.0,0.0,0.0,0.0,0.0,0.0,0.0,-4.3327,-4.5597,-4.5606,-4.6114,-4.6959,-4.4221,-4.2217,-4.0805,0.0,0.0,0.0,0.0,0.0,0.0,0.0,0.0,0.0,0.0,0.0,0.0,0.0,0.0,0.0,0.0,0.0,0.0,0.0,0.0,0.0,-2.8019,-2.85,-2.8885,-2.8958,-3.0506,-3.2234,-3.2841,-3.2316,-3.162,-3.1455,0.0,-2.7507,-2.574,-2.5127,-2.4925,-2.509,-2.5106,-2.5215,-2.5615,-2.5693,0.0,0.0,0.0,0.0,0.0,0.0,0.0,0.0,0.0,0.0,0.0,0.0,0.0,0.0,-2.5527,-2.5488,-2.5937,-2.5508,-2.543,-2.5693,-2.5293,-2.5106,-2.5106,-2.4629,-2.4414,-2.4394,-2.3984,0.0,0.0,0.0,0.0,0.0,-2.3101,-2.3101,-2.3101,-2.3101,-2.3101,-2.3101,-2.3101,-2.3003,-2.2789,0.0,0.0,0.0,0.0,0.0,0.0,0.0,-3.6712,-3.6785,-3.7403,-3.7429,-3.8063,-3.9828,-4.0247,-4.0666,-4.1324,-3.9817,0.0,0.0,0.0,0.0,0.0,0.0,0.0,0.0,-4.219,-4.3877,-4.6439,-4.6872,-4.7588,-4.8491,-4.5988,-4.3925,-4.2228,-3.8335,0.0,0.0,0.0,0.0,0.0,0.0,0.0,-3.2466,0.0,0.0,0.0,0.0,0.0,0.0,0.0,0.0,0.0,0.0,0.0,0.0,0.0,-2.8704,-2.8838,-2.8466,-2.9371,-3.0507,-3.083,-3.0559,-3.0225,0.0,0.0,-2.6996,-2.5676,-2.5083,-2.482,-2.4827,-2.5008,-2.5156,-2.5449,-2.5577,0.0,0.0,0.0,0.0,0.0,0.0,0.0,0.0,0.0,0.0,0.0,0.0,0.0,0.0,-2.4902,-2.4785,-2.5187,-2.4961,-2.4961,-2.5187,-2.4805,-2.4636,-2.457,-2.4141,-2.3881,-2.3881,-2.3652,0.0,0.0,0.0,0.0,0.0,-2.3101,-2.3101,-2.3101,-2.3101,-2.3101,-2.3081,-2.2925,-2.2847,-2.273,0.0,0.0,0.0,0.0,0.0,0.0,0.0,-3.7671,-3.697,-3.7529,-3.7524,-3.7982,-3.92,-3.9978,-4.0666,-4.1324,0.0,0.0,0.0,0.0,0.0,0.0,0.0,0.0,-4.2045,-4.2898,-4.4792,-4.7877,-4.7875,-4.8611,-4.9983,-4.7031,-4.4814,-4.3168,-3.9017,-3.577,0.0,0.0,0.0,0.0,-3.0432,-3.0944,0.0,0.0,0.0,0.0,0.0,0.0,0.0,0.0,0.0,0.0,0.0,0.0,0.0,0.0,0.0,0.0,0.0,-2.9254,-2.9767,-3.0424,-2.946,-2.8411,-2.8677,0.0,0.0,-2.533,-2.4597,-2.4016,-2.4375,-2.4766,-2.5086,-2.5145,-2.543,0.0,0.0,0.0,0.0,0.0,0.0,0.0,0.0,0.0,0.0,0.0,0.0,0.0,0.0,-2.4238,-2.3965,-2.4316,-2.4316,-2.4355,-2.4414,-2.4004,-2.3789,-2.3789,-2.3296,-2.3101,-2.3101,-2.3101,0.0,0.0,0.0,0.0,0.0,-2.3101,-2.3101,-2.3101,-2.3101,-2.3101,-2.3042,-2.2676,-2.2519,-2.2383,0.0,0.0,0.0,0.0,0.0,0.0,0.0,0.0,0.0,0.0,-3.8017,-3.8388,-3.8612,-3.9679,-4.0666,0.0,0.0,0.0,0.0,0.0,0.0,0.0,0.0,0.0,-4.2782,-4.3041,-4.4953,-4.864,-4.9186,-4.9897,-5.0652,-4.891,-4.6847,-4.4433,-3.9841,-3.5389,0.0,0.0,0.0,0.0,-3.0708,-3.0877,0.0,0.0,0.0,0.0,-2.8248,-2.782,0.0,0.0,0.0,0.0,0.0,0.0,0.0,0.0,-2.7666,-2.8443,-2.8351,0.0,-2.8328,-2.7705,-2.7536,-2.7446,0.0,0.0,0.0,0.0,0.0,-2.5019,-2.4952,-2.4727,-2.4785,-2.5469,-2.5371,-2.5488,-2.6269,0.0,0.0,0.0,0.0,0.0,0.0,0.0,0.0,0.0,0.0,0.0,0.0,-2.4082,-2.3691,-2.3393,-2.3393,-2.3705,-2.4414,-2.4004,-2.3789,-2.3789,-2.3296,-2.3101,-2.3101,-2.3101,0.0,0.0,0.0,0.0,-2.3101,-2.3101,-2.3101,-2.3101,-2.3101,-2.3101,-2.3042,-2.2676,-2.2519,-2.2383,0.0,0.0,0.0,0.0,0.0,0.0,0.0,0.0,0.0,0.0,0.0,-3.7977,-3.7567,-3.896,0.0,0.0,0.0,0.0,0.0,0.0,0.0,0.0,0.0,-3.9664,-4.2406,-4.2905,-4.4655,-4.7789,-4.9291,-5.0357,-5.0938,-4.9564,-4.7933,-4.5973,-3.9808,-3.5009,0.0,0.0,0.0,-3.1336,-3.0834,0.0,0.0,0.0,0.0,0.0,-2.693,-2.6365,0.0,-2.5232,-2.4935,-2.4935,0.0,0.0,0.0,0.0,-2.6502,-2.736,-2.736,-2.8298,-2.8972,-2.7871,-2.7459,-2.7091,-2.6275,0.0,0.0,0.0,0.0,-2.4323,-2.4193,-2.4316,-2.457,-2.5011,-2.543,0.0,0.0,0.0,0.0,0.0,0.0,0.0,0.0,0.0,0.0,0.0,0.0,0.0,0.0,-2.373,-2.3379,-2.3101,-2.3101,-2.3315,-2.3783,-2.3594,-2.3496,-2.3496,-2.3198,-2.3101,-2.3101,-2.3101,-2.3101,0.0,0.0,0.0,-2.3101,-2.3101,-2.3101,-2.3081,-2.2886,-2.2808,-2.273,-2.2107,-2.1892,-2.1836,0.0,0.0,0.0,0.0,0.0,0.0,0.0,0.0,0.0,0.0,0.0,0.0,0.0,0.0,0.0,0.0,0.0,0.0,0.0,0.0,0.0,0.0,0.0,-3.936,-4.1591,-4.257,-4.4237,-4.6486,-4.8737,-5.0195,-5.0899,-4.9538,-4.805,-4.6191,-3.9195,-3.4854,0.0,0.0,-3.0457,-3.1461,-3.0558,0.0,0.0,0.0,0.0,0.0,0.0,0.0,0.0,-2.343,-2.3101,-2.3101,-2.3101,0.0,0.0,0.0,0.0,0.0,-2.6324,-2.8269,-2.9992,-2.8616,-2.7638,-2.671,-2.5483,0.0,0.0,0.0,0.0,0.0,0.0,-2.3965,0.0,0.0,0.0,0.0,0.0,0.0,0.0,0.0,0.0,0.0,0.0,0.0,0.0,0.0,0.0,-2.416,0.0,-2.3335,-2.3101,-2.3101,-2.3101,-2.3101,-2.3101,-2.3101,-2.3101,-2.3101,-2.3101,-2.3101,-2.3101,-2.3101,-2.3101,0.0,0.0,0.0,-2.3101,-2.3101,-2.3062,-2.2964,-2.2656,-2.248,-2.2324,-2.1483,-2.119,-2.1112,0.0,0.0,0.0,0.0,0.0,0.0,0.0,0.0,0.0,0.0,0.0,0.0,0.0,0.0,0.0,0.0,0.0,0.0,0.0,0.0,0.0,-3.669,-3.7439,-3.8935,-4.1234,-4.2488,-4.4237,-4.6486,-4.823,-4.9441,-5.0156,-4.931,-4.6278,-4.1465,-3.8247,-3.5321,-3.2673,-3.0636,-3.0683,-3.188,-2.9448,0.0,0.0,0.0,0.0,0.0,0.0,0.0,0.0,-2.3188,-2.3101,-2.3101,-2.3101,0.0,0.0,0.0,0.0,0.0,-2.5507,-2.7195,-2.836,-2.6021,-2.5573,-2.5309,-2.3827,0.0,0.0,0.0,0.0,0.0,0.0,-2.457,-2.4785,0.0,0.0,0.0,0.0,0.0,0.0,0.0,0.0,0.0,0.0,0.0,0.0,0.0,0.0,0.0,-2.3789,-2.3335,-2.3101,-2.3101,-2.3101,-2.3101,-2.3101,-2.3101,-2.3101,-2.3101,-2.3101,-2.3101,-2.3101,-2.3101,-2.3101,0.0,0.0,-2.3101,-2.3101,-2.3101,-2.2886,-2.2598,-2.2539,-2.2305,-2.1934,-2.1426,-2.119,-2.1073,0.0,0.0,0.0,0.0,0.0,0.0,0.0,0.0,0.0,0.0,0.0,0.0,0.0,0.0,0.0,0.0,0.0,0.0,0.0,0.0,0.0,-3.5872,-3.6576,-3.8074,-4.0382,-4.1486,-4.3224,-4.5585,-4.8113,-4.9531,-4.9844,-4.9201,-4.6235,-4.137,-3.8943,-3.6347,-3.3615,-3.1472,-3.0817,-3.1095,0.0,0.0,0.0,0.0,0.0,0.0,0.0,0.0,0.0,0.0,-2.3101,-2.3101,-2.3101,0.0,0.0,0.0,0.0,0.0,-2.4106,-2.5054,-2.5778,-2.4828,-2.5735,-2.6718,0.0,0.0,0.0,0.0,0.0,0.0,0.0,0.0,-2.4703,-2.6754,0.0,0.0,0.0,0.0,0.0,0.0,0.0,0.0,0.0,0.0,0.0,0.0,0.0,0.0,-2.3457,-2.3198,-2.3101,-2.3101,-2.3101,-2.3101,-2.3101,-2.3101,-2.3101,-2.3101,-2.3101,-2.3101,-2.3101,-2.3101,-2.3101,-2.3101,0.0,-2.3101,-2.3101,-2.3101,-2.2984,-2.2769,-2.2363,-2.2051,-2.1797,-2.1113,-2.0879,-2.082,0.0,0.0,0.0,0.0,0.0,0.0,0.0,0.0,0.0,0.0,0.0,0.0,0.0,0.0,0.0,0.0,0.0,0.0,0.0,0.0,-3.6025,-3.5537,-3.5871,-3.7096,-3.9191,-4.045,-4.21,-4.4127,-4.7135,-4.8817,-4.9241,-4.9188,-4.6914,-4.2723,-4.0229,-3.7649,-3.5045,-3.25,-3.1303,-3.1053,0.0,0.0,0.0,0.0,0.0,0.0,0.0,0.0,0.0,0.0,0.0,0.0,0.0,0.0,0.0,-2.3101,-2.3101,-2.312,-2.3218,-2.337,-2.3614,-2.4036,-2.5657,0.0,0.0,0.0,0.0,0.0,0.0,0.0,0.0,-2.2383,0.0,0.0,0.0,0.0,0.0,0.0,0.0,0.0,0.0,0.0,0.0,0.0,0.0,0.0,0.0,0.0,-2.312,-2.3101,-2.3101,-2.3101,-2.3101,-2.3101,-2.3101,-2.3101,-2.3101,-2.3101,-2.3101,-2.3101,-2.3101,-2.3101,-2.3101,-2.3101,-2.3101,-2.3101,-2.3101,-2.3101,-2.3042,-2.2867,-2.2168,-2.1758,-2.1504,-2.086,-2.0605,-2.0605,0.0,0.0,0.0,0.0,0.0,0.0,0.0,0.0,0.0,0.0,0.0,0.0,0.0,0.0,0.0,0.0,0.0,0.0,0.0,0.0,-3.5922,-3.5509,-3.5558,-3.616,-3.7449,-3.9722,-4.13,-4.2124,-4.4338,-4.6248,-4.777,-4.93,-4.7977,-4.4238,-4.166,-3.921,-3.6709,-3.3496,-3.262,-3.3068,-2.8962,0.0,0.0,0.0,0.0,0.0,0.0,0.0,0.0,0.0,0.0,0.0,0.0,0.0,-2.3101,-2.3101,-2.3101,-2.3179,-2.3633,-2.3248,-2.28,-2.3201,-2.371,0.0,-2.6163,-2.582,0.0,-2.4194,0.0,0.0,0.0,-2.2435,0.0,0.0,0.0,0.0,0.0,0.0,0.0,0.0,0.0,0.0,0.0,0.0,0.0,0.0,0.0,0.0,-2.3101,-2.3101,-2.3101,-2.3101,-2.3101,-2.3101,-2.3101,-2.3101,-2.3101,-2.3101,-2.3101,-2.3101,-2.3101,-2.3101,-2.3101,-2.3101,-2.3101,-2.3101,-2.3101,-2.3101,-2.2867,-2.2519,-2.207,-2.1427,-2.0683,-2.0625,-2.0605,-2.0605,0.0,0.0,0.0,0.0,0.0,0.0,0.0,0.0,0.0,0.0,0.0,0.0,0.0,0.0,0.0,0.0,0.0,0.0,0.0,-3.7316,-3.6771,-3.6049,-3.5973,-3.5922,-3.5699,-3.8323,-4.0371,-4.1686,-4.4335,-4.6518,-4.8298,-4.7988,-4.6928,-4.5131,-4.2755,-4.0102,-3.7235,-3.5497,-3.3688,-3.1838,-2.9392,-2.7822,0.0,0.0,0.0,0.0,0.0,0.0,0.0,0.0,-2.3101,-2.3101,-2.3101,-2.3101,-2.3101,-2.3101,-2.3101,-2.314,-2.334,-2.2726,-2.2193,-2.2731,-2.2078,0.0,0.0,-2.4262,-2.3705,-2.2478,-2.2548,0.0,0.0,0.0,0.0,0.0,0.0,0.0,0.0,0.0,0.0,0.0,0.0,0.0,0.0,0.0,0.0,0.0,0.0,0.0,0.0,-2.2403,-2.2296,-2.3101,-2.3101,-2.3101,-2.3101,-2.3101,-2.3101,-2.3101,-2.3101,-2.3101,-2.3101,-2.3101,-2.3101,-2.3101,-2.3101,-2.2668,-2.1987,-2.1987,-2.1452,-2.0634,-2.0698,-2.0661,-2.0527,-1.9844,-2.004,-2.0489,0.0,0.0,0.0,0.0,0.0,0.0,0.0,0.0,0.0,0.0,0.0,0.0,0.0,0.0,0.0,0.0,0.0,0.0,-3.7296,-3.7362,-3.7134,-3.6497,-3.6672,-3.6373,-3.546,-3.7903,-3.9731,-4.0772,-4.4195,-4.6587,-4.789,-4.7177,-4.6668,-4.6287,-4.3701,-4.1202,-3.8843,-3.699,-3.4888,-3.2672,-3.0417,-2.8672,0.0,0.0,0.0,0.0,0.0,0.0,0.0,0.0,-2.3101,-2.3101,-2.3101,-2.3101,-2.3101,-2.3101,-2.3101,-2.3013,-2.2643,-2.1833,-2.109,-2.1174,0.0,0.0,-2.1402,-2.2489,-2.2754,-2.1638,0.0,0.0,0.0,0.0,0.0,0.0,0.0,0.0,0.0,0.0,0.0,0.0,0.0,0.0,0.0,0.0,0.0,0.0,0.0,0.0,0.0,-2.1168,-2.1302,-2.2492,-2.2536,-2.2731,-2.3101,-2.3101,-2.3101,-2.3101,-2.2731,-2.2536,-2.2536,-2.2906,-2.2906,-2.2536,-2.2536,-2.2076,-2.1284,-2.0881,-2.0293,-1.9662,-1.9802,-1.9942,-2.0001,-1.9274,-1.9432,-2.0001,0.0,0.0,0.0,0.0,0.0,0.0,0.0,0.0,-4.632,-4.42,-4.4534,0.0,0.0,0.0,0.0,0.0,0.0,0.0,-3.6514,-3.6633,-3.6716,-3.6761,-3.7482,-3.7635,-3.707,-3.8734,-3.9439,-3.9031,-4.3608,-4.5965,-4.6208,-4.7105,-4.7697,-4.7744,-4.4559,-4.2719,-4.1821,-3.7759,-3.6331,-3.6396,-3.198,-3.0016,-2.9392,0.0,0.0,0.0,0.0,0.0,0.0,0.0,-2.3101,-2.3101,-2.3101,-2.3101,-2.3101,-2.3101,-2.3101,-2.2818,-2.1614,-2.0387,-1.9258,0.0,0.0,0.0,-1.821,-2.0429,-2.2246,-2.2181,0.0,0.0,0.0,0.0,0.0,0.0,0.0,0.0,0.0,0.0,0.0,0.0,0.0,0.0,0.0,0.0,0.0,0.0,0.0,0.0,0.0,-1.9497,-2.0025,-2.1239,-2.1284,-2.1836,-2.3038,-2.3081,-2.3081,-2.3038,-2.188,-2.1284,-2.1328,-2.2536,-2.2448,-2.1284,-2.1284,-2.1284,-2.1194,-1.998,-1.9672,-1.9949,-1.9696,-1.934,-1.8997,-1.8957,-1.8957,-1.8997,0.0,0.0,0.0,0.0,0.0,0.0,0.0,0.0,-4.6672,-4.5479,-4.5115,0.0,0.0,0.0,0.0,0.0,0.0,0.0,-3.7272,-3.6143,-3.5552,-3.5721,-3.6009,-3.5909,-3.5424,-3.7805,-3.9836,-4.1379,-4.2779,-4.4044,-4.5196,-4.5147,-4.5506,-4.6076,-4.4647,-4.3002,-4.1181,-3.8888,-3.7233,-3.5934,-3.3237,-3.1396,-2.9917,0.0,0.0,0.0,0.0,0.0,0.0,0.0,0.0,0.0,-2.2818,-2.3315,-2.3535,-2.3179,-2.272,-2.2197,-2.1463,-1.9954,0.0,-1.8148,0.0,0.0,0.0,-1.8905,0.0,0.0,0.0,0.0,0.0,0.0,0.0,0.0,0.0,0.0,0.0,0.0,0.0,0.0,0.0,0.0,0.0,0.0,0.0,0.0,0.0,0.0,0.0,-1.8688,-1.878,-1.998,-2.0589,-2.0668,-2.0272,-2.1881,-2.1749,-1.9955,-2.0674,-2.1018,-2.1018,-2.073,-2.0554,-2.049,-2.0162,-1.9844,-1.9368,-1.7417,-1.6892,-1.7249,-1.7181,-1.7399,-1.7698,-1.6968,-1.7172,-1.7698,0.0,0.0,0.0,0.0,0.0,0.0,0.0,0.0,-4.6574,-4.5975,-4.5859,-4.555,0.0,0.0,0.0,0.0,0.0,0.0,0.0,-3.5815,-3.5175,-3.5508,-3.5447,-3.5358,-3.5319,-3.7207,-3.91,-4.0958,-4.168,-4.2705,-4.4012,-4.4383,-4.4813,-4.531,-4.4919,-4.346,-4.1209,-3.9382,-3.779,-3.6283,-3.4221,-3.2424,-3.0751,0.0,0.0,0.0,0.0,0.0,0.0,0.0,0.0,0.0,-2.1454,-2.1841,-2.2052,-2.175,-2.1347,-2.0852,-2.0093,-1.9018,0.0,-1.7822,-1.7608,-1.7649,-1.8263,0.0,0.0,0.0,0.0,0.0,0.0,0.0,0.0,0.0,0.0,0.0,0.0,0.0,0.0,0.0,0.0,0.0,0.0,0.0,0.0,0.0,0.0,0.0,0.0,-1.7167,-1.7292,-1.8396,-1.8985,-1.9178,-1.8929,-2.0392,-2.0526,-1.9221,-1.9272,-1.9462,-1.9887,-1.9518,-1.9212,-1.8969,-1.8726,-1.8159,-1.7326,-1.5711,-1.548,-1.6089,-1.5998,-1.6236,-1.6601,-1.5944,-1.6108,-1.656,0.0,0.0,-4.0585,-4.1909,0.0,0.0,0.0,0.0,-4.6203,-4.5883,-4.6507,-4.6795,0.0,0.0,0.0,0.0,0.0,0.0,0.0,0.0,-3.5158,-3.5733,-3.5497,-3.5609,-3.6184,-3.6804,-3.759,-3.8562,-4.0241,-4.1617,-4.27,-4.4186,-4.492,-4.4952,-4.4888,-4.3677,-4.1527,-3.9238,-3.7883,-3.7127,-3.4976,-3.3304,-3.1894,-3.0253,0.0,0.0,0.0,0.0,0.0,0.0,0.0,0.0,-1.9497,-1.9513,-1.953,-1.9497,-1.9422,-1.9134,-1.8055,-1.7826,-1.7853,-1.734,-1.7649,0.0,-1.8838,-1.9172,-1.9417,-1.9332,0.0,0.0,0.0,0.0,0.0,0.0,0.0,0.0,0.0,0.0,0.0,0.0,0.0,0.0,0.0,0.0,0.0,0.0,0.0,0.0,0.0,-1.5391,-1.5791,-1.6595,-1.6937,-1.7455,-1.8245,-1.8731,-1.9237,-1.9625,-1.7695,-1.7175,-1.804,-1.855,-1.815,-1.7025,-1.7101,-1.6409,-1.5271,-1.4736,-1.5045,-1.5902,-1.5649,-1.553,-1.553,-1.553,-1.553,-1.553,0.0,0.0,-4.1052,-4.1376,0.0,0.0,0.0,0.0,0.0,-4.5349,0.0,0.0,0.0,0.0,0.0,0.0,0.0,0.0,0.0,0.0,-3.4348,-3.4613,-3.479,-3.5265,-3.6172,-3.6322,-3.6524,-3.6761,-3.8007,-3.9643,-4.17,-4.2262,-4.2778,-4.3239,-4.2747,-4.1925,-4.0749,-3.8024,-3.6806,-3.6596,-3.5591,-3.4534,-3.3368,-3.1429,-2.9783,0.0,0.0,0.0,0.0,0.0,0.0,0.0,-1.9497,-1.9724,-1.9906,-1.9579,-1.9047,-1.8485,-1.8105,-1.7538,0.0,-1.7445,-1.8116,-1.8824,-1.9185,-1.9319,-1.9305,-1.9065,0.0,0.0,0.0,0.0,0.0,0.0,0.0,0.0,0.0,0.0,0.0,0.0,0.0,0.0,0.0,0.0,0.0,0.0,0.0,0.0,-1.5404,-1.5391,-1.5394,-1.5411,-1.598,-1.6023,-1.5373,-1.727,-1.7313,0.0,-1.6089,-1.5904,-1.505,-1.5838,-1.6067,-1.581,-1.6184,-1.5719,-1.4696,-1.4576,-1.4505,-1.4543,-1.4474,-1.4447,-1.4447,-1.4447,-1.4447,-1.4447,0.0,0.0,0.0,0.0,0.0,0.0,0.0,0.0,0.0,0.0,0.0,0.0,0.0,0.0,0.0,0.0,-4.1258,0.0,0.0,0.0,-3.3861,-3.3592,-3.3537,-3.3762,-3.4283,-3.4283,-3.4393,-3.4681,-3.4926,-3.6599,-3.9694,-4.0812,-4.1414,-4.162,-4.1758,-4.0982,-3.9486,-3.7669,-3.6567,-3.5998,-3.5639,-3.4905,-3.3876,-3.2856,-3.1193,-2.9195,-2.695,0.0,0.0,0.0,0.0,0.0,0.0,0.0,-1.802,-1.7807,-1.7413,-1.7085,-1.7003,-1.6856,0.0,-1.7622,0.0,-1.8758,-1.8918,-1.8945,-1.8905,-1.8744,0.0,0.0,0.0,0.0,0.0,0.0,0.0,0.0,0.0,0.0,0.0,0.0,0.0,0.0,0.0,0.0,0.0,0.0,0.0,-1.5498,-1.5204,-1.5057,-1.4843,-1.4593,-1.5073,-1.499,-1.4322,-1.5661,-1.5828,-1.4852,-1.5134,-1.4922,-1.4309,-1.4763,-1.5057,-1.5209,-1.5311,-1.5016,-1.4509,-1.4362,-1.4229,-1.4082,-1.4082,-1.4082,-1.4082,-1.4082,-1.4082,-1.4082,0.0,0.0,0.0,0.0,0.0,0.0,0.0,0.0,0.0,0.0,0.0,0.0,0.0,0.0,-4.478,0.0,0.0,0.0,0.0,0.0,0.0,-3.293,-3.2515,-3.223,-3.2064,-3.2064,-3.2291,-3.2699,-3.2212,-3.3799,-3.7319,0.0,0.0,-4.0182,-4.0898,-4.0165,-3.8332,-3.7464,-3.6477,-3.5519,-3.5519,-3.5001,-3.4245,-3.4075,-3.2332,-2.9986,-2.9643,-2.6973,-2.3551,-2.3162,0.0,0.0,0.0,0.0,-1.5784,-1.5784,-1.5784,-1.5798,-1.5885,-1.6366,-1.7048,-1.7796,-1.8263,0.0,-1.849,-1.849,-1.8477,-1.8424,0.0,0.0,0.0,0.0,0.0,0.0,0.0,0.0,0.0,0.0,0.0,0.0,0.0,0.0,0.0,0.0,0.0,0.0,0.0,-1.5271,-1.5022,-1.4683,-1.4389,-1.4095,-1.4322,-1.4322,-1.4095,-1.4322,-1.4779,-1.5421,-1.4531,-1.4215,-1.4442,-1.4442,-1.4603,-1.4914,-1.4576,-1.4442,-1.4429,-1.4188,-1.4082,-1.4082,-1.4082,-1.4082,-1.4082,-1.4082,-1.4082,-1.4082,0.0,0.0,0.0,0.0,0.0,0.0,0.0,0.0,0.0,0.0,-4.3472,-4.4196,0.0,0.0,0.0,-4.2058,-4.056,-3.9154,-3.7876,0.0,0.0,-3.3357,-3.293,-3.2326,-3.1527,-3.1486,-3.1543,-3.163,-3.1863,-3.3052,0.0,0.0,0.0,-3.9006,0.0,0.0,-3.8272,-3.6507,-3.5669,-3.5519,-3.5519,-3.5424,-3.5198,-3.4312,-3.3227,-3.1956,-3.0138,-2.8028,-2.5734,-2.368,-2.1318,0.0,0.0,0.0,-1.5784,-1.5784,-1.5784,-1.5838,-1.6139,0.0,-1.7555,0.0,-1.8263,-1.849,0.0,0.0,-1.8424,0.0,0.0,0.0,0.0,0.0,0.0,0.0,0.0,0.0,0.0,0.0,0.0,0.0,0.0,0.0,0.0,0.0,0.0,0.0,-1.5565,-1.5271,-1.5022,-1.4683,-1.4389,-1.4095,-1.4122,-1.4122,-1.4082,-1.4122,-1.4206,-1.4334,-1.4166,-1.4108,-1.4148,-1.4148,-1.4309,-1.4563,-1.4269,-1.4148,-1.4135,-1.4095,-1.4082,-1.4082,-1.4082,-1.4082,-1.4082,-1.4082,-1.4082,-1.4082,0.0,0.0,0.0,0.0,0.0,0.0,0.0,0.0,0.0,0.0,0.0,-4.2988,0.0,0.0,0.0,-4.1271,-3.9826,-3.8286,-3.66,-3.5182,-3.4101,-3.3404,-3.2733,-3.1915,-3.0959,-3.0959,-3.0809,-3.0507,-3.07,-3.1652,0.0,-3.4604,-3.6119,0.0,0.0,0.0,0.0,-3.5915,-3.5519,-3.5519,-3.5519,-3.528,0.0,-3.4886,-3.4008,-3.2776,-3.2223,-3.0169,-2.7498,-2.5896,-2.2868,-1.9573,-1.8624,0.0,0.0,0.0,-1.5784,-1.5851,-1.6192,-1.6603,-1.6914,0.0,-1.7515,-1.7702,-1.7528,0.0,-1.7755,0.0,0.0,0.0,0.0,0.0,0.0,0.0,0.0,0.0,0.0,0.0,0.0,0.0,0.0,0.0,0.0,0.0,0.0,0.0,-1.5404,-1.5142,-1.5022,-1.4522,-1.4148,-1.3841,-1.3841,-1.3841,-1.3841,-1.3841,-1.3921,-1.4082,-1.4082,-1.4082,-1.4082,-1.4082,-1.4162,-1.4269,-1.4135,-1.4082,-1.4082,-1.4082,-1.4082,-1.4082,-1.4082,-1.4082,-1.4082,-1.4082,-1.4082,-1.4082,0.0,0.0,0.0,0.0,0.0,0.0,0.0,0.0,0.0,0.0,0.0,0.0,0.0,0.0,0.0,0.0,-3.918,-3.748,-3.5381,-3.4688,-3.4037,-3.322,-3.2513,-3.1625,-3.0407,-3.0407,-3.0206,-2.9804,-2.9804,-3.0608,-3.2215,-3.3034,-3.4427,0.0,-3.6476,0.0,0.0,0.0,0.0,0.0,0.0,-3.4951,0.0,0.0,-3.4106,-3.2943,-3.3547,-3.1596,-2.8658,-2.7862,-2.4486,-2.0439,-1.941,0.0,0.0,0.0,0.0,-1.5287,0.0,0.0,-1.5417,-1.598,-1.6353,-1.6509,0.0,0.0,-1.651,0.0,0.0,0.0,0.0,0.0,0.0,0.0,0.0,0.0,0.0,0.0,0.0,0.0,0.0,0.0,0.0,0.0,0.0,0.0,-1.5297,-1.5008,-1.5008,-1.4445,-1.3948,-1.3613,-1.368,-1.368,-1.36,-1.368,-1.3868,-1.4082,-1.4082,-1.4082,-1.4082,-1.4082,-1.4082,-1.4082,-1.4082,-1.4082,-1.4082,-1.4082,-1.4082,-1.4082,-1.4082,-1.4082,-1.4082,-1.4082,-1.4082,-1.4082,0.0,0.0,0.0,0.0,0.0,0.0,0.0,0.0,0.0,0.0,0.0,0.0,-4.1013,-4.1486,-4.1278,-3.9959,-3.8553,-3.6828,-3.4691,-3.5098,-3.4606,-3.272,-3.2577,0.0,-2.9868,-2.9829,-2.9829,-2.9804,-2.9804,0.0,-3.2215,-3.2256,-3.2945,-3.411,-3.552,-3.6059,-3.5927,0.0,0.0,0.0,-3.5073,-3.4533,0.0,0.0,0.0,0.0,0.0,0.0,-2.895,-2.8683,-2.597,0.0,0.0,-1.8331,-1.6374,0.0,0.0,0.0,0.0,-1.2369,0.0,-1.4124,-1.4672,0.0,0.0,0.0,0.0,0.0,0.0,0.0,0.0,0.0,0.0,0.0,0.0,0.0,0.0,0.0,0.0,0.0,0.0,0.0,0.0,0.0,0.0,0.0,-1.5297,-1.5008,-1.5008,-1.4445,-1.3948,-1.3613,-1.3921,-1.3935,-1.36,-1.3921,-1.4068,-1.4082,-1.4082,-1.4082,-1.4082,-1.4082,-1.4082,-1.4082,-1.4082,-1.4082,-1.4082,-1.4082,-1.4082,-1.4082,-1.4082,-1.4082,-1.4082,-1.4082,-1.4082,-1.4082,0.0,0.0,0.0,0.0,0.0,0.0,0.0,0.0,0.0,0.0,0.0,0.0,0.0,-4.0791,-4.0457,-3.9846,-3.811,-3.6492,-3.5228,-3.537,-3.4905,-3.3567,-3.2912,-3.201,-3.0733,-3.0101,-2.9804,0.0,0.0,-3.0432,-3.1687,-3.1687,-3.1888,-3.2374,-3.3881,-3.4323,-3.3957,-3.4229,0.0,0.0,-3.4639,-3.4264,-3.3814,0.0,0.0,0.0,0.0,0.0,0.0,0.0,0.0,0.0,0.0,-1.9335,-1.6169,-1.5563,-1.4562,0.0,0.0,0.0,0.0,-1.2555,-1.2959,-1.3207,-1.3007,-1.3093,-1.31,0.0,0.0,0.0,0.0,0.0,0.0,0.0,0.0,0.0,0.0,0.0,0.0,0.0,0.0,0.0,0.0,0.0,0.0,0.0,0.0,-1.5008,-1.5008,-1.4445,-1.3868,-1.3347,-1.3654,-1.3706,-1.36,-1.3935,-1.4082,-1.4082,-1.4082,-1.4082,-1.4082,-1.4082,-1.4082,-1.4082,-1.4082,-1.4082,-1.4082,-1.4082,-1.4082,-1.4082,-1.4082,-1.4082,-1.4082,-1.4082,-1.3961,-1.376,0.0,0.0,0.0,-4.4054,0.0,-4.1957,-4.226,-4.106,-4.0113,-4.0113,0.0,0.0,0.0,0.0,-3.9874,-3.9242,-3.7656,-3.6355,-3.5579,-3.5531,-3.4905,-3.3602,-3.2912,-3.201,-3.0771,0.0,0.0,0.0,0.0,0.0,0.0,-3.1135,-3.1235,-3.1427,-3.2294,-3.2619,0.0,0.0,0.0,-3.434,0.0,-3.4234,-3.3814,0.0,0.0,0.0,0.0,0.0,0.0,0.0,0.0,0.0,0.0,-2.0158,-1.6435,-1.5339,0.0,0.0,-1.302,0.0,0.0,0.0,-1.1599,-1.1538,-1.1296,0.0,-1.1477,0.0,0.0,0.0,0.0,0.0,0.0,0.0,0.0,0.0,0.0,0.0,0.0,0.0,0.0,0.0,0.0,0.0,0.0,0.0,0.0,0.0,-1.5008,-1.4445,-1.3868,-1.3333,-1.3347,-1.344,-1.36,-1.3748,-1.3895,-1.4082,-1.3988,-1.3988,-1.4082,-1.4082,-1.4082,-1.4082,-1.4082,-1.4082,-1.4082,-1.4082,-1.4082,-1.4082,-1.4082,-1.4082,-1.4082,-1.4082,-1.3895,-1.36,-4.134,-4.1674,-4.2011,-4.3086,-4.2045,-4.1314,-4.2213,-4.1094,-4.0146,-4.0146,0.0,0.0,0.0,0.0,0.0,-3.8176,-3.7242,-3.6397,-3.5667,-3.5516,-3.4639,-3.27,-3.2593,-3.1719,-2.9895,0.0,0.0,0.0,0.0,0.0,0.0,0.0,-3.0859,-3.1311,-3.0809,-3.1149,-3.2178,0.0,-3.3984,-3.4889,0.0,-3.4503,-3.4444,0.0,0.0,0.0,-3.4264,-3.4084,0.0,-3.255,0.0,0.0,0.0,-2.0722,-1.7427,-1.4991,0.0,0.0,0.0,0.0,0.0,0.0,0.0,0.0,-0.9944,0.0,-0.9558,0.0,0.0,0.0,0.0,0.0,0.0,0.0,0.0,0.0,0.0,0.0,0.0,0.0,0.0,0.0,0.0,0.0,0.0,0.0,-1.5297,-1.5008,-1.5008,-1.4389,-1.3935,-1.3613,-1.3092,-1.3065,-1.3586,-1.336,-1.3507,-1.4055,-1.3746,-1.376,-1.4082,-1.4082,-1.4082,-1.4082,-1.4082,-1.4082,-1.4082,-1.4082,-1.4082,-1.4082,-1.4082,-1.4082,-1.4082,-1.4082,-1.3895,-1.3586,-4.0577,-4.1281,-4.1841,-4.2302,-4.2081,-4.2137,-4.2989,-4.1847,-4.0899,0.0,0.0,0.0,0.0,0.0,-3.9933,-3.9538,-3.8278,-3.7155,-3.6381,-3.5121,-3.4177,-3.3636,-3.2307,-3.1352,-3.082,0.0,0.0,0.0,0.0,0.0,0.0,0.0,0.0,0.0,-3.008,-3.02,-3.0561,-3.2144,0.0,0.0,-3.4192,-3.4503,0.0,0.0,0.0,0.0,0.0,-3.3963,-3.4203,0.0,-3.1962,-2.8662,0.0,0.0,0.0,0.0,0.0,0.0,-1.3893,0.0,0.0,0.0,0.0,0.0,-0.8597,-0.8497,-0.8428,0.0,0.0,0.0,0.0,0.0,0.0,0.0,0.0,0.0,0.0,0.0,0.0,0.0,0.0,0.0,0.0,0.0,0.0,0.0,-1.5297,-1.5008,-1.5008,-1.4001,-1.3507,-1.36,-1.3092,-1.2971,-1.332,-1.3413,-1.3467,-1.3454,-1.3801,-1.3895,-1.3733,-1.3988,-1.4082,-1.4082,-1.4082,-1.4082,-1.4082,-1.4082,-1.3961,-1.3746,-1.4001,-1.3948,-1.3746,-1.4015,-1.3761,-1.3333,-3.9798,-4.0383,-4.0905,-4.1392,-4.1279,-4.1513,-4.2727,-4.1866,-4.1238,0.0,0.0,0.0,0.0,0.0,0.0,-4.0141,-3.8674,-3.7618,-3.7114,-3.5148,-3.3842,-3.3429,-3.1983,-3.1007,-3.062,0.0,0.0,0.0,0.0,0.0,0.0,0.0,0.0,0.0,-2.9804,-2.9654,0.0,0.0,0.0,0.0,-3.3839,0.0,0.0,-3.4472,-3.4322,0.0,0.0,0.0,-3.4861,-3.4593,-3.244,0.0,0.0,0.0,0.0,0.0,0.0,0.0,0.0,0.0,0.0,0.0,0.0,0.0,-0.857,-0.8124,-0.7875,0.0,0.0,0.0,0.0,0.0,0.0,0.0,0.0,0.0,0.0,0.0,0.0,0.0,0.0,0.0,0.0,-1.6019,-1.5965,-1.5798,-1.5404,-1.5044,-1.479,-1.3895,-1.3373,-1.3427,-1.3038,-1.2878,-1.3013,-1.3066,-1.312,-1.3213,-1.3561,-1.3694,-1.3613,-1.3948,-1.4082,-1.4082,-1.3961,-1.3908,-1.3895,-1.3774,-1.3694,-1.3626,-1.3841,-1.368,-1.344,-1.3654,-1.3507,-1.3213,0.0,-3.9373,-3.9666,-4.0554,-4.0161,-4.0317,-4.2013,-4.1566,-4.1333,0.0,-4.2334,0.0,0.0,0.0,0.0,0.0,-3.8876,-3.7908,-3.7822,-3.5505,-3.3676,-3.2629,-3.1719,-3.0771,-2.9818,-2.9804,0.0,0.0,0.0,0.0,0.0,0.0,0.0,0.0,-2.9704,-2.9377,0.0,0.0,0.0,-3.2439,-3.3385,-3.4384,0.0,0.0,-3.5392,-3.5519,-3.5519,-3.5519,-3.54,-3.4616,-3.2155,0.0,0.0,0.0,0.0,0.0,-2.0251,0.0,0.0,0.0,0.0,0.0,0.0,0.0,-0.9355,-0.8505,-0.7773,-0.776,0.0,0.0,0.0,0.0,0.0,0.0,0.0,0.0,0.0,0.0,0.0,0.0,0.0,0.0,-1.6299,-1.6321,-1.6152,-1.5845,-1.5524,-1.511,-1.4549,-1.3919,-1.3467,-1.3227,-1.2985,-1.2797,-1.273,-1.2543,-1.2639,-1.3106,-1.3213,-1.3333,-1.3573,-1.3935,-1.4068,-1.4028,-1.372,-1.3586,-1.3533,-1.332,-1.3307,-1.3507,-1.3547,-1.3373,-1.316,-1.32,-1.3213,-1.3213,-3.926,-3.9373,-3.9666,-4.0554,-4.0566,-4.0997,-4.2622,-4.1755,-4.1421,-4.2759,-4.2551,0.0,0.0,0.0,0.0,0.0,-3.99,-3.8442,-3.7851,-3.6013,-3.4268,-3.2664,-3.1719,-3.0771,-2.9818,-2.9804,-2.9804,-2.9804,0.0,0.0,0.0,0.0,0.0,0.0,-2.9063,-2.8775,0.0,0.0,0.0,-3.0904,-3.184,0.0,-3.4279,-3.4279,-3.4806,-3.5519,-3.5519,-3.5519,-3.5302,-3.3875,-3.1825,-2.9481,0.0,0.0,0.0,0.0,0.0,0.0,0.0,0.0,0.0,0.0,0.0,0.0,-0.9777,-0.9058,-0.8715,0.0,0.0,0.0,0.0,0.0,0.0,0.0,0.0,0.0,0.0,0.0,0.0,0.0,0.0,0.0,-1.6228,-1.6321,-1.6152,-1.5845,-1.5337,-1.4897,-1.4536,-1.3919,-1.3467,-1.3227,-1.316,-1.2879,-1.2398,-1.2812,-1.2852,-1.2492,-1.3174,-1.3427,-1.3307,-1.3841,-1.3961,-1.3693,-1.3626,-1.3467,-1.3293,-1.3227,-1.3093,-1.2985,-1.32,-1.3106,-1.2904,-1.312,-1.3213,-1.3173,-3.9194,-3.9373,-3.9553,-3.999,-4.006,-4.0466,-4.1669,-4.1234,-4.1213,-4.2392,-4.269,0.0,0.0,0.0,0.0,0.0,0.0,0.0,0.0,-3.6168,-3.4633,-3.3331,-3.1947,-3.097,-3.0533,-3.0024,-2.9804,-2.9804,0.0,0.0,0.0,0.0,0.0,0.0,0.0,0.0,0.0,0.0,-2.8286,-2.9342,-3.061,0.0,-3.3325,-3.3325,-3.3602,-3.4138,-3.4576,-3.4863,-3.4827,-3.3667,-3.2172,0.0,0.0,-2.7021,-2.5585,0.0,-2.3526,-2.2616,0.0,0.0,0.0,-1.8347,0.0,0.0,0.0,-1.1595,-1.024,-0.9078,0.0,0.0,0.0,0.0,0.0,0.0,0.0,0.0,0.0,0.0,0.0,0.0,0.0,0.0,-1.537,-1.6077,-1.6313,-1.5858,-1.5297,-1.4941,-1.475,-1.4188,-1.3734,-1.34,-1.328,-1.2986,-1.2569,-1.2679,-1.2599,-1.2305,-1.2906,-1.32,-1.3227,-1.3667,-1.3746,-1.36,-1.3453,-1.3253,-1.3012,-1.2826,-1.2665,-1.2596,-1.2891,-1.2837,-1.2583,-1.2705,-1.2946,-1.3173,-3.8811,-3.9194,-3.9313,-3.908,-3.926,-3.9631,-4.0343,-4.0447,-4.0758,-4.1626,0.0,0.0,0.0,0.0,0.0,0.0,0.0,0.0,0.0,0.0,-3.5188,-3.4047,-3.2379,-3.1389,-3.1204,-3.0292,-2.9804,-2.9804,0.0,0.0,0.0,0.0,0.0,0.0,0.0,0.0,0.0,0.0,0.0,-2.8371,0.0,-3.0992,-3.2307,-3.2234,-3.2286,-3.2506,-3.3186,-3.3594,-3.3774,-3.3201,-3.2205,-3.0993,-2.9548,-2.7997,0.0,0.0,0.0,0.0,0.0,0.0,0.0,0.0,0.0,-1.7817,0.0,0.0,0.0,0.0,0.0,0.0,0.0,0.0,0.0,0.0,0.0,0.0,0.0,0.0,0.0,0.0,0.0,0.0,0.0,-1.5732,-1.6339,-1.5824,-1.5297,-1.5008,-1.5008,-1.4445,-1.3948,-1.3613,-1.3427,-1.32,-1.2878,-1.2599,-1.2452,-1.2385,-1.273,-1.3012,-1.3227,-1.3533,-1.3626,-1.3507,-1.3267,-1.2999,-1.2677,-1.2398,-1.2305,-1.2318,-1.261,-1.2583,-1.2385,-1.2385,-1.2732,-1.3173,-3.7614,-3.8566,-3.905,-3.7853,-3.8631,-3.9409,-3.9553,-3.9553,0.0,0.0,0.0,0.0,0.0,0.0,0.0,0.0,0.0,0.0,-3.8833,0.0,0.0,-3.4114,-3.2982,-3.2055,-3.1204,-3.0292,-2.9804,-2.9804,-2.9804,0.0,0.0,0.0,0.0,0.0,-2.767,0.0,0.0,0.0,-2.7871,0.0,-2.9013,-2.9991,0.0,-3.0821,-3.118,-3.1841,-3.1455,-3.1428,-3.1512,0.0,-3.0627,-2.9931,0.0,-2.8366,-2.7301,0.0,0.0,0.0,0.0,0.0,0.0,0.0,-2.1991,0.0,0.0,0.0,-1.7041,-1.4687,0.0,0.0,0.0,0.0,0.0,0.0,0.0,0.0,0.0,0.0,0.0,0.0,0.0,0.0,0.0,-1.5341,-1.5851,-1.5832,-1.5297,-1.5008,-1.5008,-1.4445,-1.3948,-1.3613,-1.3868,-1.3721,-1.316,-1.312,-1.2973,-1.273,-1.3013,-1.3173,-1.3227,-1.3788,-1.3748,-1.3253,-1.3227,-1.2879,-1.2345,-1.2318,-1.2305,-1.2305,-1.2345,-1.2529,-1.273,-1.273,-1.2958,-1.3173,-3.7823,-3.8422,-3.8512,-3.7584,-3.8182,-3.8811,-3.8811,-3.917,0.0,0.0,0.0,0.0,0.0,0.0,0.0,0.0,0.0,-3.9501,0.0,0.0,0.0,-3.5567,-3.4153,-3.2947,-3.2019,-3.1082,-3.0343,-2.9804,-2.9804,0.0,0.0,0.0,0.0,0.0,-2.7519,0.0,-2.762,0.0,-2.7921,0.0,0.0,0.0,0.0,-3.015,-3.0446,-3.0921,-3.0335,-3.0311,-3.0463,0.0,-2.9962,0.0,0.0,0.0,0.0,0.0,0.0,0.0,0.0,0.0,0.0,0.0,0.0,0.0,-2.3986,0.0,-2.1643,0.0,0.0,0.0,0.0,0.0,0.0,0.0,-0.9412,0.0,0.0,0.0,0.0,0.0,0.0,0.0,0.0,0.0,0.0,0.0,-1.5297,-1.5008,-1.5008,-1.4445,-1.4028,-1.3908,-1.3854,-1.3666,-1.3427,-1.3293,-1.3146,-1.3013,-1.3146,-1.3293,-1.3427,-1.3547,-1.344,-1.32,-1.3026,-1.2692,-1.2305,-1.2305,-1.2305,-1.2305,-1.2305,-1.2478,-1.2757,-1.2596,-1.2799,-1.3146,-3.7734,0.0,0.0,-3.7045,-3.7584,-3.8182,-3.8362,-3.8661,0.0,0.0,0.0,0.0,-4.0274,-4.0591,0.0,0.0,-4.0107,-3.9544,0.0,0.0,-3.7304,0.0,0.0,0.0,-3.2629,-3.1683,-3.0733,-2.9804,-2.9804,0.0,0.0,0.0,0.0,0.0,0.0,-2.7444,-2.7745,0.0,0.0,-2.9126,-2.8725,-2.8976,-2.9553,-2.9377,-2.94,-2.9464,-2.89,-2.8985,-2.9367,-2.93,-2.9186,0.0,-2.8082,0.0,0.0,0.0,0.0,0.0,-2.8247,0.0,0.0,0.0,0.0,0.0,0.0,0.0,0.0,0.0,0.0,0.0,0.0,0.0,0.0,0.0,0.0,0.0,0.0,0.0,0.0,0.0,0.0,0.0,0.0,0.0,0.0,-1.5712,-1.5244,-1.4968,-1.4888,-1.4362,-1.4082,-1.4082,-1.3881,-1.372,-1.372,-1.344,-1.3293,-1.3213,-1.3293,-1.336,-1.348,-1.3347,-1.328,-1.32,-1.2918,-1.261,-1.2305,-1.2305,-1.2305,-1.2305,-1.2305,-1.2478,-1.277,-1.2599,-1.2879,-1.3267,-3.6656,-3.7015,0.0,0.0,-3.6596,-3.7644,-3.8302,0.0,0.0,0.0,0.0,0.0,0.0,0.0,0.0,0.0,0.0,-4.0103,-3.8743,0.0,-3.6997,0.0,0.0,-3.3567,0.0,-3.1683,-3.0733,-2.9804,-2.9804,0.0,0.0,0.0,0.0,0.0,0.0,-2.7871,-2.8838,-2.8838,-2.9227,-2.9754,-2.9754,-2.9428,-2.8863,0.0,-2.7857,-2.7339,-2.6785,0.0,0.0,-2.7452,-2.791,0.0,0.0,0.0,0.0,0.0,0.0,0.0,0.0,0.0,0.0,-2.9134,0.0,0.0,0.0,0.0,-2.9443,0.0,0.0,0.0,0.0,0.0,0.0,0.0,0.0,0.0,0.0,0.0,0.0,0.0,0.0,0.0,0.0,0.0,0.0,-1.5431,-1.5182,-1.4843,-1.4549,-1.4255,-1.4082,-1.4082,-1.4082,-1.4068,-1.4068,-1.3733,-1.3453,-1.3213,-1.3453,-1.3453,-1.3227,-1.3467,-1.344,-1.32,-1.2918,-1.261,-1.2305,-1.2305,-1.2305,-1.2305,-1.2305,-1.2478,-1.2824,-1.308,-1.3333,-1.3586,0.0,0.0,0.0,0.0,0.0,0.0,0.0,-3.7554,0.0,0.0,-3.9499,0.0,0.0,-4.1227,-4.0964,0.0,0.0,-4.0053,-3.8705,-3.7993,0.0,0.0,0.0,-3.4211,0.0,0.0,0.0,0.0,0.0,0.0,0.0,0.0,0.0,0.0,0.0,-2.7896,0.0,0.0,0.0,0.0,0.0,-2.8875,-2.8323,0.0,0.0,-2.7253,-2.67,-2.6679,0.0,-2.6804,-2.7211,-2.764,-2.7173,-2.7394,-2.7795,-2.762,-2.7695,0.0,0.0,0.0,-2.8488,-2.8937,0.0,0.0,0.0,0.0,0.0,0.0,0.0,0.0,0.0,0.0,0.0,0.0,0.0,0.0,0.0,0.0,0.0,0.0,0.0,0.0,0.0,0.0,0.0,-1.5404,-1.495,-1.4629,-1.4522,-1.4242,-1.4082,-1.4082,-1.4082,-1.4082,-1.4082,-1.3988,-1.3788,-1.3453,-1.356,-1.3453,-1.3213,-1.3093,-1.3038,-1.2918,-1.2585,-1.2543,-1.2636,-1.2636,-1.2757,-1.2906,-1.2906,-1.308,-1.3307,-1.3013,-1.3093,-1.3347,-3.6132,0.0,0.0,0.0,0.0,0.0,0.0,0.0,0.0,0.0,-3.8788,0.0,-4.1528,0.0,-4.0965,0.0,-4.0607,-3.9864,-3.8274,-3.8002,0.0,-3.6869,-3.6202,0.0,0.0,0.0,0.0,0.0,0.0,-2.9804,0.0,0.0,0.0,0.0,0.0,-2.8047,-2.8373,0.0,-2.9001,0.0,0.0,-2.8423,0.0,0.0,-2.7153,-2.7253,0.0,-2.6499,-2.6499,-2.6499,-2.6725,-2.6977,-2.66,-2.6977,-2.7444,-2.7128,-2.7278,-2.757,-2.777,-2.7946,0.0,-2.8666,-2.9851,0.0,-3.1495,0.0,0.0,0.0,0.0,0.0,0.0,0.0,0.0,0.0,0.0,0.0,0.0,-1.9145,0.0,0.0,0.0,0.0,0.0,0.0,-1.5471,-1.5257,-1.4897,-1.4589,0.0,0.0,-1.4082,-1.4082,-1.4082,-1.4082,-1.4082,-1.3988,-1.3786,-1.36,-1.3493,-1.3347,-1.32,-1.2931,-1.2784,-1.277,-1.2438,-1.2478,-1.2784,-1.2784,-1.2971,-1.3213,-1.3213,-1.332,-1.3413,-1.3173,-1.3267,-1.3547,-3.552,-3.5008,0.0,0.0,-3.6406,0.0,0.0,0.0,-3.6125,0.0,-3.6975,-3.7815,-4.0256,-4.045,-4.0651,-4.1227,-4.0756,-3.9559,-3.7644,-3.8063,0.0,0.0,-3.6178,-3.5283,-3.2727,0.0,0.0,0.0,0.0,0.0,0.0,0.0,0.0,0.0,-2.8662,0.0,-2.7444,-2.9051,-2.9428,-2.8838,-2.8323,-2.8097,-2.7971,-2.6927,-2.6826,-2.7253,-2.67,-2.6499,-2.6499,-2.6474,-2.6474,-2.6474,-2.6449,-2.6449,-2.6449,-2.6474,-2.6474,-2.6575,-2.7128,-2.7278,-2.743,-2.8247,0.0,0.0,0.0,0.0,-3.2141,0.0,0.0,0.0,0.0,0.0,0.0,0.0,0.0,0.0,0.0,0.0,0.0,0.0,0.0,0.0,0.0,-1.5067,-1.5565,-1.5048,-1.4995,-1.474,0.0,0.0,-1.4095,-1.4082,-1.4082,-1.4082,-1.4082,-1.376,-1.3613,-1.3573,-1.3307,-1.32,-1.3173,-1.2918,-1.2797,-1.2797,-1.2465,-1.2518,-1.2824,-1.2824,-1.3012,-1.3253,-1.3253,-1.3253,-1.328,-1.3507,-1.3786,-1.4082,-3.6526,-3.5713,-3.5264,0.0,-3.5454,-3.5321,0.0,0.0,0.0,0.0,-3.7423,-3.8086,-3.9299,-4.0106,-4.0284,-3.9537,-4.0046,0.0,0.0,0.0,0.0,-3.6956,-3.6656,-3.5617,-3.3671,-3.2947,0.0,-3.0846,0.0,0.0,-2.9804,0.0,0.0,0.0,0.0,0.0,-2.7946,-2.88,-2.9038,-2.8838,-2.8323,-2.8097,0.0,0.0,-2.6826,-2.7253,-2.67,-2.6499,-2.6424,-2.5996,-2.6147,-2.6424,-2.5996,-2.5812,-2.5946,-2.6373,-2.6197,-2.5971,-2.6549,-2.67,-2.687,-2.7459,-2.8127,-2.8822,0.0,0.0,0.0,0.0,0.0,0.0,0.0,0.0,0.0,0.0,0.0,0.0,0.0,0.0,0.0,0.0,0.0,0.0,-1.5339,-1.5246,-1.5169,-1.5022,-1.4763,-1.4469,0.0,0.0,0.0,-1.4095,-1.4082,-1.4082,-1.4082,-1.4015,-1.3748,-1.328,-1.324,-1.3093,-1.2904,-1.2824,-1.2904,-1.308,-1.3013,-1.3146,-1.3373,-1.3373,-1.3587,-1.3854,-1.3854,-1.3854,-1.3841,-1.3653,-1.3786,-1.4082,-3.5683,-3.5057,0.0,-3.4365,0.0,0.0,-3.4896,-3.4426,0.0,-3.5603,-3.5963,0.0,-3.7392,-3.8213,-3.8524,-3.8128,-3.839,0.0,-3.7655,0.0,0.0,-3.6781,-3.6871,-3.6132,-3.4479,-3.3227,0.0,-3.1204,0.0,0.0,-2.9804,0.0,0.0,0.0,0.0,-2.885,0.0,-2.8423,-2.8662,-2.8813,-2.8072,0.0,0.0,-2.6826,-2.6675,-2.6927,-2.66,-2.6499,-2.6449,-2.6122,-2.6223,-2.6399,-2.5787,-2.5586,-2.5611,-2.5711,-2.5511,-2.5335,-2.5661,-2.5737,-2.5896,-2.6414,-2.696,-2.7548,-2.8368,-2.9289,-3.0111,0.0,0.0,0.0,0.0,0.0,0.0,0.0,0.0,0.0,0.0,0.0,0.0,0.0,-1.8498,0.0,-1.5934,-1.507,-1.4736,-1.5169,-1.4763,0.0,0.0,0.0,0.0,-1.4282,-1.4402,-1.4402,-1.4282,-1.4148,-1.3921,-1.3587,-1.3333,-1.3186,-1.3133,-1.3052,-1.3053,-1.3213,-1.3213,-1.3333,-1.36,-1.36,-1.3814,-1.4082,-1.4082,-1.4082,-1.4068,-1.3895,-1.3948,-1.4082,-3.41,-3.3804,0.0,0.0,0.0,0.0,0.0,-3.4575,0.0,-3.3903,0.0,-3.4365,-3.5273,-3.5804,-3.6316,-3.6823,0.0,-3.5991,-3.5455,-3.6721,-3.6985,-3.5861,-3.6652,-3.6409,-3.5027,-3.3424,0.0,0.0,0.0,-2.9804,-2.9804,0.0,0.0,0.0,0.0,0.0,0.0,-2.8147,-2.8373,-2.8687,-2.7695,-2.7293,-2.7218,-2.67,-2.6499,-2.6499,-2.6499,-2.6499,-2.6474,-2.6399,-2.6424,-2.6399,-2.5787,-2.5586,-2.5511,-2.5059,-2.485,-2.48,-2.48,-2.48,-2.4901,-2.5385,-2.5536,-2.5862,-2.6841,-2.7765,-2.8407,-2.8415,-2.9558,-2.998,0.0,0.0,0.0,0.0,0.0,0.0,0.0,0.0,0.0,0.0,0.0,0.0,0.0,-1.4945,-1.4576,-1.5337,-1.4923,0.0,0.0,0.0,0.0,-1.4536,-1.4736,-1.4763,-1.4576,0.0,-1.4082,-1.4082,-1.3534,-1.336,-1.36,-1.3347,-1.3293,-1.332,-1.332,-1.3467,-1.3666,-1.3666,-1.3854,-1.4082,-1.4082,-1.4082,-1.4082,-1.4082,-1.4082,-1.4082,-3.3926,0.0,0.0,0.0,0.0,-3.423,-3.4743,-3.4667,-3.4395,-3.3966,-3.4634,-3.4945,-3.4255,-3.5061,-3.5497,-3.5165,-3.5816,0.0,0.0,0.0,0.0,-3.5447,-3.5396,-3.5282,-3.4922,-3.3388,-3.2522,0.0,-3.0646,-2.9804,-2.9804,0.0,0.0,0.0,0.0,0.0,-2.8712,-2.8298,0.0,-2.8197,-2.7544,-2.7293,-2.7218,-2.67,-2.6499,-2.6499,-2.6499,-2.6499,-2.6424,-2.5946,-2.6097,-2.6399,-2.5787,-2.5586,-2.5586,-2.5485,-2.5159,-2.48,-2.48,-2.48,-2.48,-2.4933,-2.5285,-2.5636,-2.5837,-2.6409,-2.708,-2.7728,-2.8047,-2.8173,-2.7762,0.0,0.0,0.0,0.0,0.0,0.0,0.0,0.0,0.0,0.0,0.0,0.0,0.0,0.0,0.0,0.0,0.0,0.0,0.0,0.0,0.0,-1.4335,0.0,0.0,0.0,-1.4082,-1.4082,-1.3693,-1.3547,-1.36,-1.3547,-1.3653,-1.3935,-1.3935,-1.3961,-1.4015,-1.4015,-1.4041,-1.4082,-1.4082,-1.4082,-1.4082,-1.4082,-1.4082,-1.4082,0.0,0.0,0.0,0.0,0.0,0.0,0.0,-3.4931,-3.4806,-3.3997,-3.3847,-3.3577,-3.3068,-3.3785,-3.4178,-3.3894,-3.4304,-3.4477,-3.4161,-3.4393,-3.4414,-3.4143,-3.4224,0.0,-3.422,-3.2672,-3.1865,-3.1865,-3.0495,-2.9804,0.0,0.0,0.0,0.0,0.0,-2.8464,0.0,0.0,0.0,-2.6846,-2.6333,-2.642,-2.6876,-2.66,-2.6499,-2.6499,-2.6499,-2.6499,-2.6449,-2.6172,-2.6273,-2.6399,-2.5787,-2.5586,-2.5536,-2.5285,-2.4808,-2.4406,-2.4406,-2.4148,-2.3998,-2.433,-2.4808,-2.5259,-2.5536,-2.6072,-2.6611,-2.6994,-2.7061,-2.7061,-2.7061,-2.6748,0.0,0.0,0.0,0.0,0.0,0.0,0.0,0.0,0.0,0.0,0.0,0.0,0.0,0.0,0.0,0.0,0.0,0.0,0.0,0.0,0.0,0.0,0.0,0.0,0.0,-1.4082,-1.3948,-1.3868,-1.3868,-1.3868,-1.3948,-1.4082,-1.4082,-1.4082,-1.4082,-1.4082,-1.4082,-1.4082,-1.4082,-1.4082,-1.4082,-1.4082,-1.4082,-1.4082,0.0,-3.4474,0.0,0.0,-3.4781,0.0,-3.4751,-3.5056,-3.4981,-3.4022,-3.3119,-3.2516,-3.2416,-3.2792,-3.3111,-3.3111,-3.2968,-3.2692,-3.224,-3.2761,-3.3,-3.2686,-3.2944,-3.3147,-3.3248,-3.1904,-3.1204,0.0,-3.0254,-2.9804,0.0,0.0,0.0,0.0,0.0,0.0,0.0,0.0,-2.4731,-2.5389,-2.4883,-2.5134,-2.5861,-2.5861,-2.5861,-2.5861,-2.5861,-2.5861,-2.5861,-2.5861,-2.6164,-2.6424,-2.5912,-2.5787,-2.5661,-2.5134,-2.4682,-2.428,-2.4054,-2.3653,-2.3371,-2.3728,-2.423,-2.4757,-2.5159,-2.582,-2.6323,-2.6323,-2.6399,-2.6524,-2.665,-2.6575,0.0,0.0,0.0,0.0,0.0,0.0,0.0,0.0,0.0,0.0,0.0,0.0,0.0,0.0,0.0,0.0,0.0,0.0,0.0,0.0,0.0,-1.4883,-1.471,0.0,-1.4402,-1.4175,-1.4122,-1.4082,-1.4082,-1.4082,-1.4082,-1.4082,-1.4082,-1.4082,-1.4082,-1.4082,-1.4082,-1.4082,-1.4082,-1.4082,-1.4082,-1.4082,-1.4082,-1.4082,0.0,0.0,0.0,0.0,0.0,0.0,-3.4756,-3.4731,-3.4575,-3.3972,-3.3796,-3.3545,-3.3043,-3.3086,-3.3111,-3.3111,-3.2591,-3.2265,-3.2215,-3.1367,-3.1095,-3.1524,-3.1472,-3.1633,-3.2125,-3.1558,-3.1204,0.0,-3.0254,-2.9804,0.0,0.0,0.0,0.0,0.0,0.0,0.0,-2.4565,-2.434,-2.4296,-2.3838,-2.3708,-2.3781,-2.3781,-2.3781,-2.3781,-2.3781,-2.3781,-2.3781,-2.3781,-2.4992,-2.6474,-2.6424,-2.6424,-2.6298,-2.5686,-2.5485,-2.5234,-2.4255,-2.3954,-2.3803,-2.3296,-2.3622,-2.4079,-2.413,-2.4933,-2.5661,-2.5661,-2.6122,-2.665,-2.7153,-2.6826,-2.6826,0.0,0.0,0.0,0.0,0.0,0.0,0.0,0.0,0.0,0.0,-1.7744,0.0,0.0,0.0,0.0,0.0,0.0,0.0,-1.4968,0.0,-1.5115,-1.5311,-1.479,-1.4509,-1.4482,-1.4215,-1.4082,-1.4082,-1.4082,-1.4082,-1.4082,-1.4082,-1.4082,-1.4082,-1.4082,-1.4082,-1.4082,-1.4082,-1.4082,-1.4082,-1.4082,-1.4082,-1.4082,0.0,0.0,0.0,0.0,0.0,0.0,0.0,-3.4223,-3.4022,-3.347,-3.3395,-3.3319,-3.3093,-3.2767,-3.2566,-3.2566,-3.2039,-3.1587,-3.126,-3.0859,-3.0557,-3.0432,-3.0368,-3.0445,-3.0676,-3.0471,-3.0343,0.0,0.0,0.0,0.0,0.0,0.0,0.0,0.0,-2.4746,-2.4427,-2.3027,-2.279,-2.3268,-2.2794,-2.2951,-2.3526,-2.3526,-2.3526,-2.3526,-2.3526,-2.3526,-2.3526,-2.3526,-2.4036,-2.4684,-2.4684,-2.5099,-2.5533,-2.5314,-2.5398,-2.5435,-2.4682,-2.4255,-2.3729,-2.2641,-2.2785,-2.3103,-2.2565,-2.3011,-2.3563,-2.3563,-2.441,-2.5517,-2.6596,-2.665,-2.665,0.0,0.0,0.0,0.0,0.0,0.0,0.0,0.0,0.0,0.0,0.0,0.0,0.0,0.0,0.0,0.0,0.0,0.0,-1.5008,0.0,-1.475,-1.487,-1.4643,-1.4429,-1.4255,-1.4135,-1.4082,-1.4082,-1.4082,-1.4082,-1.4082,-1.4082,-1.4082,-1.4082,-1.4082,-1.4082,-1.4082,-1.4082,-1.4082,-1.4082,-1.4082,-1.3646,-1.3027,-3.5282,0.0,-3.4248,0.0,-3.4399,-3.4098,-3.3922,-3.3897,-3.3696,-3.3144,-3.3111,-3.3111,-3.3111,-3.2566,-3.2215,-3.2215,-3.1562,-3.1009,-3.0633,-3.0457,-3.0206,-2.9804,-2.9804,0.0,-2.9804,-2.9482,-2.9326,-2.9326,-2.8187,0.0,0.0,0.0,0.0,0.0,-2.4033,-2.3639,-2.3433,-2.1848,-2.161,-2.2201,-2.1788,-2.2,-2.2638,-2.2638,-2.2638,-2.2638,-2.2638,-2.2638,-2.2638,-2.2638,-2.2638,-2.275,-2.3342,-2.4,-2.4564,-2.4564,-2.4766,-2.4944,-2.469,-2.4213,-2.3519,-2.2392,-2.2313,-2.2232,-2.1368,-2.1587,-2.2049,-2.2364,-2.3202,-2.4246,-2.539,-2.5616,-2.5665,-2.5811,0.0,0.0,0.0,0.0,0.0,0.0,-2.0781,-1.9371,-1.8156,0.0,0.0,0.0,0.0,0.0,0.0,0.0,0.0,0.0,0.0,0.0,0.0,-1.4603,-1.4416,-1.4215,-1.4122,-1.4082,-1.4095,-1.4175,-1.4162,-1.4095,-1.4175,-1.4162,-1.4082,-1.4082,-1.4082,-1.4082,-1.4082,-1.387,-1.3561,-1.3561,-1.3027,-1.2279,-3.4781,-3.468,-3.468,-3.468,-3.468,-3.4525,-3.3972,-3.3897,-3.3696,-3.3144,-3.3111,-3.3111,-3.3111,-3.2566,-3.2215,-3.2215,-3.1235,-3.0633,-3.0608,-3.0105,-2.9804,0.0,0.0,-2.9804,-2.9804,-2.8688,-2.8124,-2.8124,0.0,0.0,-2.6483,0.0,-2.4007,-2.2542,-2.2519,-2.2285,-2.1897,-2.1426,-2.119,-2.1191,-2.0781,-2.0644,-2.0644,-2.0644,-2.0644,-2.0644,-2.0644,-2.0644,-2.0644,-2.0644,-2.0644,-2.0972,-2.2898,-2.3526,-2.3526,-2.3526,-2.3526,-2.3632,-2.4073,-2.3759,-2.3214,-2.2781,-2.2313,-2.169,-2.0814,-2.1004,-2.1688,-2.269,-2.2915,-2.305,-2.3472,-2.3562,-2.3719,-2.4228,0.0,0.0,0.0,0.0,0.0,0.0,-2.1508,-2.0664,-1.9414,0.0,0.0,0.0,0.0,0.0,0.0,0.0,0.0,-1.5391,-1.5391,0.0,-1.5391,-1.4803,-1.4522,-1.4466,-1.4229,-1.4082,-1.4095,-1.4389,-1.4362,-1.4095,-1.4389,-1.4349,-1.4082,-1.4082,-1.4082,-1.4082,-1.4082,-1.3379,-1.2322,-1.2322,-1.2322,-1.2279,-3.4198,-3.3847,-3.3596,-3.3596,-3.3596,-3.3545,-3.337,-3.3345,-3.3144,-3.2566,-3.2491,-3.234,-3.1964,-3.1763,-3.1512,0.0,-3.0457,-3.0055,0.0,-2.988,-2.9804,-2.9804,-2.9804,-2.9804,-2.9804,-2.8688,-2.8084,-2.8084,0.0,0.0,0.0,-2.366,-2.3236,-2.2519,-2.2769,-2.2828,-2.2652,-2.1973,-2.168,-2.1621,-2.0899,-2.0605,-2.0605,-2.0605,-2.0605,-2.0605,-2.0605,-2.0605,-2.0605,-2.0605,-2.0605,-2.0722,-2.1336,-2.1962,-2.2467,-2.2467,-2.2951,-2.3383,-2.2867,-2.2537,-2.2083,-2.072,-2.0249,-1.9879,-1.9044,-1.9158,-1.9858,-2.1203,-2.1675,-2.2223,-2.329,-2.3526,-2.3645,-2.4138,-2.4093,0.0,0.0,0.0,0.0,0.0,-2.0843,-2.0059,0.0,-1.8547,0.0,0.0,0.0,0.0,0.0,0.0,0.0,0.0,-1.5204,0.0,-1.5142,-1.471,-1.4416,-1.4229,-1.4135,-1.4188,-1.4389,-1.4482,-1.4469,-1.4402,-1.4696,-1.4549,-1.4095,-1.4295,-1.4269,-1.4082,-1.4082,-1.387,-1.3519,-1.3519,-1.3027,-1.2279,-3.3621,-3.3319,-3.3111,-3.3111,-3.3111,-3.3111,-3.3111,-3.2893,-3.2489,-3.1692,-3.1427,-3.1082,-3.054,-3.0097,0.0,-3.0553,-2.9727,-2.9145,-2.9145,-2.8791,-2.8554,-2.8554,-2.8554,-2.8554,-2.8554,-2.7441,0.0,-2.6849,-2.5041,-2.366,-2.2711,-2.2964,-2.2964,-2.2754,-2.2984,-2.3003,-2.2808,-2.2168,-2.1894,-2.1816,-2.0957,-2.0703,-2.082,-2.082,-2.0742,-2.0625,-2.0762,-2.0742,-2.0605,-2.0605,-2.0605,-2.0605,-2.0605,-2.1011,-2.1489,-2.1489,-2.1924,-2.236,-2.2085,-2.1721,-2.1203,-2.013,-1.9595,-1.9119,-1.8409,-1.8574,-1.9183,-2.0251,-2.0667,-2.118,-2.2216,-2.2525,-2.2738,-2.3037,-2.3211,-2.3253,-2.3083,0.0,0.0,0.0,0.0,0.0,0.0,-1.8499,-1.7543,0.0,0.0,0.0,0.0,0.0,0.0,-1.5565,-1.5177,0.0,-1.5169,-1.4616,-1.4322,-1.4255,-1.4255,-1.4402,-1.4696,-1.4803,-1.479,-1.4696,-1.4928,-1.4696,-1.4255,-1.4322,-1.4255,-1.4082,-1.4082,-1.3815,-1.3379,-1.2954,-1.2601,-1.2237,-3.3212,-3.3111,-3.3111,0.0,-3.3111,0.0,-3.3111,-3.2591,-3.1811,-3.0673,-3.0132,-2.9541,-2.8827,-2.7911,-2.812,-3.0134,0.0,0.0,0.0,-2.7035,-2.6524,-2.6524,-2.6524,-2.6524,-2.6524,-2.5378,-2.4745,-2.466,-2.3627,-2.3101,-2.3101,-2.3101,-2.3101,-2.3101,-2.3101,-2.2867,-2.248,-2.207,-2.1894,-2.1816,-2.0997,-2.0879,-2.1229,-2.121,-2.0996,-2.0742,-2.1055,-2.0937,-2.0644,-2.0625,-2.0605,-2.0605,-2.0605,-2.0605,-2.0605,-2.0605,-2.0605,-2.0779,-2.1638,-2.1219,-2.0573,-2.0659,-2.0009,-1.9184,-1.8749,-1.9023,-1.9434,-1.9824,-1.9941,-2.0078,-2.0527,-2.0937,-2.121,-2.1229,-2.1641,-2.1777,-2.1307,0.0,0.0,0.0,0.0,0.0,0.0,-1.9341,-1.7969,0.0,0.0,0.0,0.0,0.0,-1.5771,-1.5758,-1.5271,-1.5169,-1.5391,-1.4563,-1.4282,-1.4549,-1.4549,-1.471,-1.5048,-1.5271,-1.5244,-1.5035,-1.5035,-1.4816,-1.4496,-1.4229,-1.4108,-1.4082,-1.4082,-1.3421,-1.2291,-1.1209,-1.1509,-1.2291,0.0,0.0,-3.3111,-3.3111,-3.3111,-3.3111,-3.3111,-3.2591,-3.1662,-3.0169,-3.0228,-2.9569,-2.7328,-2.7586,-2.7789,-2.7487,-2.7126,-2.6894,-2.6894,-2.6648,-2.6524,-2.6524,-2.6524,-2.6524,-2.6524,-2.5378,-2.4382,-2.3517,-2.3212,-2.3101,-2.3101,-2.3101,-2.3101,-2.3101,-2.3101,-2.2867,-2.248,-2.207,-2.1894,-2.1836,-2.1289,-2.1348,-2.1699,-2.1327,-2.1367,-2.1504,-2.0977,-2.0879,-2.1016,-2.0684,-2.0605,-2.0605,-2.0605,-2.0605,-2.0605,-2.0605,-2.0605,-2.0566,-2.044,-2.024,-2.0001,-1.972,-1.9481,-1.929,-1.9138,-1.9453,-1.9785,-1.9883,-2.0176,-2.0488,-2.0586,-2.0937,-2.1307,-2.168,-2.209,-2.2207,-2.1797,-2.1127,0.0,0.0,-1.9918,-1.922,-1.9943,-1.8055,-1.6735,0.0,0.0,0.0,0.0,-1.5664,-1.5725,-1.5511,-1.5364,-1.5324,-1.5391,-1.4963,-1.4834,-1.4856,-1.4856,-1.5017,-1.5297,-1.5364,-1.5364,-1.5297,-1.5297,-1.5003,-1.4522,-1.4442,-1.4282,-1.4082,-1.4082,-1.3913,-1.3646,-1.3392,-1.3434,-1.3646,-3.3111,-3.3111,-3.3111,-3.3111,-3.3111,-3.2993,-3.2717,-3.219,-3.1241,-2.96,-2.9423,-2.8682,-2.6712,-2.6543,-2.6356,-2.5755,-2.5714,-2.5714,-2.5714,-2.5231,-2.4935,-2.4935,-2.4935,-2.4935,-2.4935,-2.4339,-2.3714,-2.3101,-2.3101,-2.3101,-2.3101,-2.3101,-2.3101,-2.3101,-2.3101,-2.2964,-2.2754,-2.2148,-2.2109,-2.2383,-2.1522,-2.1602,-2.2148,-2.1914,-2.1836,-2.1855,-2.1562,-2.1484,-2.1504,-2.125,-2.1035,-2.0879,-2.0879,-2.0742,-2.0605,-2.0605,-2.0605,-2.0546,-2.0273,-2.0059,-1.9805,-1.9394,-1.9434,-1.957,-1.957,-1.9902,-2.0215,-2.0215,-2.0429,-2.0605,-2.0605,-2.1094,-2.1602,-2.1855,-2.1916,-2.18,-2.1429,-2.0512,0.0,-2.0087,-1.9144,-1.8589,-1.893,-1.7679,-1.6683,-1.6313,-1.5732,0.0,-1.5618,-1.5704,-1.5704,-1.5605,-1.5471,-1.5391,-1.5391,-1.511,-1.5075,-1.5164,-1.5164,-1.5311,-1.5591,-1.5591,-1.5591,-1.5578,-1.5311,-1.5017,-1.4696,-1.4429,-1.4229,-1.4082,-1.4082,-1.4082,-1.4039,-1.3464,-1.3646,-1.3997,-3.2968,-3.3061,-3.3043,-3.2968,-3.2943,-3.2742,-3.2164,-3.1612,-3.072,-2.9104,-2.8578,-2.7907,-2.6648,-2.563,-2.4999,-2.483,-2.4617,-2.4532,-2.4532,-2.3627,-2.3101,-2.3101,-2.3101,-2.3101,-2.3101,-2.3101,-2.3101,-2.3101,-2.3101,-2.3101,-2.3101,-2.3101,-2.3101,-2.3101,-2.3101,-2.3023,-2.2867,-2.2246,-2.2363,-2.2808,-2.1795,-2.1853,-2.2598,-2.2539,-2.2324,-2.2109,-2.2344,-2.2227,-2.1973,-2.1914,-2.1641,-2.1288,-2.1288,-2.1074,-2.0801,-2.0801,-2.0762,-2.0683,-2.0625,-2.0293,-1.9922,-1.957,-1.9746,-2.0019,-2.0019,-2.0293,-2.0605,-2.0605,-2.0605,-2.0625,-2.0703,-2.1328,-2.1853,-2.1745,-2.1503,-2.1095,-2.0428,0.0,-1.8734,-1.8753,-1.8523,-1.8175,-1.7747,-1.75,-1.684,-1.5564,-1.5645,-1.5671,-1.5471,-1.5698,-1.5784,-1.5784,-1.5591,-1.5458,-1.5458,-1.5217,-1.5217,-1.5458,-1.5458,-1.5591,-1.5784,-1.5784,-1.5784,-1.5744,-1.5217,-1.5008,-1.4968,-1.4322,-1.4082,-1.4082,-1.4082,-1.4082,-1.3997,-1.2942,-1.3209,-1.3913,-3.2441,-3.2742,-3.2918,-3.2441,-3.234,-3.2164,-3.1612,-3.106,-3.0282,-2.9056,-2.9267,-2.8752,-2.673,-2.6359,-2.5839,-2.4872,-2.393,-2.3343,-2.3343,-2.3212,-2.3101,-2.3101,-2.3101,-2.3101,-2.3101,-2.3101,-2.3101,-2.3101,-2.3101,-2.3101,-2.3101,-2.3101,-2.3101,-2.3101,-2.3101,-2.2711,-2.209,-2.2324,-2.2285,-2.209,-2.2246,-2.2555,-2.2964,-2.2656,-2.2652,-2.2808,-2.2207,-2.2168,-2.2363,-2.2012,-2.1836,-2.1777,-2.1777,-2.1738,-2.168,-2.168,-2.1426,-2.1055,-2.0703,-2.0566,-2.0488,-2.0429,-2.0449,-2.0507,-2.0507,-2.0566,-2.0605,-2.0605,-2.0605,-2.0684,-2.1015,-2.1543,-2.1701,-2.101,-2.1145,-2.0678,-1.8979,0.0,-1.804,-1.8398,-1.716,-1.6659,-1.7591,-1.6522,-1.5724,-1.5752,-1.5578,-1.5551,-1.5752,-1.5758,-1.5784,-1.5784,-1.5744,-1.5765,-1.5765,-1.5712,-1.5712,-1.5765,-1.5765,-1.5744,-1.5784,-1.5784,-1.5784,-1.5744,-1.5217,-1.5008,-1.4968,-1.4322,-1.4082,-1.4082,-1.4082,-1.4082,-1.4082,-1.3913,-1.3955,-1.3913,-3.047,-3.1043,-3.1552,-3.1284,-3.1521,-3.1587,-3.106,-3.0758,-3.0284,-2.9484,-2.9096,-2.8291,-2.6689,-2.5964,-2.5126,-2.3973,-2.3387,-2.3101,-2.3101,-2.3101,-2.3101,-2.3101,-2.3101,-2.3101,-2.3101,-2.3101,-2.3101,-2.3101,-2.3101,-2.3101,-2.3101,-2.3101,-2.3101,-2.3101,-2.3101,-2.275,-2.2227,-2.2441,-2.2402,-2.2246,-2.2441,-2.2711,-2.3081,-2.2886,-2.2925,-2.3042,-2.2695,-2.2676,-2.2769,-2.2617,-2.2402,-2.2227,-2.2227,-2.207,-2.1894,-2.1894,-2.1582,-2.1151,-2.0977,-2.0742,-2.0664,-2.0859,-2.0742,-2.0664,-2.0879,-2.0918,-2.0996,-2.123,-2.131,-2.1388,-2.1543,-2.1934,-2.1886,-2.0862,-2.0501,0.0,0.0,-1.7259,-1.6743,-1.6978,-1.6299,-1.6008,-1.6622,-1.6027,-1.5685,-1.5771,-1.5712,-1.5685,-1.5771,-1.5784,-1.5784,-1.5784,-1.5784,-1.5784,-1.5784,-1.5784,-1.5784,-1.5784,-1.5784,-1.5784,-1.5784,-1.5784,-1.5784,-1.5744,-1.5217,-1.5008,-1.4968,-1.4322,-1.4082,-1.4082,-1.4082,-1.4082,-1.4082,-1.4082,-1.4082,-1.3913,-2.8566,-2.9491,-3.0323,-3.0062,-3.0487,-3.0645,-3.0124,-3.0025,-2.9876,-2.9454,-2.8648,-2.7763,-2.6953,-2.563,-2.4467,-2.3541,-2.3256,-2.3101,-2.3101,-2.3101,-2.3101,-2.3101,-2.3101,-2.3101,-2.3101,-2.3101,-2.3101,-2.3101,-2.3101,-2.3101,-2.3101,-2.3101,-2.3101,-2.3101,-2.3101,-2.2867,-2.2519,-2.2617,-2.2598,-2.2519,-2.2617,-2.2808,-2.3101,-2.3101,-2.3101,-2.3101,-2.3101,-2.3101,-2.3101,-2.3101,-2.2886,-2.2656,-2.2656,-2.2441,-2.2168,-2.2168,-2.1875,-2.1463,-2.1366,-2.1133,-2.0997,-2.1309,-2.1133,-2.0957,-2.1309,-2.1346,-2.1444,-2.1816,-2.1668,-2.148,-2.1617,-2.1632,-2.1299,-2.0175,0.0,0.0,0.0,-1.6391,-1.5758,-1.5691,-1.5744,-1.5784,-1.5784,-1.5784,-1.5784,-1.5784,-1.5784,-1.5784,-1.5784,-1.5784,-1.5784,-1.5784,-1.5784,-1.5784,-1.5784,-1.5784,-1.5784,-1.5784,-1.5784,-1.5784,-1.5784,-1.5784,-1.5784,-1.5758,-1.5284,-1.5075,-1.4968,-1.4402,-1.4148,-1.4095,-1.4162,-1.4188,-1.4188,-1.4188,-1.4188,-1.4005,-2.7689,-2.9005,-3.0086,-2.9154,-2.9046,-2.8913,-2.8347,-2.8275,-2.8251,-2.8227,-2.8124,-2.8084,-2.8004,-2.6066,-2.4787,-2.466,-2.3714,-2.3101,-2.3101,-2.3101,-2.3101,-2.3101,-2.3101,-2.3101,-2.3101,-2.3101,-2.3101,-2.3101,-2.3101,-2.3101,-2.3101,-2.3101,-2.3101,-2.3101,-2.3101,-2.2867,-2.2539,-2.2886,-2.2828,-2.2539,-2.2886,-2.3062,-2.3101,-2.3101,-2.3101,-2.3101,-2.3101,-2.3101,-2.3101,-2.3101,-2.3081,-2.3042,-2.3042,-2.3023,-2.3003,-2.3003,-2.2711,-2.2324,-2.1934,-2.1816,-2.1797,-2.1836,-2.1816,-2.1797,-2.1836,-2.1836,-2.1855,-2.1875,-2.0964,-2.028,-2.0685,-1.986,-1.8844,-1.8057,0.0,0.0,-1.5782,-1.5705,-1.5725,-1.5458,-1.5671,-1.5784,-1.5784,-1.5784,-1.5784,-1.5784,-1.5784,-1.5784,-1.5784,-1.5784,-1.5784,-1.5784,-1.5784,-1.5784,-1.5784,-1.5784,-1.5784,-1.5784,-1.5784,-1.5784,-1.5784,-1.5784,-1.5784,-1.5758,-1.5498,-1.5217,-1.4981,-1.4616,-1.4322,-1.4108,-1.4389,-1.4482,-1.4482,-1.4482,-1.4482,-1.4269,-2.5623,-2.6494,-2.715,-2.6776,-2.7121,-2.7346,-2.7162,-2.7116,-2.7116,-2.7116,-2.6479,-2.6066,-2.6066,-2.466,-2.3757,-2.3757,-2.3343,-2.3101,-2.3101,-2.3101,-2.3101,-2.3101,-2.3101,-2.3101,-2.3101,-2.3101,-2.3101,-2.3101,-2.3101,-2.3101,-2.3101,-2.3101,-2.3101,-2.3101,-2.3101,-2.2867,-2.2539,-2.2925,-2.2847,-2.2539,-2.2925,-2.3101,-2.3101,-2.3101,-2.3101,-2.3101,-2.3101,-2.3101,-2.3101,-2.3101,-2.3101,-2.3101,-2.3101,-2.3101,-2.3101,-2.3101,-2.2984,-2.2828,-2.2715,-2.2285,-2.1953,-2.2207,-2.207,-2.1953,-2.2227,-2.1697,-2.1224,-2.1485,-2.0544,-1.9741,-1.9939,-1.9552,-1.8878,-1.7855,0.0,-1.7235,-1.5812,-1.5765,-1.5744,-1.5671,-1.5765,-1.5784,-1.5784,-1.5784,-1.5784,-1.5784,-1.5784,-1.5784,-1.5784,-1.5784,-1.5784,-1.5784,-1.5784,-1.5784,-1.5784,-1.5784,-1.5784,-1.5784,-1.5784,-1.5784,-1.5784,-1.5784,-1.5784,-1.5771,-1.5524,-1.5337,-1.519,-1.4723,-1.4456,-1.4349,-1.4282,-1.4255,-1.4255,-1.4255,-1.4255,-1.3972,-2.4062,-2.4743,-2.5371,-2.5225,-2.5636,-2.5964,-2.5964,-2.5964,-2.6088,-2.6442,-2.5797,-2.5462,-2.5775,-2.4851,-2.4016,-2.3671,-2.3627,-2.3474,-2.3144,-2.3101,-2.3101,-2.3101,-2.3101,-2.3101,-2.3101,-2.3101,-2.3101,-2.3101,-2.3101,-2.3101,-2.3101,-2.3101,-2.3101,-2.3101,-2.3101,-2.2945,-2.2734,-2.2984,-2.2925,-2.2691,-2.2984,-2.3101,-2.3101,-2.3101,-2.3101,-2.3101,-2.3101,-2.3101,-2.3101,-2.3101,-2.3101,-2.3101,-2.3101,-2.3101,-2.3038,-2.2624,-2.2536,-2.2448,-2.2094,-2.1553,-2.1371,-2.2422,-2.25,-2.2363,-2.2637,-2.1751,-2.0977,-2.1248,-2.0025,-1.8948,-1.8948,-1.8626,-1.8087,-1.7217,-1.7077,-1.681,-1.5927,-1.5784,-1.5784,-1.5784,-1.5784,-1.5784,-1.5784,-1.5784,-1.5784,-1.5784,-1.5784,-1.5784,-1.5784,-1.5784,-1.5784,-1.5784,-1.5784,-1.5784,-1.5784,-1.5784,-1.5784,-1.5784,-1.5784,-1.5784,-1.5784,-1.5784,-1.5784,-1.5771,-1.5618,-1.5484,-1.5351,-1.487,-1.4656,-1.4643,-1.4442,-1.4416,-1.4496,-1.4496,-1.4442,-1.4077,-2.3257,-2.4338,-2.5267,-2.4871,-2.4787,-2.4787,-2.4787,-2.4787,-2.521,-2.6359,-2.6483,-2.6871,-2.7924,-2.7116,-2.6005,-2.4872,-2.4787,-2.4296,-2.3169,-2.3101,-2.3101,-2.3101,-2.3101,-2.3101,-2.3101,-2.3101,-2.3101,-2.3101,-2.3101,-2.3101,-2.3101,-2.3101,-2.3101,-2.3101,-2.3101,-2.3101,-2.3101,-2.3101,-2.3101,-2.3101,-2.3101,-2.3101,-2.3101,-2.3101,-2.3101,-2.3101,-2.3101,-2.3101,-2.3101,-2.3101,-2.3101,-2.3101,-2.3101,-2.3101,-2.2862,-2.1658,-2.1302,-2.1016,-1.9815,-1.9497,-2.0087,-2.2448,-2.3057,-2.3057,-2.3057,-2.212,-2.1284,-2.1284,-1.936,-1.7684,-1.7684,-1.6669,-1.5784,-1.5784,-1.5784,-1.5784,-1.5784,-1.5784,-1.5784,-1.5784,-1.5784,-1.5784,-1.5784,-1.5784,-1.5784,-1.5784,-1.5784,-1.5784,-1.5784,-1.5784,-1.5784,-1.5784,-1.5784,-1.5784,-1.5784,-1.5784,-1.5784,-1.5784,-1.5784,-1.5784,-1.5784,-1.5784,-1.5784,-1.5784,-1.5784,-1.5671,-1.5378,-1.5129,-1.5008,-1.5008,-1.5008,-1.5182,-1.5391,-1.5391,-1.5204,-1.4776,-2.3594,-2.3703,-2.3743,-2.3604,-2.3584,-2.3584,-2.3584,-2.3584,-2.3714,-2.4059,-2.4102,-2.4211,-2.4553,-2.4296,-2.3973,-2.3627,-2.3584,-2.3474,-2.3144,-2.3101,-2.3101,-2.3101,-2.3101,-2.3101,-2.3101,-2.3101,-2.3101,-2.3101,-2.3101,-2.3101,-2.3101,-2.3101,-2.3101,-2.3101,-2.3101,-2.3101,-2.3101,-2.3101,-2.3101,-2.3101,-2.3101,-2.3101,-2.3101,-2.3101,-2.3101,-2.3101,-2.3101,-2.3101,-2.3101,-2.3101,-2.3101,-2.3101,-2.3101,-2.3101,-2.2862,-2.1658,-2.1302,-2.1016,-1.9815,-1.9497,-1.9679,-2.0404,-2.0584,-2.0584,-2.0584,-1.9633,-1.8764,-1.8764,-1.7483,-1.6386,-1.6386,-1.6055,-1.5784,-1.5784,-1.5784,-1.5784,-1.5784,-1.5784,-1.5784,-1.5784,-1.5784,-1.5784,-1.5784,-1.5784,-1.5784,-1.5784,-1.5784,-1.5784,-1.5784,-1.5784,-1.5784,-1.5784,-1.5784,-1.5784,-1.5784,-1.5784,-1.5784,-1.5784,-1.5784,-1.5784,-1.5784,-1.5784,-1.5784,-1.5784,-1.5784,-1.5731,-1.5658,-1.5209,-1.5129,-1.5231,-1.4816,-1.483,-1.507,-1.4856,-1.4723,-1.434,-2.3477,-2.3276,-2.3101,-2.3101,-2.3101,-2.3101,-2.3101,-2.3101,-2.3256,-2.3714,-2.3757,-2.393,-2.4382,-2.4425,-2.4274,-2.38,-2.3343,-2.3101,-2.3101,-2.3101,-2.3101,-2.3101,-2.3101,-2.3101,-2.3101,-2.3101,-2.3101,-2.3101,-2.3101,-2.3101,-2.3101,-2.3101,-2.3101,-2.3101,-2.3101,-2.3101,-2.3101,-2.3101,-2.3101,-2.3101,-2.3101,-2.3101,-2.3101,-2.3101,-2.3101,-2.3101,-2.3101,-2.3101,-2.3101,-2.3101,-2.3101,-2.3101,-2.3101,-2.3101,-2.2775,-2.1078,-2.0567,-2.0206,-1.8488,-1.8395,-1.878,-1.878,-1.9131,-1.9497,-1.9497,-1.8549,-1.7684,-1.7684,-1.6669,-1.5784,-1.5784,-1.5784,-1.5784,-1.5784,-1.5784,-1.5784,-1.5784,-1.5784,-1.5784,-1.5784,-1.5784,-1.5784,-1.5784,-1.5784,-1.5784,-1.5784,-1.5784,-1.5784,-1.5784,-1.5784,-1.5784,-1.5784,-1.5784,-1.5784,-1.5784,-1.5784,-1.5784,-1.5784,-1.5784,-1.5784,-1.5784,-1.5784,-1.5784,-1.5784,-1.5784,-1.5784,-1.5792,-1.5324,-1.5311,-1.5511,-1.4923,-1.4883,-1.5097,-1.4803,-1.4616,-1.4135,-2.3101,-2.3101,-2.3101,-2.3101,-2.3101,-2.3101,-2.3101,-2.3101,-2.3474,-2.4489,-2.466,-2.5041,-2.6069,-2.6193,-2.5755,-2.4745,-2.3714,-2.3101,-2.3101,-2.3101,-2.3101,-2.3101,-2.3101,-2.3101,-2.3101,-2.3101,-2.3101,-2.3101,-2.3101,-2.3101,-2.3101,-2.3101,-2.3101,-2.3101,-2.3101,-2.3101,-2.3101,-2.3101,-2.3101,-2.3101,-2.3101,-2.3101,-2.3101,-2.3101,-2.3101,-2.3101,-2.3101,-2.3101,-2.3101,-2.3101,-2.3101,-2.3101,-2.3101,-2.3101,-2.2643,-2.0359,-1.9679,-1.9131,-1.6796,-1.6983,-1.787,-1.787,-1.8688,-1.9497,-1.9497,-1.8642,-1.7824,-1.7731,-1.6763,-1.5974,-1.5974,-1.5879,-1.5832,-1.5974,-1.5879,-1.5784,-1.5784,-1.5784,-1.5784,-1.5784,-1.5784,-1.5784,-1.5784,-1.5784,-1.5784,-1.5784,-1.5784,-1.5784,-1.5784,-1.5784,-1.5784,-1.5784,-1.5784,-1.5784,-1.5784,-1.5784,-1.5784,-1.5784,-1.5784,-1.5784,-1.5784,-1.5784,-1.5784,-1.5784,-1.5784,-1.5784,-1.5758,-1.5484,-1.5551,-1.5718,-1.5164,-1.5124,-1.5351,-1.5089,-1.4705,-1.4017,-2.3101,-2.3101,-2.3101,-2.3101,-2.3101,-2.3101,-2.3101,-2.3101,-2.3188,-2.343,-2.3474,-2.356,-2.38,-2.3844,-2.3734,-2.3474,-2.3256,-2.3101,-2.3101,-2.3101,-2.3101,-2.3101,-2.3101,-2.3101,-2.3101,-2.3101,-2.3101,-2.3101,-2.3101,-2.3101,-2.3101,-2.3101,-2.3101,-2.3101,-2.3101,-2.3101,-2.3101,-2.3101,-2.3101,-2.3101,-2.3101,-2.3101,-2.3101,-2.3101,-2.3101,-2.3101,-2.3101,-2.3101,-2.3101,-2.3101,-2.3101,-2.3101,-2.3101,-2.3101,-2.2818,-2.1346,-2.0899,-2.0567,-1.9115,-1.8902,-1.9085,-1.9085,-1.9314,-1.9497,-1.9497,-1.9314,-1.881,-1.787,-1.7498,-1.7264,-1.7264,-1.648,-1.6103,-1.7138,-1.6433,-1.5784,-1.5784,-1.5784,-1.5784,-1.5784,-1.5784,-1.5784,-1.5784,-1.5784,-1.5784,-1.5784,-1.5784,-1.5784,-1.5784,-1.5784,-1.5784,-1.5784,-1.5784,-1.5784,-1.5784,-1.5784,-1.5784,-1.5784,-1.5784,-1.5784,-1.5784,-1.5784,-1.5784,-1.5784,-1.5784,-1.5784,-1.5744,-1.5271,-1.5364,-1.5704,-1.4937,-1.4937,-1.5337,-1.4803,-1.3981,-1.2829,-2.3101,-2.3101,-2.3101,-2.3101,-2.3101,-2.3101,-2.3101,-2.3101,-2.3101,-2.3101,-2.3101,-2.3101,-2.3101,-2.3101,-2.3101,-2.3101,-2.3101,-2.3101,-2.3101,-2.3101,-2.3101,-2.3101,-2.3101,-2.3101,-2.3101,-2.3101,-2.3101,-2.3101,-2.3101,-2.3101,-2.3101,-2.3101,-2.3101,-2.3101,-2.3101,-2.3101,-2.3101,-2.3101,-2.3101,-2.3101,-2.3101,-2.3101,-2.3101,-2.3101,-2.3101,-2.3101,-2.3101,-2.3101,-2.3101,-2.3101,-2.3101,-2.3101,-2.3101,-2.3101,-2.2862,-2.1658,-2.0881,-2.0161,-1.8948,-1.8642,-1.878,-1.936,-1.9935,-2.0223,-1.9633,-1.9497,-1.9314,-1.8688,-1.8549,-1.8365,-1.7824,-1.7185,-1.6716,-1.6763,-1.6244,-1.5784,-1.5784,-1.5784,-1.5784,-1.5784,-1.5784,-1.5784,-1.5784,-1.5784,-1.5784,-1.5784,-1.5784,-1.5784,-1.5784,-1.5784,-1.5784,-1.5784,-1.5784,-1.5784,-1.5784,-1.5784,-1.5784,-1.5784,-1.5784,-1.5784,-1.5784,-1.5784,-1.5784,-1.5784,-1.5784,-1.5784,-1.5792,-1.5351,-1.5351,-1.5551,-1.4803,-1.471,-1.4923,-1.4482,-1.3207,-1.1554,-2.3101,-2.3101,-2.3101,-2.3101,-2.3101,-2.3101,-2.3101,-2.3101,-2.3101,-2.3101,-2.3101,-2.3101,-2.3101,-2.3101,-2.3101,-2.3101,-2.3101,-2.3101,-2.3101,-2.3101,-2.3101,-2.3101,-2.3101,-2.3101,-2.3101,-2.3101,-2.3101,-2.3101,-2.3101,-2.3101,-2.3101,-2.3101,-2.3101,-2.3101,-2.3101,-2.3101,-2.3101,-2.3101,-2.3101,-2.3101,-2.3101,-2.3101,-2.3101,-2.3101,-2.3101,-2.3101,-2.3101,-2.3101,-2.3101,-2.3101,-2.3101,-2.3101,-2.3101,-2.3101,-2.2906,-2.1898,-2.0899,-1.9861,-1.8642,-1.8319,-1.8503,-1.9314,-2.0387,-2.1016,-2.0025,-1.9951,-2.0042,-1.9861,-1.9815,-1.9451,-1.8226,-1.7824,-1.7358,-1.6292,-1.5927,-1.5784,-1.5784,-1.5784,-1.5784,-1.5784,-1.5784,-1.5784,-1.5784,-1.5784,-1.5784,-1.5784,-1.5784,-1.5784,-1.5784,-1.5784,-1.5784,-1.5784,-1.5784,-1.5784,-1.5784,-1.5784,-1.5784,-1.5784,-1.5784,-1.5784,-1.5784,-1.5784,-1.5784,-1.5784,-1.5784,-1.5784,-1.5758,-1.5511,-1.5391,-1.5337,-1.475,-1.4522,-1.4439,-1.3976,-1.2559,-1.0821,-2.3101,-2.3101,-2.3101,-2.3101,-2.3101,-2.3101,-2.3101,-2.3101,-2.3101,-2.3101,-2.3101,-2.3101,-2.3101,-2.3101,-2.3101,-2.3101,-2.3101,-2.3101,-2.3101,-2.3101,-2.3101,-2.3101,-2.3101,-2.3101,-2.3101,-2.3101,-2.3101,-2.3101,-2.3101,-2.3101,-2.3101,-2.3101,-2.3101,-2.3101,-2.3101,-2.3101,-2.3101,-2.3101,-2.3101,-2.3101,-2.3101,-2.3101,-2.3101,-2.3101,-2.3101,-2.3101,-2.3101,-2.3101,-2.3101,-2.3101,-2.3101,-2.3101,-2.3101,-2.3101,-2.3057,-2.2906,-2.2731,-2.2359,-2.1123,-2.0792,-2.0612,-1.9724,-2.0387,-2.1239,-2.1105,-2.1854,-2.2315,-2.1257,-2.106,-2.0702,-1.9497,-1.8411,-1.7638,-1.7451,-1.6527,-1.5784,-1.5784,-1.5784,-1.5784,-1.5784,-1.5784,-1.5784,-1.5784,-1.5784,-1.5784,-1.5784,-1.5784,-1.5784,-1.5784,-1.5784,-1.5784,-1.5784,-1.5784,-1.5784,-1.5784,-1.5784,-1.5784,-1.5784,-1.5784,-1.5784,-1.5784,-1.5784,-1.5784,-1.5784,-1.5784,-1.5784,-1.5758,-1.5511,-1.5391,-1.5337,-1.475,-1.4522,-1.4352,-1.304,-1.2334,-1.1809,-2.3101,-2.3101,-2.3101,-2.3101,-2.3101,-2.3101,-2.3101,-2.3101,-2.3101,-2.3101,-2.3101,-2.3101,-2.3101,-2.3101,-2.3101,-2.3101,-2.3101,-2.3101,-2.3101,-2.3101,-2.3101,-2.3101,-2.3101,-2.3101,-2.3101,-2.3101,-2.3101,-2.3101,-2.3101,-2.3101,-2.3101,-2.3101,-2.3101,-2.3101,-2.3101,-2.3101,-2.3101,-2.3101,-2.3101,-2.3101,-2.3101,-2.3101,-2.3101,-2.3101,-2.3101,-2.3101,-2.3101,-2.3101,-2.3101,-2.3101,-2.3101,-2.3101,-2.3101,-2.3101,-2.3101,-2.3101,-2.2624,-2.1987,-2.1436,-2.0792,-2.0359,-2.0477,-2.0387,-2.0674,-2.1987,-2.2208,-2.212,-2.2271,-2.2315,-2.1943,-2.0702,-2.007,-1.9497,-1.881,-1.8226,-1.7623,-1.6951,-1.6857,-1.6857,-1.6857,-1.6857,-1.6857,-1.6857,-1.6197,-1.5784,-1.5784,-1.5784,-1.5784,-1.5784,-1.5784,-1.5784,-1.5784,-1.5784,-1.5784,-1.5784,-1.5784,-1.5784,-1.5784,-1.5784,-1.5784,-1.5784,-1.5784,-1.5784,-1.5784,-1.5784,-1.5784,-1.5758,-1.5511,-1.5391,-1.5337,-1.475,-1.4429,-1.4213,-1.3557,-1.2899,-1.2151]},{"header":{"parameterUnit":"m.s-1","parameterCategory":1,"la1":30.6,"la2":28.766,"lo1":-90.7593,"lo2":-88.6598,"dy":0.0162,"dx":0.0183,"nx":116,"ny":114,"refTime":"2024-04-05T12:00:00:Z","depth":0,"parameterNumber":3,"parameterNumberName":"V-component_of_WINDS"},"data":[0.0,0.0,0.0,0.0,0.0,0.0,0.0,0.0,0.0,0.0,0.0,0.0,0.0,0.0,0.0,0.0,0.0,0.0,0.0,0.0,0.0,0.0,0.0,0.0,0.0,0.0,0.0,0.0,0.0,0.0,0.0,0.0,0.0,0.0,0.0,0.0,0.0,0.0,0.0,0.0,0.0,0.0,0.0,0.0,0.0,0.0,0.0,0.0,0.0,0.0,0.0,0.0,0.0,0.0,0.0,0.0,0.0,0.0,0.0,0.0,0.0,0.0,0.0,0.0,0.0,0.0,0.0,0.0,0.0,0.0,0.0,0.0,0.0,0.0,0.0,0.0,0.0,0.0,0.0,0.0,0.0,0.0,0.0,0.0,0.0,0.0,0.0,0.0,0.0,0.0,0.0,0.0,0.0,0.0,0.0,0.0,0.0,0.0,0.0,0.0,0.0,0.0,0.0,0.0,0.0,0.0,0.0,0.0,0.0,0.0,0.0,0.0,0.0,0.0,0.0,0.0,0.0,0.0,0.0,0.0,0.0,0.0,0.0,0.0,0.0,0.0,0.0,0.0,0.0,0.0,0.0,0.0,0.0,0.0,0.0,0.0,0.0,0.0,0.0,0.0,0.0,0.0,0.0,0.0,0.0,0.0,0.0,0.0,0.0,0.0,0.0,0.0,0.0,0.0,0.0,0.0,0.0,0.0,0.0,0.0,0.0,0.0,0.0,0.0,0.0,0.0,0.0,0.0,0.0,0.0,0.0,0.0,0.0,0.0,0.0,0.0,0.0,0.0,0.0,0.0,0.0,0.0,0.0,0.0,0.0,0.0,0.0,0.0,0.0,0.0,0.0,0.0,0.0,0.0,0.0,0.0,0.0,0.0,0.0,0.0,0.0,0.0,0.0,0.0,0.0,0.0,0.0,0.0,0.0,0.0,0.0,0.0,0.0,0.0,0.0,0.0,0.0,0.0,0.0,0.0,0.0,0.0,0.0,0.0,0.0,0.0,0.0,0.0,0.0,0.0,0.0,0.0,0.0,0.0,0.0,0.0,0.0,0.0,0.0,0.0,0.0,0.0,0.0,0.0,0.0,0.0,0.0,0.0,0.0,0.0,0.0,0.0,0.0,0.0,0.0,0.0,0.0,0.0,0.0,0.0,0.0,0.0,0.0,0.0,0.0,0.0,0.0,0.0,0.0,0.0,0.0,0.0,0.0,0.0,0.0,0.0,0.0,0.0,0.0,0.0,0.0,0.0,0.0,0.0,0.0,0.0,0.0,0.0,0.0,0.0,0.0,0.0,0.0,0.0,0.0,0.0,0.0,0.0,0.0,0.0,0.0,0.0,0.0,0.0,0.0,0.0,0.0,0.0,0.0,0.0,0.0,0.0,0.0,0.0,0.0,0.0,0.0,0.0,0.0,0.0,0.0,0.0,0.0,0.0,0.0,0.0,0.0,0.0,0.0,0.0,0.0,0.0,0.0,0.0,0.0,0.0,0.0,0.0,0.0,0.0,0.0,0.0,0.0,0.0,0.0,0.0,0.0,0.0,0.0,0.0,0.0,0.0,0.0,0.0,0.0,0.0,0.0,0.0,0.0,0.0,0.0,0.0,0.0,0.0,0.0,0.0,0.0,0.0,0.0,0.0,0.0,0.0,0.0,0.0,0.0,0.0,0.0,0.0,0.0,0.0,0.0,0.0,0.0,0.0,0.0,0.0,0.0,0.0,0.0,0.0,0.0,0.0,0.0,0.0,0.0,0.0,0.0,0.0,0.0,0.0,0.0,0.0,0.0,0.0,0.0,0.0,0.0,0.0,0.0,0.0,0.0,0.0,0.0,0.0,0.0,0.0,0.0,0.0,0.0,0.0,0.0,0.0,0.0,0.0,0.0,0.0,0.0,0.0,0.0,0.0,0.0,0.0,0.0,0.0,0.0,0.0,0.0,0.0,0.0,0.0,0.0,0.0,0.0,0.0,0.0,0.0,0.0,0.0,0.0,0.0,0.0,0.0,0.0,0.0,0.0,0.0,0.0,0.0,0.0,0.0,0.0,0.0,0.0,0.0,0.0,0.0,0.0,0.0,0.0,0.0,0.0,0.0,0.0,0.0,0.0,0.0,0.0,0.0,0.0,0.0,0.0,0.0,0.0,0.0,0.0,0.0,0.0,0.0,0.0,0.0,0.0,0.0,0.0,0.0,0.0,0.0,0.0,0.0,0.0,0.0,0.0,0.0,0.0,0.0,0.0,0.0,0.0,0.0,0.0,0.0,0.0,0.0,0.0,0.0,0.0,0.0,0.0,0.0,0.0,0.0,0.0,0.0,0.0,0.0,0.0,0.0,0.0,0.0,0.0,0.0,0.0,0.0,0.0,0.0,0.0,0.0,0.0,0.0,0.0,0.0,0.0,0.0,0.0,0.0,0.0,0.0,0.0,0.0,0.0,0.0,0.0,0.0,0.0,0.0,0.0,0.0,0.0,0.0,0.0,0.0,0.0,0.0,0.0,0.0,0.0,0.0,0.0,0.0,0.0,0.0,0.0,0.0,0.0,0.0,0.0,0.0,0.0,0.0,0.0,0.0,0.0,0.0,0.0,0.0,0.0,0.0,0.0,0.0,0.0,0.0,0.0,0.0,0.0,0.0,0.0,0.0,0.0,0.0,0.0,0.0,0.0,0.0,0.0,0.0,0.0,0.0,0.0,0.0,0.0,0.0,0.0,0.0,0.0,0.0,0.0,0.0,0.0,0.0,0.0,0.0,0.0,0.0,0.0,0.0,0.0,0.0,0.0,0.0,0.0,0.0,0.0,0.0,0.0,0.0,0.0,0.0,0.0,0.0,0.0,0.0,0.0,0.0,0.0,0.0,0.0,0.0,0.0,0.0,0.0,0.0,0.0,0.0,0.0,0.0,0.0,0.0,0.0,0.0,0.0,0.0,0.0,0.0,0.0,0.0,0.0,0.0,0.0,0.0,0.0,0.0,0.0,0.0,0.0,0.0,0.0,0.0,0.0,0.0,0.0,0.0,0.0,0.0,0.0,0.0,0.0,0.0,0.0,0.0,0.0,0.0,0.0,0.0,0.0,0.0,0.0,0.0,0.0,0.0,0.0,0.0,0.0,0.0,0.0,0.0,0.0,0.0,0.0,0.0,0.0,0.0,0.0,0.0,0.0,0.0,0.0,0.0,0.0,0.0,0.0,0.0,0.0,0.0,0.0,0.0,0.0,0.0,0.0,0.0,0.0,0.0,0.0,0.0,0.0,0.0,0.0,0.0,0.0,0.0,0.0,0.0,0.0,0.0,0.0,0.0,0.0,0.0,0.0,0.0,0.0,0.0,0.0,0.0,0.0,0.0,0.0,0.0,0.0,0.0,0.0,0.0,0.0,0.0,0.0,0.0,0.0,0.0,0.0,0.0,0.0,0.0,0.0,0.0,0.0,0.0,0.0,0.0,0.0,0.0,0.0,0.0,0.0,0.0,0.0,0.0,0.0,0.0,0.0,0.0,0.0,0.0,0.0,0.0,0.0,0.0,0.0,0.0,0.0,0.0,0.0,0.0,0.0,0.0,0.0,0.0,0.0,0.0,0.0,0.0,0.0,0.0,0.0,0.0,0.0,0.0,0.0,0.0,0.0,0.0,0.0,0.0,0.0,0.0,0.0,0.0,0.0,0.0,0.0,0.0,0.0,0.0,0.0,0.0,0.0,0.0,0.0,0.0,0.0,0.0,0.0,0.0,0.0,0.0,0.0,0.0,0.0,0.0,0.0,0.0,0.0,0.0,0.0,0.0,0.0,0.0,0.0,0.0,0.0,0.0,0.0,0.0,0.0,0.0,0.0,0.0,0.0,0.0,0.0,0.0,0.0,0.0,0.0,0.0,0.0,0.0,0.0,0.0,0.0,0.0,0.0,0.0,0.0,0.0,0.0,0.0,0.0,0.0,0.0,0.0,0.0,0.0,0.0,0.0,0.0,0.0,0.0,0.0,0.0,0.0,0.0,0.0,0.0,0.0,0.0,0.0,0.0,0.0,0.0,0.0,0.0,0.0,0.0,0.0,0.0,0.0,0.0,0.0,0.0,0.0,0.0,0.0,0.0,0.0,0.0,0.0,0.0,0.0,0.0,0.0,0.0,0.0,0.0,0.0,0.0,0.0,0.0,0.0,0.0,0.0,0.0,0.0,0.0,0.0,0.0,0.0,0.0,0.0,0.0,0.0,0.0,0.0,0.0,0.0,0.0,0.0,0.0,0.0,0.0,0.0,0.0,0.0,0.0,0.0,0.0,0.0,0.0,0.0,0.0,0.0,0.0,0.0,0.0,0.0,0.0,0.0,0.0,0.0,0.0,0.0,0.0,0.0,0.0,0.0,0.0,0.0,0.0,0.0,0.0,0.0,0.0,0.0,0.0,0.0,0.0,0.0,0.0,0.0,0.0,0.0,0.0,0.0,0.0,0.0,0.0,0.0,0.0,0.0,0.0,0.0,0.0,0.0,0.0,0.0,0.0,0.0,0.0,0.0,0.0,0.0,0.0,0.0,0.0,0.0,0.0,0.0,0.0,0.0,0.0,0.0,0.0,0.0,0.0,0.0,0.0,0.0,0.0,0.0,0.0,0.0,0.0,0.0,0.0,0.0,0.0,0.0,0.0,0.0,0.0,0.0,0.0,0.0,0.0,0.0,0.0,0.0,0.0,0.0,0.0,0.0,0.0,0.0,0.0,0.0,0.0,0.0,0.0,0.0,0.0,0.0,0.0,0.0,0.0,0.0,0.0,0.0,0.0,0.0,0.0,0.0,0.0,0.0,0.0,0.0,0.0,0.0,0.0,0.0,0.0,0.0,0.0,0.0,0.0,0.0,0.0,0.0,0.0,0.0,0.0,0.0,0.0,0.0,0.0,0.0,0.0,0.0,0.0,0.0,0.0,0.0,0.0,0.0,0.0,0.0,0.0,0.0,0.0,0.0,0.0,0.0,0.0,0.0,0.0,0.0,0.0,0.0,0.0,0.0,0.0,0.0,0.0,0.0,0.0,0.0,0.0,0.0,0.0,0.0,0.0,0.0,0.0,0.0,0.0,0.0,0.0,0.0,0.0,0.0,0.0,0.0,0.0,0.0,0.0,0.0,0.0,0.0,0.0,0.0,0.0,0.0,0.0,0.0,0.0,0.0,0.0,0.0,0.0,0.0,0.0,0.0,0.0,0.0,0.0,0.0,0.0,0.0,0.0,0.0,0.0,0.0,0.0,0.0,0.0,0.0,0.0,0.0,0.0,0.0,0.0,0.0,0.0,0.0,0.0,0.0,0.0,0.0,0.0,0.0,0.0,0.0,0.0,0.0,0.0,0.0,0.0,0.0,0.0,0.0,0.0,0.0,0.0,0.0,0.0,0.0,0.0,0.0,0.0,0.0,0.0,0.0,0.0,0.0,0.0,0.0,0.0,0.0,0.0,0.0,0.0,0.0,0.0,0.0,0.0,0.0,0.0,0.0,0.0,0.0,0.0,0.0,0.0,0.0,0.0,0.0,0.0,0.0,0.0,0.0,0.0,0.0,0.0,0.0,0.0,0.0,0.0,0.0,0.0,0.0,0.0,0.0,0.0,0.0,0.0,0.0,0.0,0.0,0.0,0.0,0.0,0.0,0.0,0.0,0.0,0.0,0.0,0.0,0.0,0.0,0.0,0.0,0.0,0.0,0.0,0.0,0.0,0.0,0.0,0.0,0.0,0.0,0.0,0.0,0.0,0.0,0.0,0.0,0.0,0.0,0.0,0.0,0.0,0.0,0.0,0.0,0.0,0.0,0.0,0.0,0.0,0.0,0.0,0.0,0.0,0.0,0.0,0.0,0.0,0.0,0.0,0.0,0.0,0.0,0.0,0.0,0.0,0.0,0.0,0.0,0.0,0.0,0.0,0.0,0.0,0.0,0.0,0.0,0.0,0.0,0.0,0.0,0.0,0.0,0.0,0.0,0.0,0.0,0.0,0.0,0.0,0.0,0.0,0.0,0.0,0.0,0.0,0.0,0.0,0.0,0.0,0.0,0.0,0.0,0.0,0.0,0.0,0.0,0.0,0.0,0.0,0.0,0.0,0.0,0.0,0.0,0.0,0.0,0.0,0.0,0.0,0.0,0.0,0.0,0.7182,0.0,0.0,0.0,0.0,0.0,0.0,0.0,0.0,0.0,0.0,0.0,0.0,0.0,0.0,0.0,0.0,0.0,0.0,0.0,0.0,0.0,0.0,0.0,0.0,3.3107,3.4201,3.5155,3.6415,3.7174,3.7174,3.7589,3.7793,3.7793,3.7466,3.7071,3.66,3.5874,3.5457,3.537,3.4934,3.4671,3.4617,3.3038,3.0236,2.6518,0.0,0.0,0.0,0.0,0.0,0.0,0.0,0.0,0.0,0.0,0.0,0.0,0.0,0.0,0.0,0.0,0.0,0.0,0.0,0.0,0.0,0.0,0.0,0.0,0.0,0.0,0.0,0.0,0.0,0.0,0.0,0.0,0.0,0.0,0.0,0.0,0.0,0.0,0.0,0.0,0.0,0.0,0.0,0.0,0.0,0.0,0.0,0.0,0.0,0.0,0.0,0.0,0.0,0.0,0.0,0.0,0.0,0.0,0.0,0.0,0.0,0.0,0.0,0.0,0.0,0.0,0.0,0.0,0.0,0.0,0.0,0.9153,0.0,0.0,0.0,0.0,0.0,0.0,0.0,0.0,0.0,0.0,0.0,0.0,0.0,0.0,0.0,0.0,0.0,0.0,0.0,0.0,0.0,3.3152,3.3818,3.5057,3.6065,3.6751,3.7528,3.7991,3.7991,3.8137,3.8222,3.8222,3.8222,3.8222,3.8222,3.8048,3.8431,3.9279,3.8911,3.898,3.9438,3.9269,3.6155,0.0,0.0,0.0,0.0,0.0,0.0,0.0,0.0,0.0,0.0,0.0,0.0,0.0,0.0,0.0,0.0,0.0,0.0,0.0,0.0,0.0,0.0,0.0,0.0,0.0,0.0,0.0,0.0,0.0,0.0,0.0,0.0,0.0,0.0,0.0,0.0,0.0,0.0,0.0,0.0,0.0,0.0,0.0,0.0,0.0,0.0,0.0,0.0,0.0,0.0,0.0,0.0,0.0,0.0,0.0,0.0,0.0,0.0,0.0,0.0,0.0,0.0,0.0,0.0,0.0,1.5357,1.4715,1.4522,1.3694,1.3906,1.4898,1.3637,1.2905,1.2419,0.0,0.0,0.0,0.0,0.0,0.0,0.0,0.0,0.0,0.0,0.0,0.0,0.0,0.0,0.0,0.0,0.0,0.0,0.0,0.0,3.4891,3.619,3.6529,3.6908,3.7584,3.833,3.8745,3.8745,3.9428,3.9799,3.9799,3.9799,3.9799,3.9799,3.9129,3.9394,4.0744,4.192,4.2596,4.2751,4.2501,4.1922,4.0751,0.0,0.0,0.0,0.0,0.0,0.0,0.0,0.0,0.0,0.0,0.0,0.0,0.0,0.0,0.0,0.0,0.0,0.0,0.0,0.0,0.0,0.0,0.0,0.0,0.0,0.0,0.0,0.0,0.0,0.0,0.0,0.0,0.0,0.0,0.0,0.0,0.0,0.0,0.0,0.0,0.0,0.0,0.0,0.0,2.2983,2.1545,0.0,0.0,0.0,0.0,0.0,0.0,0.0,0.0,0.0,0.0,0.0,0.0,0.0,1.6563,1.7018,1.6866,1.6892,1.7085,1.6881,1.6671,1.6331,1.6221,1.6428,1.6817,1.6624,0.0,1.4054,1.237,0.0,0.0,0.0,0.0,0.0,0.0,0.0,0.0,0.0,0.0,0.0,0.0,0.0,0.0,0.0,0.0,0.0,0.0,0.0,0.0,0.0,3.8731,3.9673,4.0692,4.2672,4.3523,4.2585,4.2888,4.266,4.1777,4.1302,4.1267,4.1708,4.138,4.2165,4.415,4.7002,4.7963,4.7177,4.7002,4.6684,4.6079,4.18,3.8656,3.6413,3.3803,0.0,0.0,0.0,0.0,0.0,0.0,0.0,0.0,0.0,0.0,0.0,0.0,0.0,0.0,0.0,0.0,0.0,0.0,0.0,0.0,0.0,0.0,0.0,0.0,0.0,0.0,0.0,0.0,0.0,0.0,0.0,0.0,0.0,0.0,0.0,0.0,0.0,0.0,0.0,2.3664,2.3196,2.2171,2.2298,2.2123,0.0,0.0,0.0,0.0,0.0,0.0,0.0,0.0,0.0,2.06,1.9194,1.8605,1.8921,1.8058,1.7742,1.7956,1.7729,1.7582,1.7448,1.7275,1.7275,1.7447,1.7447,1.6976,1.6126,1.4231,1.3363,1.3045,0.0,0.0,0.0,0.0,1.1502,1.1431,0.0,0.0,0.0,0.0,0.0,0.0,0.0,0.0,0.0,0.0,0.0,0.0,3.9805,4.1385,4.2826,4.4176,4.6436,4.7204,4.5795,4.5311,4.4472,4.308,4.2221,4.2186,4.2973,4.3942,4.5659,4.8104,5.1358,5.2467,5.1549,5.1479,5.1247,5.0785,4.8233,4.4652,4.0311,3.7716,3.5848,0.0,0.0,0.0,0.0,0.0,0.0,0.0,0.0,0.0,0.0,0.0,0.0,0.0,0.0,0.0,0.0,0.0,0.0,0.0,0.0,0.0,0.0,0.0,0.0,0.0,0.0,0.0,0.0,0.0,0.0,0.0,0.0,0.0,0.0,0.0,0.0,0.0,0.0,2.425,2.4078,2.3074,2.3992,2.4122,0.0,0.0,0.0,0.0,0.0,0.0,2.281,2.2719,2.2774,2.3014,2.1518,2.0845,2.1108,1.9959,1.9465,1.9552,1.924,1.9042,1.8904,1.8362,1.8094,1.8094,1.774,1.7582,1.7463,1.5733,1.4961,1.4618,1.3181,1.2605,1.2605,1.2605,1.2605,1.2581,0.0,0.0,0.0,0.0,0.0,0.0,0.0,0.0,0.0,0.0,0.0,4.1322,4.3687,4.4688,4.5833,4.7429,4.7725,4.7441,4.6577,4.511,4.386,4.3044,4.2221,4.2186,4.2973,4.6557,4.967,5.218,5.3667,5.4773,5.5504,5.5455,5.5786,5.6364,5.3175,4.9958,4.6717,4.3261,4.0849,3.9113,0.0,0.0,0.0,0.0,0.0,0.0,0.0,0.0,0.0,0.0,0.0,0.0,0.0,0.0,0.0,0.0,0.0,0.0,0.0,0.0,0.0,0.0,0.0,0.0,0.0,0.0,0.0,0.0,0.0,0.0,0.0,0.0,0.0,0.0,0.0,0.0,0.0,0.0,0.0,2.5684,2.7357,0.0,0.0,0.0,0.0,2.5567,2.5489,2.5857,2.6652,2.5122,2.4584,2.5395,2.4022,2.3227,2.3244,2.319,2.2917,2.2482,2.2228,2.1868,2.1473,2.0143,1.9472,1.942,1.8146,1.7582,1.7528,1.6877,1.6573,1.6507,1.5813,1.5589,1.5589,1.5589,1.5589,1.5399,0.0,0.0,0.0,0.0,0.0,3.7312,3.7666,3.8086,3.8841,4.0116,4.1398,4.3095,4.5329,4.7679,4.9658,5.1129,5.2468,5.2731,5.1704,4.9395,4.8043,4.8027,4.6011,4.6116,4.8796,5.2249,5.4572,5.5728,5.7265,5.8043,5.8034,5.7505,5.7438,5.7694,5.6526,5.5413,5.396,4.8033,4.4407,4.2469,4.0024,0.0,0.0,0.0,0.0,0.0,0.0,0.0,0.0,0.0,0.0,0.0,0.0,0.0,0.0,0.0,0.0,0.0,0.0,0.0,0.0,0.0,0.0,0.0,0.0,0.0,0.0,0.0,0.0,0.0,0.0,0.0,0.0,0.0,0.0,0.0,0.0,0.0,0.0,2.9029,3.0572,0.0,2.8185,2.8404,2.8178,2.7094,2.748,2.7857,2.8223,2.791,2.7698,2.7717,2.6281,2.5386,2.5123,2.4137,2.3459,2.3041,2.2732,2.2369,2.1954,2.1248,2.0947,2.0947,2.0436,2.0231,2.0184,1.9772,1.8438,1.666,1.6273,1.6005,1.5784,1.5784,1.5784,1.5737,0.0,0.0,0.0,0.0,3.7614,3.7918,3.8559,3.9028,3.9931,4.1631,4.3261,4.5287,4.7922,5.0628,5.2978,5.4736,5.6088,5.6294,5.4924,5.232,5.0692,5.0416,4.8861,4.9679,5.3256,5.6037,5.8079,5.9383,6.0226,6.0608,6.0564,5.9591,5.9317,5.9591,5.8856,5.8702,5.8623,5.3297,4.9327,4.6487,0.0,0.0,3.8677,0.0,0.0,0.0,0.0,0.0,0.0,0.0,0.0,0.0,0.0,0.0,0.0,0.0,0.0,0.0,0.0,0.0,0.0,0.0,0.0,0.0,0.0,0.0,0.0,0.0,0.0,0.0,0.0,0.0,0.0,0.0,0.0,0.0,0.0,0.0,3.2316,3.1035,3.27,3.3056,3.0612,3.107,3.083,2.9185,2.9601,2.9729,2.9336,2.9492,2.9512,2.9355,2.8237,2.7456,2.7029,2.6024,2.5193,2.4455,2.4263,2.386,2.3319,2.2637,2.2366,2.2366,2.1895,2.1627,2.1445,2.1197,1.9789,1.7779,1.7625,1.7184,1.6619,1.6475,1.615,1.5784,0.0,0.0,0.0,3.8048,3.8364,3.8836,3.9133,4.0311,4.1873,4.3901,4.5633,4.8047,5.1632,5.355,5.5551,5.801,5.8216,5.7498,5.5875,5.3414,5.1351,4.9816,5.0624,5.259,5.5933,5.7619,5.9983,6.3142,6.2349,6.2387,6.3105,6.1891,6.1736,6.2401,6.0407,5.996,6.0567,5.9009,5.5734,0.0,0.0,0.0,4.3588,0.0,0.0,0.0,0.0,0.0,0.0,0.0,0.0,0.0,0.0,0.0,0.0,0.0,0.0,0.0,0.0,0.0,0.0,0.0,0.0,0.0,0.0,0.0,0.0,0.0,0.0,0.0,0.0,0.0,0.0,0.0,0.0,0.0,3.1228,3.2355,3.301,3.1771,3.3905,3.4764,3.3005,3.3982,3.394,3.2048,3.1897,3.145,3.0403,2.9937,2.9898,3.0233,2.9841,2.9355,2.8926,2.8887,2.8242,2.7012,2.7012,2.6512,2.5645,2.4362,2.3732,2.3683,2.2416,2.1545,2.1164,2.1098,2.0685,2.0058,2.0072,1.9367,1.8308,1.7897,1.6936,1.5832,0.0,0.0,3.8713,3.8744,3.8896,3.9519,4.1026,4.1571,4.2653,4.503,4.7301,4.9792,5.2575,5.4877,5.7012,5.8899,5.8271,5.7673,5.7427,5.4349,5.2831,5.3644,5.5597,5.7843,6.0316,6.1376,6.2486,6.3628,6.3432,6.3609,6.4049,6.3672,6.3953,6.4704,6.4121,6.413,6.4435,6.2804,0.0,0.0,0.0,0.0,4.8924,0.0,0.0,0.0,0.0,0.0,0.0,0.0,0.0,0.0,0.0,0.0,0.0,0.0,0.0,0.0,0.0,0.0,0.0,0.0,0.0,0.0,0.0,0.0,0.0,0.0,0.0,0.0,0.0,0.0,0.0,0.0,0.0,3.679,3.5048,3.626,3.7215,3.6898,3.78,3.7867,3.6331,3.6503,3.6048,3.4471,3.4339,3.4241,3.393,3.2763,3.2055,3.1773,3.0382,2.9355,2.8926,2.832,2.7676,2.7012,2.6699,2.6269,2.5693,2.5333,2.5167,2.5118,2.4756,2.4553,2.4373,2.4103,2.3841,2.3438,2.0947,1.9643,1.9168,1.9026,1.8226,1.7044,0.0,3.7978,3.8506,3.9016,3.89,3.9502,4.1769,4.2108,4.3189,4.6139,4.8427,5.0757,5.3451,5.5317,5.6954,5.8286,5.7758,5.7135,5.6635,5.504,5.4983,5.7038,5.9181,6.1373,6.3628,6.4166,6.4833,6.5738,6.5408,6.5329,6.5536,6.5673,6.5813,6.593,6.6069,6.6232,6.6357,6.5399,0.0,0.0,0.0,0.0,5.3978,5.2015,5.0321,4.8749,4.6922,4.5634,4.4461,4.2614,0.0,0.0,0.0,0.0,0.0,0.0,0.0,0.0,0.0,0.0,0.0,0.0,0.0,0.0,0.0,0.0,0.0,0.0,0.0,0.0,0.0,0.0,0.0,0.0,3.9513,3.9872,3.9438,3.9288,3.922,3.922,3.9496,3.9362,3.8505,3.84,3.7796,3.6325,3.6217,3.5945,3.5343,3.4515,3.3883,3.3603,3.2327,3.1374,3.0971,2.9522,2.8459,2.7834,2.6883,2.6152,2.5693,2.5693,2.5693,0.0,2.5693,2.5577,2.543,2.5223,2.4863,0.0,0.0,0.0,0.0,0.0,1.9039,1.8365,0.0,3.7608,3.8191,3.9008,3.8776,3.9316,4.1827,4.2217,4.3509,4.7067,4.8972,5.1063,5.3797,5.4972,5.5895,5.6791,5.6868,5.6263,5.4909,5.5844,5.7591,6.0157,6.1845,6.3826,6.6174,6.6217,6.6923,6.8411,6.7539,6.709,6.7128,6.7408,6.72,6.665,6.6949,6.7127,6.726,0.0,0.0,0.0,0.0,0.0,5.8552,5.6921,5.5511,5.418,5.1795,4.9831,4.8138,4.6881,0.0,0.0,0.0,0.0,0.0,0.0,0.0,0.0,0.0,0.0,0.0,0.0,0.0,0.0,0.0,0.0,0.0,0.0,0.0,0.0,0.0,0.0,0.0,0.0,4.2244,4.3092,4.3657,4.164,4.0083,3.9929,3.98,3.9697,3.9697,3.9697,3.9129,3.7849,3.7743,3.721,3.5836,0.0,0.0,0.0,0.0,3.4129,3.381,3.1594,3.0058,2.919,2.7589,2.6576,2.611,2.5965,2.5917,2.5917,2.5791,2.5508,2.5184,2.5228,2.4723,2.389,2.3756,2.3062,2.1916,2.0298,1.9724,1.9679,0.0,3.7023,3.8245,3.9314,3.9421,4.0165,4.2546,4.2917,4.3885,4.6666,4.8481,5.0038,5.1318,5.3395,5.5049,5.5857,5.5934,5.6154,5.6639,5.8291,6.0371,6.2931,6.4519,6.6269,6.828,6.8061,6.8152,6.8643,6.7612,6.709,6.709,6.7178,6.7497,6.8021,6.8066,6.8625,6.9382,0.0,0.0,0.0,0.0,0.0,6.1678,5.9483,5.8853,5.8868,5.6524,5.6634,5.7215,5.3169,5.129,5.0184,4.7525,0.0,0.0,0.0,0.0,0.0,0.0,0.0,0.0,0.0,0.0,0.0,0.0,0.0,0.0,0.0,0.0,0.0,0.0,0.0,0.0,4.3466,4.3892,4.431,4.4938,4.374,4.235,4.1369,4.0313,3.9697,3.9697,3.9697,3.9569,3.931,3.9258,3.9129,3.8868,3.769,3.7079,3.7079,3.5002,3.3899,3.381,3.224,3.1113,3.0537,0.0,0.0,2.8634,2.7673,2.722,2.7173,2.6159,2.5635,2.5595,2.5828,2.5375,2.4506,2.3593,2.3086,2.2757,2.1427,2.0926,2.0792,0.0,3.5522,3.7419,3.8758,3.911,3.9896,4.1886,4.271,4.3855,4.597,4.7702,4.9086,4.9933,5.1202,5.2125,5.251,5.3417,5.4955,5.7314,5.9503,6.2266,6.5684,6.7019,6.8456,7.0168,6.9619,6.9556,7.0097,6.903,6.8502,6.849,6.8449,6.8398,6.8385,6.8385,6.8943,0.0,0.0,0.0,0.0,0.0,0.0,6.3446,6.2472,6.2328,6.2388,6.0142,5.9831,6.0087,5.725,5.5583,5.4283,5.1859,4.9122,4.6273,0.0,0.0,0.0,0.0,0.0,0.0,0.0,0.0,0.0,0.0,0.0,0.0,0.0,0.0,4.2575,4.2398,0.0,4.4646,4.5633,4.5809,4.5991,4.6314,4.5252,4.3975,4.2689,4.1419,4.0642,4.0642,4.0083,3.9697,3.9697,3.9697,3.9697,3.9697,3.9025,3.8582,3.8582,3.7156,3.6193,3.5907,3.4056,3.2804,3.227,3.1122,3.0341,2.9777,2.9171,2.878,2.8448,2.7861,2.7531,2.7495,2.7138,2.6736,2.6238,2.5189,2.4102,2.3038,2.2403,2.2208,2.212,0.0,3.3777,3.6079,3.7762,3.8438,3.9239,4.0843,4.1963,4.3289,4.5024,4.656,4.7809,4.8586,4.8933,4.9221,4.9421,5.1447,5.4058,5.7242,6.0161,6.3562,6.7531,6.8691,6.9939,7.1538,7.0862,7.0804,7.153,7.0485,6.9943,6.9943,6.966,6.9117,6.8449,6.8424,6.8783,0.0,0.0,0.0,0.0,0.0,0.0,6.469,6.4595,6.447,6.4115,6.212,6.0955,6.0368,5.9545,5.8245,5.6773,5.5499,5.3251,5.036,4.6828,4.5596,0.0,0.0,0.0,0.0,0.0,0.0,0.0,0.0,0.0,4.3524,4.374,4.4439,4.5094,4.5354,4.565,4.6262,4.7489,4.7489,4.7369,4.7489,4.6476,4.5446,4.4518,4.2964,4.1985,4.1985,4.0844,4.0083,4.0083,3.9826,3.9697,3.9697,3.9697,3.9697,3.9697,3.917,3.8592,3.8015,3.6039,3.4679,3.4029,3.2557,3.1526,3.0882,3.0649,3.0284,2.9715,2.9487,2.9397,2.9376,2.8341,2.7892,2.7858,2.6858,2.54,2.3757,2.3757,2.3627,2.343,0.0,3.2175,3.429,3.6437,3.7709,3.8853,4.0045,4.0765,4.1862,4.3843,4.4857,4.5589,4.5991,4.7355,4.863,4.9506,5.2672,5.516,5.6464,6.0498,6.4062,6.6874,6.8405,7.0077,7.191,7.1546,7.1443,7.1675,7.0653,7.018,7.0141,6.9225,6.8751,6.8664,6.8499,0.0,0.0,0.0,0.0,0.0,0.0,0.0,6.595,6.4026,6.3023,6.2405,6.104,6.0481,6.0274,5.9473,5.8187,5.6894,5.6723,5.5475,5.3639,5.1158,0.0,4.7849,4.5375,4.4929,4.5439,4.6611,4.6502,4.7243,0.0,0.0,4.8457,5.046,4.9942,4.9171,4.9254,4.8554,4.8207,4.897,4.8057,4.7519,4.8087,4.7581,4.7271,4.7703,4.5107,4.3313,4.3313,4.2133,4.1419,4.1419,4.0364,3.9697,3.9697,3.9697,3.9697,3.9697,3.917,3.8592,3.8015,3.729,3.6368,3.5298,3.5084,3.4466,3.3429,3.2394,3.1541,3.0956,2.9852,2.9441,2.9479,2.8352,2.7954,2.7968,2.6917,2.6359,2.611,2.611,2.5462,2.4617,0.0,0.0,3.331,3.4638,3.6236,3.7655,3.8512,3.964,4.0741,4.1581,4.2818,4.3902,4.4547,4.5821,4.6846,4.74,5.1123,5.4117,5.5652,5.9842,6.3633,6.6758,6.7534,6.8705,7.0469,7.0839,7.106,7.112,7.1093,7.1078,7.1039,6.9903,6.914,6.8675,6.7984,0.0,0.0,0.0,0.0,0.0,0.0,0.0,6.3314,6.1882,6.026,5.8838,5.896,5.8988,0.0,0.0,5.7352,5.6782,5.6355,5.5079,5.3274,5.0566,4.9599,0.0,4.8785,4.8668,0.0,0.0,5.0189,5.0939,5.1981,5.1486,5.0882,5.1212,5.1815,5.175,5.0144,5.0131,5.0161,0.0,4.8476,4.8117,4.882,4.7967,4.7549,4.8207,4.7123,4.6155,4.5817,4.427,4.3302,4.3302,4.1752,4.0794,4.0794,4.0083,3.9697,3.9697,3.917,3.8592,3.8015,3.7462,3.6784,3.6006,3.6006,3.5604,3.4806,3.4004,3.3138,3.2258,3.1395,3.1051,3.1038,2.9946,2.9479,2.9469,2.8714,2.841,2.8251,2.6976,2.6193,2.5797,0.0,0.0,0.0,3.3156,3.4674,3.6113,3.7129,3.8526,3.9696,4.0257,4.1391,4.2616,4.3876,4.4958,4.5688,4.59,4.9448,5.25,5.4453,5.8633,6.2461,6.5664,6.6523,6.7578,6.9023,6.9883,7.0469,7.0703,7.1195,7.1566,7.1758,7.081,6.9925,6.9088,6.8226,0.0,0.0,0.0,0.0,0.0,0.0,0.0,6.1178,5.9622,5.7575,5.5669,5.664,5.6565,0.0,0.0,5.4987,5.4752,5.4444,5.3518,5.2121,4.9995,4.9496,4.9792,5.0436,0.0,0.0,5.1683,5.2941,5.3824,5.2761,5.277,5.2846,5.227,5.2973,5.3144,5.1294,5.1298,5.1233,5.0152,4.9178,4.8775,4.9434,4.8416,4.7818,4.8476,4.8386,4.8194,4.7963,4.6168,4.504,4.504,4.3209,4.2133,4.2133,4.1269,4.0743,4.0743,4.0201,3.9633,3.9039,3.8137,3.7384,3.6896,3.6546,3.6081,3.5483,3.4781,3.4048,3.3269,3.2541,3.2139,3.1913,3.0984,3.0532,3.0357,2.9955,2.9804,2.9624,2.8011,2.7221,2.6912,0.0,0.0,0.0,0.0,3.3235,3.4309,3.6172,3.7323,3.8673,4.0609,4.0921,4.1792,4.4034,4.5086,4.5688,4.59,4.8349,5.0699,5.2656,5.6875,6.043,6.3008,6.5547,6.7305,6.8203,6.9023,6.9844,7.0703,7.0703,7.1172,7.1992,7.1761,7.1122,7.0155,6.9932,6.8817,0.0,0.0,0.0,0.0,0.0,0.0,6.0857,5.778,5.5336,5.3647,5.4283,0.0,0.0,0.0,5.0472,4.9958,5.0708,5.0908,0.0,5.0762,5.0211,4.9625,0.0,0.0,5.2154,5.2942,5.4409,5.56,5.5581,5.5044,5.4745,5.5412,5.4157,5.3128,5.3785,5.2203,5.1017,5.1611,5.0332,4.9464,5.0076,4.9075,4.8506,4.9209,4.8686,4.8536,0.0,4.7483,4.6339,4.6339,4.4546,4.3456,4.3456,4.3409,4.3361,4.3361,4.2736,4.2131,4.1571,3.978,3.8596,3.8017,3.6943,3.6081,3.5458,3.4424,3.3897,3.3822,3.2692,3.1913,3.1361,3.0834,3.0306,2.9804,2.9804,2.9804,2.9804,2.9702,2.8988,2.8044,0.0,0.0,0.0,0.0,0.0,3.3437,3.4985,3.6475,3.7863,3.9067,4.0951,0.0,0.0,0.0,0.0,0.0,4.7534,4.9357,5.0706,5.3797,5.6782,5.9361,6.0975,6.2734,6.4726,6.5586,6.6445,6.7305,6.8476,6.918,6.9492,6.972,6.9367,6.8527,6.8179,6.7395,0.0,0.0,0.0,0.0,0.0,0.0,5.8557,5.6736,5.401,5.1,0.0,0.0,0.0,0.0,4.7304,4.7538,4.8359,0.0,0.0,4.7863,4.8912,5.021,5.125,0.0,5.497,5.5454,5.639,5.7122,5.6597,5.5893,5.5243,5.5012,5.3646,5.2363,5.1924,5.1019,5.0407,5.0325,4.9742,4.9689,5.075,4.9763,4.906,4.9269,4.9434,0.0,0.0,0.0,0.0,4.7658,4.5854,4.4794,4.4794,4.3975,4.331,4.2877,4.227,4.1663,4.1028,3.9639,3.901,3.9271,3.8468,3.7551,3.6545,3.545,3.5142,3.533,3.3418,3.2564,3.241,3.1409,3.0522,2.9804,2.9804,2.9804,2.9804,2.9804,2.9585,2.9174,0.0,0.0,0.0,0.0,0.0,0.0,0.0,0.0,0.0,0.0,0.0,0.0,0.0,0.0,0.0,0.0,0.0,4.696,4.8837,5.0622,5.2736,5.5316,5.6624,5.8055,5.97,6.0597,6.1768,6.3201,6.4336,6.5347,6.6194,6.6517,6.6506,6.6205,6.5933,6.5493,0.0,0.0,0.0,0.0,0.0,0.0,5.6191,5.4309,5.1713,0.0,0.0,0.0,0.0,0.0,0.0,0.0,4.5863,4.6066,4.622,4.6797,4.8814,5.1249,5.313,5.495,5.6513,5.7275,5.7751,5.7904,5.7401,5.6474,5.5475,5.4764,5.3169,5.1629,5.0658,5.0442,5.0229,4.9679,4.9812,5.0389,5.1417,5.0481,4.9769,5.018,5.0122,4.9702,0.0,0.0,0.0,4.8297,4.6904,4.6077,4.6077,4.5298,4.4556,4.3885,4.3275,4.2536,4.1639,4.021,3.9396,3.9179,3.8751,3.8144,3.7332,3.6223,3.59,3.605,3.3954,3.3055,3.3078,3.2085,3.1341,3.0809,3.0809,3.0809,3.0809,3.0809,3.0809,3.0618,0.0,0.0,0.0,0.0,0.0,0.0,0.0,0.0,0.0,0.0,0.0,0.0,0.0,0.0,0.0,0.0,0.0,0.0,4.6828,0.0,0.0,5.0729,5.2471,5.3415,5.3492,5.4244,5.5817,5.8209,5.8258,5.9511,6.1792,6.1858,6.2208,6.2786,6.2756,6.2721,6.2615,0.0,0.0,0.0,0.0,0.0,5.3814,5.0814,0.0,0.0,0.0,0.0,0.0,0.0,0.0,0.0,4.3577,4.5053,4.677,4.7714,4.9925,5.2613,5.5012,5.6046,5.6777,5.8283,5.8348,5.7997,5.7997,5.6778,5.544,5.4717,5.2641,5.0811,0.0,0.0,5.0331,4.9705,5.0564,5.1511,5.2324,5.1263,5.0778,0.0,0.0,0.0,0.0,0.0,0.0,4.8355,0.0,4.7309,4.7249,4.7249,4.695,4.619,4.5544,4.4586,4.326,4.1522,3.9735,3.7952,3.7979,3.7979,3.7924,3.6696,3.6172,3.6101,3.4278,3.3468,3.3449,3.2878,3.2629,3.2593,3.2593,3.2593,3.2593,3.2593,3.2593,3.2234,0.0,0.0,0.0,0.0,0.0,0.0,0.0,0.0,0.0,0.0,0.0,0.0,0.0,0.0,0.0,0.0,0.0,0.0,0.0,0.0,0.0,0.0,0.0,0.0,0.0,0.0,0.0,0.0,0.0,5.0359,5.0994,5.1528,5.2247,0.0,5.2915,5.3855,5.5427,0.0,0.0,0.0,0.0,0.0,5.0903,0.0,0.0,0.0,0.0,0.0,0.0,0.0,0.0,0.0,4.6724,4.7445,4.8163,4.9891,5.1852,5.3676,5.4856,5.6592,5.8111,5.815,5.8074,5.7997,5.7997,5.6371,5.4682,5.3929,5.1107,4.8545,0.0,0.0,0.0,4.9475,5.1059,0.0,5.3812,5.3684,0.0,5.2431,0.0,5.2752,5.1073,5.0516,0.0,0.0,4.8127,4.71,4.6548,4.6561,4.6022,4.4855,4.4157,4.3449,4.2611,4.1653,4.0465,3.9007,3.9513,3.9484,3.8977,3.7356,3.7057,3.766,3.549,3.4541,3.4554,3.3927,3.3227,3.2593,3.2593,3.2593,3.2593,3.2593,3.2282,3.1708,0.0,0.0,0.0,0.0,0.0,0.0,0.0,0.0,0.0,0.0,0.0,0.0,0.0,0.0,0.0,0.0,0.0,0.0,0.0,0.0,0.0,0.0,0.0,0.0,0.0,0.0,0.0,0.0,0.0,0.0,0.0,4.3552,4.4464,4.5736,4.5642,4.709,4.9487,0.0,0.0,0.0,0.0,0.0,0.0,0.0,0.0,0.0,0.0,0.0,0.0,0.0,0.0,4.7935,4.9072,4.9746,5.0454,5.1954,0.0,5.4857,5.5638,5.6763,5.7616,5.7375,5.7157,5.674,5.5776,5.4313,5.2755,5.1341,4.8838,0.0,4.638,0.0,0.0,0.0,0.0,0.0,5.4853,5.4525,5.4011,0.0,5.3765,0.0,5.2004,5.1403,5.0951,0.0,4.8523,4.701,4.6309,4.6279,4.5723,4.4347,4.3958,4.318,4.1991,4.0995,4.0157,3.9373,3.9798,3.9768,3.9343,3.7794,3.7388,3.7849,0.0,3.5166,3.5204,3.479,3.4341,3.3871,3.3871,3.3871,3.3871,3.3871,3.347,3.2777,0.0,0.0,0.0,0.0,0.0,0.0,0.0,0.0,0.0,0.0,3.3799,0.0,0.0,0.0,0.0,0.0,0.0,0.0,0.0,0.0,0.0,0.0,0.0,0.0,0.0,0.0,0.0,0.0,0.0,0.0,0.0,0.0,0.0,0.0,0.0,0.0,0.0,0.0,0.0,0.0,0.0,0.0,0.0,0.0,0.0,0.0,0.0,0.0,0.0,0.0,5.0161,5.0381,5.1169,5.2035,5.2919,5.3791,5.4751,5.5685,5.6487,5.6473,5.6325,5.6325,5.5946,5.5008,5.2892,5.1653,5.0389,4.8194,0.0,4.5568,4.5568,4.7293,4.8815,4.9086,0.0,5.389,5.5513,5.46,5.412,5.492,5.4014,5.3114,5.2649,5.2009,5.1577,5.1481,4.9006,4.7256,4.6592,4.6471,4.5736,4.4327,4.4297,4.3361,4.1526,4.0203,3.9631,3.9737,3.9427,3.9326,3.9409,3.7918,3.7285,3.7225,0.0,0.0,3.5519,3.5519,3.5519,3.5519,3.5519,3.5519,3.5519,3.5519,3.507,3.4414,0.0,0.0,0.0,0.0,0.0,0.0,0.0,0.0,0.0,0.0,3.1406,3.3485,0.0,0.0,0.0,0.0,0.0,0.0,0.0,0.0,0.0,0.0,0.0,0.0,0.0,0.0,0.0,0.0,0.0,0.0,0.0,0.0,0.0,0.0,0.0,0.0,0.0,0.0,0.0,0.0,0.0,0.0,0.0,0.0,0.0,0.0,0.0,0.0,0.0,0.0,5.3004,5.3702,5.4509,5.4478,5.429,5.5112,5.508,5.4732,5.4901,5.5347,5.5821,5.5821,5.5304,5.4363,5.275,5.0838,0.0,0.0,4.5809,4.4818,4.4818,4.6075,4.7767,4.9593,0.0,0.0,0.0,0.0,5.5173,0.0,0.0,0.0,0.0,0.0,0.0,0.0,0.0,4.8643,4.7985,4.7378,4.6139,4.4215,4.412,4.3392,4.1907,4.095,4.0826,4.1528,3.9551,3.8962,3.9588,3.7567,3.6656,3.6596,3.5848,0.0,3.5519,3.5519,3.5519,3.5519,3.5519,3.5519,3.5519,3.5519,3.507,3.4414,0.0,0.0,0.0,0.0,0.0,0.0,0.0,2.9118,2.8574,2.8524,3.056,3.2105,3.2401,3.1834,3.1701,0.0,0.0,0.0,0.0,0.0,0.0,0.0,0.0,0.0,0.0,0.0,0.0,0.0,0.0,0.0,0.0,0.0,0.0,0.0,0.0,0.0,0.0,0.0,0.0,0.0,0.0,0.0,0.0,0.0,0.0,0.0,0.0,0.0,0.0,0.0,5.1129,5.2614,5.4976,5.5474,5.5166,5.5131,5.4555,5.3946,5.3805,5.3751,5.3705,5.3705,5.319,5.2049,4.9976,0.0,0.0,0.0,4.3905,4.3504,4.391,4.55,0.0,4.8206,5.027,0.0,0.0,0.0,0.0,0.0,0.0,0.0,0.0,0.0,0.0,0.0,0.0,4.9132,4.781,4.6713,4.5464,4.4058,4.3708,4.3196,4.2525,4.175,4.1593,4.1981,4.044,3.9701,3.967,3.7883,3.7044,3.7046,3.6344,0.0,3.6662,3.6228,3.607,3.6038,3.5651,3.5519,3.5519,3.5519,3.507,3.4414,0.0,0.0,0.0,0.0,0.0,0.0,0.0,2.9548,2.9402,2.9264,3.0407,3.128,3.1408,3.1339,3.1354,0.0,0.0,0.0,0.0,0.0,0.0,0.0,0.0,0.0,0.0,0.0,0.0,0.0,0.0,0.0,0.0,0.0,0.0,0.0,0.0,0.0,0.0,0.0,0.0,0.0,0.0,0.0,0.0,0.0,0.0,0.0,0.0,0.0,0.0,0.0,4.801,4.9699,5.2687,5.42,5.4685,5.3875,5.3311,5.288,5.2673,5.2117,5.1561,5.1561,5.1051,4.9819,4.7074,4.5929,0.0,0.0,4.2049,4.2354,4.3206,4.4857,4.621,0.0,4.8748,5.0913,0.0,0.0,0.0,0.0,0.0,0.0,0.0,0.0,0.0,0.0,0.0,0.0,4.7675,4.6407,4.537,4.4625,4.3945,4.3492,4.333,4.2622,4.2395,4.2519,4.1467,4.0674,4.0195,3.8623,3.7904,3.7842,3.7155,0.0,0.0,3.7114,3.6843,3.6783,3.6227,3.6005,3.6005,3.6005,3.5549,3.4881,0.0,0.0,0.0,0.0,0.0,0.0,0.0,2.8774,2.88,3.0281,3.0583,3.105,3.2012,3.17,3.1221,0.0,0.0,0.0,0.0,0.0,0.0,0.0,0.0,0.0,0.0,0.0,0.0,0.0,0.0,0.0,0.0,0.0,0.0,0.0,0.0,0.0,0.0,0.0,0.0,0.0,0.0,0.0,0.0,0.0,0.0,0.0,0.0,0.0,0.0,0.0,0.0,4.6009,4.6404,4.8916,5.1568,5.0752,0.0,0.0,5.1008,5.0782,5.055,5.055,5.0184,4.902,4.6058,0.0,0.0,4.1779,4.1305,4.1745,4.3139,4.3578,4.4384,0.0,0.0,4.8173,0.0,0.0,0.0,0.0,0.0,0.0,0.0,0.0,0.0,0.0,0.0,0.0,4.8837,4.8063,4.7289,4.6578,4.5808,4.513,4.4456,4.3625,4.3591,4.4321,4.2083,4.1391,4.1989,3.9785,3.8786,3.8722,3.8022,0.0,0.0,3.7735,3.7706,3.7706,3.7618,3.7589,3.7589,3.7589,3.7144,3.6384,0.0,0.0,0.0,0.0,0.0,0.0,2.9214,2.9523,2.9854,3.0532,3.1185,3.1863,3.2641,3.2541,3.219,3.1612,0.0,0.0,0.0,0.0,0.0,0.0,0.0,0.0,0.0,0.0,0.0,2.3789,0.0,0.0,0.0,0.0,0.0,0.0,0.0,0.0,0.0,0.0,0.0,0.0,0.0,0.0,0.0,0.0,0.0,0.0,0.0,0.0,0.0,0.0,0.0,0.0,4.1437,4.3463,0.0,0.0,4.9218,4.9892,5.0611,5.0603,5.0397,5.0397,4.8552,4.649,4.544,0.0,4.23,4.1396,4.1204,4.1508,4.2557,4.3098,4.368,0.0,0.0,0.0,0.0,0.0,0.0,0.0,0.0,0.0,0.0,0.0,0.0,0.0,0.0,0.0,4.8308,4.7631,4.6684,4.5529,4.5162,4.4919,4.4615,4.427,4.427,4.4553,4.3151,4.2406,4.2224,4.0459,3.9601,3.9569,3.8823,0.0,0.0,3.8663,3.8469,3.8414,3.7962,3.7793,3.7793,3.7793,3.7601,3.7185,0.0,0.0,0.0,0.0,0.0,2.6918,2.8526,2.953,3.0281,3.0783,3.1512,3.2315,3.3219,3.3212,3.2968,3.2742,3.1712,0.0,0.0,0.0,0.0,0.0,0.0,0.0,0.0,0.0,2.3919,2.3736,2.3774,2.3926,0.0,0.0,0.0,0.0,0.0,0.0,0.0,0.0,0.0,0.0,0.0,0.0,0.0,0.0,0.0,0.0,0.0,0.0,0.0,0.0,0.0,0.0,0.0,0.0,0.0,0.0,4.7167,4.8519,4.9786,5.0115,5.0064,4.9946,4.7536,4.5106,0.0,0.0,4.1115,4.091,4.1073,4.1508,4.2455,4.3064,4.3477,0.0,0.0,4.5703,4.665,0.0,0.0,0.0,0.0,0.0,0.0,0.0,0.0,0.0,0.0,0.0,0.0,4.6549,4.5771,4.4925,4.4716,4.4615,4.4615,4.435,4.4248,4.4215,4.3436,4.2818,4.2271,4.1012,4.0419,4.0352,0.0,0.0,0.0,3.9506,3.9262,3.9209,3.8695,3.8502,3.8502,3.8502,3.8344,3.7986,0.0,0.0,0.0,0.0,0.0,0.0,2.7171,2.8257,2.949,3.116,3.1386,3.2039,3.3696,3.3395,3.3294,3.3847,3.2842,0.0,0.0,0.0,0.0,0.0,0.0,0.0,0.0,0.0,2.4098,2.3516,2.2793,2.2811,2.3547,2.4615,2.5829,0.0,0.0,0.0,0.0,0.0,0.0,0.0,0.0,0.0,0.0,0.0,0.0,0.0,0.0,0.0,0.0,0.0,0.0,0.0,0.0,3.7205,0.0,0.0,4.4278,4.675,4.823,4.8975,4.9235,4.8898,4.7536,4.561,0.0,0.0,4.0974,4.0276,4.0662,4.1644,4.3105,4.3375,4.3673,4.4479,0.0,0.0,4.6583,0.0,0.0,0.0,0.0,0.0,0.0,0.0,0.0,0.0,0.0,0.0,0.0,4.5026,4.4925,4.5669,4.4959,4.4615,4.4615,4.3809,4.3409,4.3375,4.2658,4.2286,4.2286,4.1542,4.1178,0.0,0.0,0.0,0.0,4.0113,4.0087,4.0087,4.0087,4.0087,4.0087,4.0087,3.9614,3.8879,0.0,0.0,0.0,0.0,0.0,0.0,0.0,2.7906,2.908,3.1129,3.1386,3.2039,3.3721,3.3746,3.3847,3.4399,3.3093,0.0,0.0,0.0,0.0,0.0,0.0,0.0,0.0,0.0,2.5267,2.3484,2.3552,2.3243,2.2587,2.4323,2.5681,2.6817,0.0,0.0,0.0,0.0,0.0,0.0,0.0,0.0,0.0,0.0,0.0,0.0,0.0,0.0,0.0,0.0,0.0,0.0,0.0,0.0,0.0,3.8742,4.0892,4.323,4.5236,4.5764,4.5716,4.5619,4.3973,4.2056,4.0808,0.0,3.9012,3.9921,4.031,4.1076,4.3023,4.3375,4.3673,4.4479,4.4615,0.0,0.0,0.0,0.0,0.0,0.0,0.0,0.0,0.0,0.0,0.0,0.0,0.0,0.0,4.4215,4.4147,4.4925,4.4181,4.4045,4.4615,4.3809,4.3375,4.3375,4.2658,4.2286,4.2252,4.1542,0.0,0.0,0.0,0.0,0.0,4.0113,4.0113,4.0113,4.0113,4.0113,4.0113,4.0113,3.9943,3.9571,0.0,0.0,0.0,0.0,0.0,0.0,0.0,2.7352,2.8675,3.0221,3.0991,3.1938,3.342,3.3771,3.4123,3.4675,3.4158,0.0,0.0,0.0,0.0,0.0,0.0,0.0,0.0,2.7268,2.6104,2.3982,2.3561,2.3082,2.2547,2.3749,2.5169,2.6773,2.9415,0.0,0.0,0.0,0.0,0.0,0.0,0.0,3.8691,0.0,0.0,0.0,0.0,0.0,0.0,0.0,0.0,0.0,0.0,0.0,0.0,0.0,3.8091,3.9692,4.2805,4.375,4.3873,4.4029,4.2449,4.0661,0.0,0.0,3.8464,3.9823,4.0337,4.1003,4.2679,4.3206,4.3572,4.4079,4.4412,0.0,0.0,0.0,0.0,0.0,0.0,0.0,0.0,0.0,0.0,0.0,0.0,0.0,0.0,4.3132,4.2929,4.3735,4.3234,4.3234,4.3735,4.2963,4.2564,4.2557,4.1813,4.1467,4.1467,4.0967,0.0,0.0,0.0,0.0,0.0,4.0113,4.0113,4.0113,4.0113,4.0113,4.0079,3.9808,3.9673,3.9469,0.0,0.0,0.0,0.0,0.0,0.0,0.0,2.6562,2.8113,2.8797,3.0319,3.173,3.2893,3.3545,3.4123,3.4675,0.0,0.0,0.0,0.0,0.0,0.0,0.0,0.0,2.9441,2.8326,2.6781,2.4857,2.3028,2.2474,2.3043,2.3066,2.4459,2.704,2.9939,3.2137,0.0,0.0,0.0,0.0,3.6267,3.6959,0.0,0.0,0.0,0.0,0.0,0.0,0.0,0.0,0.0,0.0,0.0,0.0,0.0,0.0,0.0,0.0,0.0,4.2366,4.3008,4.3551,4.227,4.0859,4.0577,0.0,0.0,3.9952,4.0635,4.1388,4.2219,4.2895,4.3341,4.3443,4.4045,0.0,0.0,0.0,0.0,0.0,0.0,0.0,0.0,0.0,0.0,0.0,0.0,0.0,0.0,4.1982,4.1508,4.2117,4.2117,4.2185,4.2286,4.1576,4.1204,4.1204,4.0451,4.0113,4.0113,4.0113,0.0,0.0,0.0,0.0,0.0,4.0113,4.0113,4.0113,4.0113,4.0113,4.0011,3.9276,3.9005,3.8768,0.0,0.0,0.0,0.0,0.0,0.0,0.0,0.0,0.0,0.0,2.9635,3.0741,3.2256,3.3294,3.4123,0.0,0.0,0.0,0.0,0.0,0.0,0.0,0.0,0.0,2.9887,2.9581,2.809,2.5253,2.3725,2.2477,2.1631,2.229,2.387,2.6238,2.9886,3.3073,0.0,0.0,0.0,0.0,3.6596,3.7876,0.0,0.0,0.0,0.0,3.9059,3.8645,0.0,0.0,0.0,0.0,0.0,0.0,0.0,0.0,3.6965,3.6569,3.7623,0.0,3.8371,3.9111,3.9326,3.9198,0.0,0.0,0.0,0.0,0.0,4.0927,4.2787,4.2828,4.2929,4.4113,4.3944,4.4147,4.55,0.0,0.0,0.0,0.0,0.0,0.0,0.0,0.0,0.0,0.0,0.0,0.0,4.1711,4.1035,4.062,4.062,4.1162,4.2286,4.1576,4.1204,4.1204,4.0451,4.0113,4.0113,4.0113,0.0,0.0,0.0,0.0,4.0113,4.0113,4.0113,4.0113,4.0113,4.0113,4.0011,3.9276,3.9005,3.8768,0.0,0.0,0.0,0.0,0.0,0.0,0.0,0.0,0.0,0.0,0.0,2.9939,3.1313,3.2692,0.0,0.0,0.0,0.0,0.0,0.0,0.0,0.0,0.0,3.1834,3.0951,3.0323,2.9138,2.7383,2.4576,2.2883,2.2347,2.2457,2.3443,2.5352,2.993,3.3587,0.0,0.0,0.0,3.7345,3.6746,0.0,0.0,0.0,0.0,0.0,3.946,3.9088,0.0,3.8854,3.8859,3.8859,0.0,0.0,0.0,0.0,3.7761,3.7144,3.7144,3.6878,3.675,3.7494,3.8231,3.8779,3.8771,0.0,0.0,0.0,0.0,4.0481,4.1692,4.2117,4.2557,4.343,4.4045,0.0,0.0,0.0,0.0,0.0,0.0,0.0,0.0,0.0,0.0,0.0,0.0,0.0,0.0,4.1102,4.0493,4.0113,4.0113,4.0485,4.1297,4.0865,4.0696,4.0696,4.0282,4.0113,4.0113,4.0113,4.0113,0.0,0.0,0.0,4.0113,4.0113,4.0113,4.0079,3.974,3.9605,3.9469,3.8386,3.8014,3.7821,0.0,0.0,0.0,0.0,0.0,0.0,0.0,0.0,0.0,0.0,0.0,0.0,0.0,0.0,0.0,0.0,0.0,0.0,0.0,0.0,0.0,0.0,0.0,3.2518,3.2421,3.0858,2.9908,2.9686,2.5574,2.3606,2.3667,2.3166,2.3826,2.5604,3.0348,3.3805,0.0,0.0,3.6297,3.7494,3.6824,0.0,0.0,0.0,0.0,0.0,0.0,0.0,0.0,3.9876,4.0113,4.0113,4.0113,0.0,0.0,0.0,0.0,0.0,3.8123,3.7685,3.7286,3.7717,3.8391,3.9137,3.9808,0.0,0.0,0.0,0.0,0.0,0.0,4.1508,0.0,0.0,0.0,0.0,0.0,0.0,0.0,0.0,0.0,0.0,0.0,0.0,0.0,0.0,0.0,4.1847,0.0,4.0519,4.0113,4.0113,4.0113,4.0113,4.0113,4.0113,4.0113,4.0113,4.0113,4.0113,4.0113,4.0113,4.0113,0.0,0.0,0.0,4.0113,4.0113,4.0045,3.9876,3.9242,3.8937,3.8667,3.7303,3.6795,3.666,0.0,0.0,0.0,0.0,0.0,0.0,0.0,0.0,0.0,0.0,0.0,0.0,0.0,0.0,0.0,0.0,0.0,0.0,0.0,0.0,0.0,3.9173,3.6076,3.422,3.399,3.1368,2.9908,2.9686,2.6597,2.4449,2.3321,2.4451,2.6719,2.992,3.2022,3.4109,3.597,3.5633,3.6567,3.8162,3.7021,0.0,0.0,0.0,0.0,0.0,0.0,0.0,0.0,4.0062,4.0113,4.0113,4.0113,0.0,0.0,0.0,0.0,0.0,3.956,4.0035,4.0035,3.8943,3.9285,3.9919,4.005,0.0,0.0,0.0,0.0,0.0,0.0,4.2557,4.2929,0.0,0.0,0.0,0.0,0.0,0.0,0.0,0.0,0.0,0.0,0.0,0.0,0.0,0.0,0.0,4.1204,4.0519,4.0113,4.0113,4.0113,4.0113,4.0113,4.0113,4.0113,4.0113,4.0113,4.0113,4.0113,4.0113,4.0113,0.0,0.0,4.0113,4.0113,4.0113,3.974,3.914,3.9039,3.8633,3.799,3.711,3.6795,3.6592,0.0,0.0,0.0,0.0,0.0,0.0,0.0,0.0,0.0,0.0,0.0,0.0,0.0,0.0,0.0,0.0,0.0,0.0,0.0,0.0,0.0,4.1175,3.8797,3.6768,3.5414,3.3371,3.2277,3.2216,2.8838,2.6823,2.6155,2.5613,2.6559,2.8633,3.0289,3.2016,3.3836,3.4421,3.6403,3.9005,0.0,0.0,0.0,0.0,0.0,0.0,0.0,0.0,0.0,0.0,4.0113,4.0113,4.0113,0.0,0.0,0.0,0.0,0.0,4.0019,4.0585,4.1054,4.0815,4.1587,4.2448,0.0,0.0,0.0,0.0,0.0,0.0,0.0,0.0,4.468,4.6573,0.0,0.0,0.0,0.0,0.0,0.0,0.0,0.0,0.0,0.0,0.0,0.0,0.0,0.0,4.0629,4.0282,4.0113,4.0113,4.0113,4.0113,4.0113,4.0113,4.0113,4.0113,4.0113,4.0113,4.0113,4.0113,4.0113,4.0113,0.0,4.0113,4.0113,4.0113,3.991,3.9537,3.8734,3.8193,3.7753,3.6569,3.6163,3.6062,0.0,0.0,0.0,0.0,0.0,0.0,0.0,0.0,0.0,0.0,0.0,0.0,0.0,0.0,0.0,0.0,0.0,0.0,0.0,0.0,4.0363,4.1516,4.0813,3.9434,3.7353,3.5396,3.4474,3.4631,3.1124,2.926,2.9005,2.6637,2.6072,2.7087,2.8761,3.0351,3.1832,3.3508,3.6089,3.9039,0.0,0.0,0.0,0.0,0.0,0.0,0.0,0.0,0.0,0.0,0.0,0.0,0.0,0.0,0.0,4.0113,4.0113,4.0146,4.0316,4.0994,4.1844,4.2592,4.3233,0.0,0.0,0.0,0.0,0.0,0.0,0.0,0.0,4.6147,0.0,0.0,0.0,0.0,0.0,0.0,0.0,0.0,0.0,0.0,0.0,0.0,0.0,0.0,0.0,0.0,4.0146,4.0113,4.0113,4.0113,4.0113,4.0113,4.0113,4.0113,4.0113,4.0113,4.0113,4.0113,4.0113,4.0113,4.0113,4.0113,4.0113,4.0113,4.0113,4.0113,4.0011,3.9706,3.8396,3.7686,3.7246,3.6039,3.56,3.56,0.0,0.0,0.0,0.0,0.0,0.0,0.0,0.0,0.0,0.0,0.0,0.0,0.0,0.0,0.0,0.0,0.0,0.0,0.0,0.0,3.9721,3.9093,4.1085,4.1597,4.0335,3.6558,3.4886,3.5424,3.2808,3.1048,3.0141,2.7327,2.6731,2.798,2.9716,3.0772,3.1422,3.3789,3.5754,3.7295,3.8434,0.0,0.0,0.0,0.0,0.0,0.0,0.0,0.0,0.0,0.0,0.0,0.0,0.0,4.0113,4.0113,4.0113,4.0248,4.0933,4.2048,4.3222,4.3982,4.2774,0.0,4.4975,4.4497,0.0,4.6108,0.0,0.0,0.0,4.8112,0.0,0.0,0.0,0.0,0.0,0.0,0.0,0.0,0.0,0.0,0.0,0.0,0.0,0.0,0.0,0.0,4.0113,4.0113,4.0113,4.0113,4.0113,4.0113,4.0113,4.0113,4.0113,4.0113,4.0113,4.0113,4.0113,4.0113,4.0113,4.0113,4.0113,4.0113,4.0113,4.0113,3.9706,3.9005,3.8227,3.7019,3.5735,3.5633,3.56,3.56,0.0,0.0,0.0,0.0,0.0,0.0,0.0,0.0,0.0,0.0,0.0,0.0,0.0,0.0,0.0,0.0,0.0,0.0,0.0,3.6035,3.7582,3.9341,4.0304,4.0871,4.1067,3.8574,3.7237,3.7124,3.4872,3.2724,3.0695,2.912,2.785,2.7051,2.7832,2.8671,2.9618,3.1268,3.3983,3.7278,3.8304,3.9459,0.0,0.0,0.0,0.0,0.0,0.0,0.0,0.0,4.0113,4.0113,4.0113,4.0113,4.0113,4.0113,4.0113,4.018,4.0426,4.1532,4.2746,4.3435,4.2982,0.0,0.0,4.7875,4.7805,4.9039,4.9909,0.0,0.0,0.0,0.0,0.0,0.0,0.0,0.0,0.0,0.0,0.0,0.0,0.0,0.0,0.0,0.0,0.0,0.0,0.0,0.0,4.0417,4.0431,4.0113,4.0113,4.0113,4.0113,4.0113,4.0113,4.0113,4.0113,4.0113,4.0113,4.0113,4.0113,4.0113,4.0113,4.0269,4.0601,4.0601,4.0665,4.0605,3.9031,3.7274,3.5644,3.5985,3.5876,3.5667,0.0,0.0,0.0,0.0,0.0,0.0,0.0,0.0,0.0,0.0,0.0,0.0,0.0,0.0,0.0,0.0,0.0,0.0,3.3361,3.4161,3.5548,3.7793,3.8814,3.9521,4.0081,3.8824,3.8201,3.8354,3.6109,3.377,3.1398,3.0345,2.8809,2.6859,2.744,2.8119,2.8808,3.0357,3.3035,3.6286,3.7395,3.8748,0.0,0.0,0.0,0.0,0.0,0.0,0.0,0.0,4.0113,4.0113,4.0113,4.0113,4.0113,4.0113,4.0113,4.0163,4.0328,4.117,4.23,4.3173,0.0,0.0,4.922,4.9635,4.9643,5.1286,0.0,0.0,0.0,0.0,0.0,0.0,0.0,0.0,0.0,0.0,0.0,0.0,0.0,0.0,0.0,0.0,0.0,0.0,0.0,0.0,0.0,4.099,4.092,4.0368,4.0343,4.0279,4.0113,4.0113,4.0113,4.0113,4.0279,4.0343,4.0343,4.0179,4.0179,4.0343,4.0343,4.0552,4.0886,4.1093,4.1038,4.0651,3.8968,3.7309,3.5898,3.6249,3.6165,3.5898,0.0,0.0,0.0,0.0,0.0,0.0,0.0,0.0,1.7434,1.8026,1.8446,0.0,0.0,0.0,0.0,0.0,0.0,0.0,3.0503,3.2696,3.394,3.3833,3.6593,3.7882,3.7232,3.6757,3.7263,3.8861,3.6268,3.409,3.228,3.0957,2.9372,2.7774,2.9284,2.9704,2.9352,3.1754,3.3146,3.394,3.5595,3.7066,3.8304,0.0,0.0,0.0,0.0,0.0,0.0,0.0,4.0113,4.0113,4.0113,4.0113,4.0113,4.0113,4.0113,4.0229,4.0756,4.134,4.2136,0.0,0.0,0.0,5.0031,4.9167,4.8673,5.2414,0.0,0.0,0.0,0.0,0.0,0.0,0.0,0.0,0.0,0.0,0.0,0.0,0.0,0.0,0.0,0.0,0.0,0.0,0.0,0.0,0.0,4.181,4.1516,4.0909,4.0886,4.0638,4.0104,4.0079,4.0079,4.0104,4.0614,4.0886,4.0862,4.0343,4.0392,4.0886,4.0886,4.0886,4.0932,4.1538,4.0559,3.863,3.7836,3.7053,3.6395,3.6416,3.6416,3.6395,0.0,0.0,0.0,0.0,0.0,0.0,0.0,0.0,1.716,1.7117,1.8056,0.0,0.0,0.0,0.0,0.0,0.0,0.0,2.9383,3.1419,3.3298,3.4874,3.5696,3.6621,3.7575,3.6428,3.6027,3.6528,3.5737,3.4799,3.3749,3.1686,2.9977,2.8652,2.8718,2.8733,2.8836,3.0042,3.159,3.329,3.4044,3.5331,3.6945,0.0,0.0,0.0,0.0,0.0,0.0,0.0,0.0,0.0,4.0229,4.0485,4.0764,4.0248,4.0777,4.1419,4.1012,4.207,0.0,4.3812,0.0,0.0,0.0,4.9898,0.0,0.0,0.0,0.0,0.0,0.0,0.0,0.0,0.0,0.0,0.0,0.0,0.0,0.0,0.0,0.0,0.0,0.0,0.0,0.0,0.0,0.0,0.0,4.2221,4.218,4.1538,4.0627,4.0237,4.0438,3.9679,3.944,3.9591,3.9926,4.0055,4.0055,4.0906,4.0558,3.9361,4.0885,4.1257,4.0835,4.1789,4.0907,3.897,3.8702,3.796,3.7001,3.7341,3.7248,3.7001,0.0,0.0,0.0,0.0,0.0,0.0,0.0,0.0,1.7645,1.679,1.7546,1.823,0.0,0.0,0.0,0.0,0.0,0.0,0.0,3.0724,3.2729,3.4365,3.4986,3.5903,3.7137,3.6483,3.5907,3.5526,3.5284,3.4659,3.3695,3.1951,3.0727,2.999,2.9661,2.9661,2.994,3.0424,3.129,3.2384,3.2546,3.3797,3.5688,0.0,0.0,0.0,0.0,0.0,0.0,0.0,0.0,0.0,4.0885,4.1078,4.1364,4.0905,4.1337,4.1938,4.1657,4.2715,0.0,4.4956,4.663,4.8489,5.0178,0.0,0.0,0.0,0.0,0.0,0.0,0.0,0.0,0.0,0.0,0.0,0.0,0.0,0.0,0.0,0.0,0.0,0.0,0.0,0.0,0.0,0.0,0.0,0.0,4.2356,4.2137,4.1196,4.0713,4.032,4.0135,3.9807,3.943,3.9084,3.9624,3.9792,3.9669,4.0807,4.0736,3.977,4.109,4.1515,4.1319,4.1333,4.046,3.9083,3.8741,3.8133,3.7506,3.779,3.772,3.7524,0.0,0.0,2.2903,2.2108,0.0,0.0,0.0,0.0,1.8491,1.7041,1.7042,1.7612,0.0,0.0,0.0,0.0,0.0,0.0,0.0,0.0,3.2287,3.3104,3.4656,3.5764,3.6184,3.6724,3.6538,3.5568,3.4981,3.4078,3.2839,3.1956,3.16,3.1622,3.1577,3.1661,3.1865,3.1988,3.1788,3.1291,3.1149,3.2373,3.4352,3.4879,0.0,0.0,0.0,0.0,0.0,0.0,0.0,0.0,4.181,4.1846,4.1881,4.181,4.1888,4.2107,4.2665,4.3437,4.4607,4.6689,4.8489,0.0,5.1756,5.2674,5.3167,5.3115,0.0,0.0,0.0,0.0,0.0,0.0,0.0,0.0,0.0,0.0,0.0,0.0,0.0,0.0,0.0,0.0,0.0,0.0,0.0,0.0,0.0,4.2286,4.1679,4.0312,4.0889,4.0628,3.9463,4.0055,3.9772,3.862,3.9627,3.9855,3.9471,4.0354,4.1006,4.1486,4.1286,4.1524,4.1956,4.0487,3.9581,3.8991,3.8251,3.7962,3.7962,3.7962,3.7962,3.7962,0.0,0.0,2.3582,2.3409,0.0,0.0,0.0,0.0,0.0,1.8207,0.0,0.0,0.0,0.0,0.0,0.0,0.0,0.0,0.0,0.0,3.2241,3.4163,3.6183,3.6918,3.6251,3.6322,3.6286,3.6046,3.5133,3.4538,3.4222,3.2575,3.209,3.2583,3.2066,3.1664,3.1339,3.1067,3.0884,3.0708,3.0264,3.0823,3.2082,3.3557,3.4872,0.0,0.0,0.0,0.0,0.0,0.0,0.0,4.181,4.2178,4.2568,4.1987,4.2531,4.3416,4.3576,4.4522,0.0,4.7607,4.9774,5.172,5.2711,5.3078,5.3041,5.238,0.0,0.0,0.0,0.0,0.0,0.0,0.0,0.0,0.0,0.0,0.0,0.0,0.0,0.0,0.0,0.0,0.0,0.0,0.0,0.0,4.2323,4.2286,4.1869,4.0946,4.0055,3.9659,3.979,3.9132,3.8771,0.0,3.9083,3.9117,3.8951,4.0992,4.1992,4.2006,4.031,3.9906,4.0377,4.0047,3.9449,3.8768,3.8585,3.8512,3.8512,3.8512,3.8512,3.8512,0.0,0.0,0.0,0.0,0.0,0.0,0.0,0.0,0.0,0.0,0.0,0.0,0.0,0.0,0.0,0.0,2.2576,0.0,0.0,0.0,3.2415,3.5167,3.7084,3.7827,3.725,3.725,3.6882,3.6071,3.5232,3.4807,3.4658,3.2463,3.2139,3.3329,3.2333,3.1803,3.162,3.119,3.0683,3.0206,2.9905,3.0343,3.1315,3.2217,3.367,3.5416,3.7008,0.0,0.0,0.0,0.0,0.0,0.0,0.0,4.3104,4.2727,4.3099,4.3651,4.3724,4.4784,0.0,4.8416,0.0,5.1536,5.1977,5.205,5.194,5.1499,0.0,0.0,0.0,0.0,0.0,0.0,0.0,0.0,0.0,0.0,0.0,0.0,0.0,0.0,0.0,0.0,0.0,0.0,0.0,4.258,4.1772,4.1368,4.0781,3.9958,3.9654,3.9435,3.935,3.9131,3.881,3.8316,3.8667,3.9,3.9313,4.0561,4.1368,4.1645,4.0148,3.9634,3.9863,3.946,3.9093,3.8689,3.8689,3.8689,3.8689,3.8689,3.8689,3.8689,0.0,0.0,0.0,0.0,0.0,0.0,0.0,0.0,0.0,0.0,0.0,0.0,0.0,0.0,1.7414,0.0,0.0,0.0,0.0,0.0,0.0,3.5468,3.7157,3.8072,3.8212,3.8212,3.7558,3.6157,3.5385,3.5077,3.5183,0.0,0.0,3.4091,3.2605,3.2021,3.2164,3.1436,3.0608,2.9804,2.9804,3.0292,3.097,3.1156,3.2687,3.4801,3.5093,3.704,3.9487,3.9716,0.0,0.0,0.0,0.0,4.3515,4.3515,4.3515,4.3551,4.3644,4.4966,4.6838,4.906,5.0178,0.0,5.0802,5.0802,5.0765,5.0618,0.0,0.0,0.0,0.0,0.0,0.0,0.0,0.0,0.0,0.0,0.0,0.0,0.0,0.0,0.0,0.0,0.0,0.0,0.0,4.1956,4.1132,4.0341,3.9533,3.8726,3.935,3.935,3.8726,3.935,3.9138,3.8048,3.8481,3.9056,3.968,3.968,4.012,4.0838,4.0047,3.968,3.9643,3.8982,3.8689,3.8689,3.8689,3.8689,3.8689,3.8689,3.8689,3.8689,0.0,0.0,0.0,0.0,0.0,0.0,0.0,0.0,0.0,0.0,1.9526,1.8138,0.0,0.0,0.0,1.9333,2.1566,2.3876,2.6337,0.0,0.0,3.3871,3.5468,3.6699,3.749,3.7524,3.7425,3.7198,3.57,3.5834,0.0,0.0,0.0,3.5198,0.0,0.0,3.2114,3.0633,2.993,2.9804,2.9804,2.9856,3.0062,3.0895,3.1947,3.3164,3.4669,3.6445,3.8241,3.941,4.0735,0.0,0.0,0.0,4.3515,4.3515,4.3515,4.3662,4.4342,0.0,4.8233,0.0,5.0178,5.0802,0.0,0.0,5.0618,0.0,0.0,0.0,0.0,0.0,0.0,0.0,0.0,0.0,0.0,0.0,0.0,0.0,0.0,0.0,0.0,0.0,0.0,0.0,4.2763,4.1956,4.1132,4.0341,3.9533,3.8726,3.8799,3.8799,3.8689,3.8799,3.8768,3.8596,3.8658,3.8762,3.8872,3.8872,3.9313,4.001,3.9203,3.8872,3.8836,3.8726,3.8689,3.8689,3.8689,3.8689,3.8689,3.8689,3.8689,3.8689,0.0,0.0,0.0,0.0,0.0,0.0,0.0,0.0,0.0,0.0,0.0,1.9648,0.0,0.0,0.0,1.9081,2.2019,2.5101,2.8148,3.0381,3.2219,3.355,3.4797,3.5915,3.6896,3.6896,3.6716,3.6357,3.5629,3.6251,0.0,3.6307,3.5806,0.0,0.0,0.0,0.0,3.0607,2.9804,2.9804,2.9804,2.9603,0.0,3.0126,3.0823,3.1514,3.2576,3.4175,3.5917,3.6898,3.8438,4.013,4.1223,0.0,0.0,0.0,4.3515,4.3698,4.4488,4.5461,4.6471,0.0,4.8122,4.8636,4.8159,0.0,4.8617,0.0,0.0,0.0,0.0,0.0,0.0,0.0,0.0,0.0,0.0,0.0,0.0,0.0,0.0,0.0,0.0,0.0,0.0,0.0,4.2323,4.1462,4.1132,3.99,3.8872,3.8028,3.8028,3.8028,3.8028,3.8028,3.8248,3.8689,3.8689,3.8689,3.8689,3.8689,3.8909,3.9203,3.8836,3.8689,3.8689,3.8689,3.8689,3.8689,3.8689,3.8689,3.8689,3.8689,3.8689,3.8689,0.0,0.0,0.0,0.0,0.0,0.0,0.0,0.0,0.0,0.0,0.0,0.0,0.0,0.0,0.0,0.0,2.245,2.588,2.9361,3.0354,3.1601,3.3292,3.4037,3.4969,3.6237,3.6237,3.5998,3.5519,3.5519,3.6477,3.8392,3.7585,3.7489,0.0,3.5611,0.0,0.0,0.0,0.0,0.0,0.0,2.9327,0.0,0.0,2.9714,3.0253,3.0808,3.2152,3.3777,3.4638,3.6303,3.8239,3.9687,0.0,0.0,0.0,0.0,4.3775,0.0,0.0,4.5094,4.5601,4.634,4.6782,0.0,0.0,4.6947,0.0,0.0,0.0,0.0,0.0,0.0,0.0,0.0,0.0,0.0,0.0,0.0,0.0,0.0,0.0,0.0,0.0,0.0,0.0,4.2029,4.1095,4.1095,3.9554,3.8322,3.7529,3.7713,3.7713,3.7492,3.7713,3.8102,3.8689,3.8689,3.8689,3.8689,3.8689,3.8689,3.8689,3.8689,3.8689,3.8689,3.8689,3.8689,3.8689,3.8689,3.8689,3.8689,3.8689,3.8689,3.8689,0.0,0.0,0.0,0.0,0.0,0.0,0.0,0.0,0.0,0.0,0.0,0.0,2.1123,2.0178,1.9799,2.0525,2.2597,2.5311,2.8724,2.9516,3.0684,3.2577,3.272,0.0,3.5517,3.5549,3.5549,3.5519,3.5519,0.0,3.8392,3.8357,3.9002,4.0115,3.743,3.4974,3.2777,0.0,0.0,0.0,2.9364,2.8913,0.0,0.0,0.0,0.0,0.0,0.0,3.2436,3.3807,3.5257,0.0,0.0,3.9423,4.0655,0.0,0.0,0.0,0.0,4.5173,0.0,4.5311,4.5834,0.0,0.0,0.0,0.0,0.0,0.0,0.0,0.0,0.0,0.0,0.0,0.0,0.0,0.0,0.0,0.0,0.0,0.0,0.0,0.0,0.0,0.0,0.0,4.2029,4.1095,4.1095,3.9554,3.8322,3.7529,3.8248,3.8285,3.7492,3.8248,3.8652,3.8689,3.8689,3.8689,3.8689,3.8689,3.8689,3.8689,3.8689,3.8689,3.8689,3.8689,3.8689,3.8689,3.8689,3.8689,3.8689,3.8689,3.8689,3.8689,0.0,0.0,0.0,0.0,0.0,0.0,0.0,0.0,0.0,0.0,0.0,0.0,0.0,2.1632,2.1511,2.0743,2.3411,2.6331,2.9299,2.9679,3.0343,3.1646,3.2272,3.322,3.4509,3.5166,3.5519,0.0,0.0,3.6267,3.7764,3.7764,3.8003,3.8411,3.73,3.609,3.4706,3.2482,0.0,0.0,2.9454,2.8687,2.8373,0.0,0.0,0.0,0.0,0.0,0.0,0.0,0.0,0.0,0.0,3.8154,3.9895,4.1765,4.2744,0.0,0.0,0.0,0.0,4.4148,4.5007,4.5871,4.5359,4.566,4.6064,0.0,0.0,0.0,0.0,0.0,0.0,0.0,0.0,0.0,0.0,0.0,0.0,0.0,0.0,0.0,0.0,0.0,0.0,0.0,0.0,4.1095,4.1095,3.9554,3.8102,3.6795,3.7514,3.7786,3.7492,3.8285,3.8689,3.8689,3.8689,3.8689,3.8689,3.8689,3.8689,3.8689,3.8689,3.8689,3.8689,3.8689,3.8689,3.8689,3.8689,3.8689,3.8689,3.8689,3.8358,3.7933,0.0,0.0,0.0,2.8269,0.0,2.49,2.446,2.3647,2.3101,2.3101,0.0,0.0,0.0,0.0,2.2732,2.1864,2.4279,2.6718,2.8811,2.9485,3.0343,3.1609,3.2272,3.322,3.4476,0.0,0.0,0.0,0.0,0.0,0.0,3.7105,3.7225,3.737,3.6987,3.6387,0.0,0.0,0.0,3.1329,0.0,2.8662,2.8373,0.0,0.0,0.0,0.0,0.0,0.0,0.0,0.0,0.0,0.0,3.6838,3.9193,4.0889,0.0,0.0,4.2585,0.0,0.0,0.0,4.4449,4.5433,4.4889,0.0,4.5609,0.0,0.0,0.0,0.0,0.0,0.0,0.0,0.0,0.0,0.0,0.0,0.0,0.0,0.0,0.0,0.0,0.0,0.0,0.0,0.0,0.0,4.1095,3.9554,3.8102,3.6758,3.667,3.6927,3.7492,3.7771,3.8175,3.8689,3.8432,3.8432,3.8689,3.8689,3.8689,3.8689,3.8689,3.8689,3.8689,3.8689,3.8689,3.8689,3.8689,3.8689,3.8689,3.8689,3.8175,3.7492,3.2298,3.2122,3.1158,2.8181,2.6915,2.5879,2.4618,2.3666,2.312,2.312,0.0,0.0,0.0,0.0,0.0,2.3971,2.512,2.6262,2.7245,2.8889,3.0646,3.2486,3.2593,3.3498,3.5392,0.0,0.0,0.0,0.0,0.0,0.0,0.0,3.6776,3.7315,3.6716,3.5912,3.4887,0.0,3.2962,3.183,0.0,2.8888,2.8838,0.0,0.0,0.0,2.8687,2.8537,0.0,2.9116,0.0,0.0,0.0,3.5532,3.8463,3.9309,0.0,0.0,0.0,0.0,0.0,0.0,0.0,0.0,4.5088,0.0,4.5211,0.0,0.0,0.0,0.0,0.0,0.0,0.0,0.0,0.0,0.0,0.0,0.0,0.0,0.0,0.0,0.0,0.0,0.0,0.0,4.2029,4.1095,4.1095,3.9533,3.8285,3.7529,3.5848,3.5775,3.7456,3.6707,3.711,3.8615,3.7896,3.7933,3.8689,3.8689,3.8689,3.8689,3.8689,3.8689,3.8689,3.8689,3.8689,3.8689,3.8689,3.8689,3.8689,3.8689,3.8175,3.7456,3.3375,3.2689,3.1386,2.9277,2.7721,2.633,2.5071,2.416,2.3613,0.0,0.0,0.0,0.0,0.0,2.364,2.4887,2.5819,2.6748,2.779,2.9732,3.1044,3.1573,3.2876,3.3842,3.438,0.0,0.0,0.0,0.0,0.0,0.0,0.0,0.0,0.0,3.5848,3.5594,3.5233,3.3579,0.0,0.0,2.9854,2.8888,0.0,0.0,0.0,0.0,0.0,2.8499,2.8699,0.0,3.0331,3.2326,0.0,0.0,0.0,0.0,0.0,0.0,4.0206,0.0,0.0,0.0,0.0,0.0,4.4489,4.5025,4.5475,0.0,0.0,0.0,0.0,0.0,0.0,0.0,0.0,0.0,0.0,0.0,0.0,0.0,0.0,0.0,0.0,0.0,0.0,0.0,4.2029,4.1095,4.1095,3.8469,3.711,3.7492,3.5848,3.5518,3.6597,3.6978,3.7125,3.6964,3.7918,3.8175,3.786,3.8432,3.8689,3.8689,3.8689,3.8689,3.8689,3.8689,3.8358,3.7896,3.8469,3.8322,3.7896,3.8505,3.7808,3.6633,3.3395,3.2995,3.203,3.0419,2.9173,2.7869,2.6119,2.528,2.4656,0.0,0.0,0.0,0.0,0.0,0.0,2.4358,2.5719,2.6771,2.74,2.9821,3.1352,3.1792,3.3192,3.4211,3.461,0.0,0.0,0.0,0.0,0.0,0.0,0.0,0.0,0.0,3.5519,3.534,0.0,0.0,0.0,0.0,3.0603,0.0,0.0,2.8925,2.88,0.0,0.0,0.0,2.9252,2.8963,3.045,0.0,0.0,0.0,0.0,0.0,0.0,0.0,0.0,0.0,0.0,0.0,0.0,0.0,4.3579,4.4102,4.4662,0.0,0.0,0.0,0.0,0.0,0.0,0.0,0.0,0.0,0.0,0.0,0.0,0.0,0.0,0.0,0.0,4.4011,4.3864,4.3551,4.2323,4.1332,4.0634,3.8175,3.6868,3.7015,3.5701,3.5261,3.5752,3.5899,3.6046,3.6303,3.7257,3.7624,3.7529,3.8322,3.8689,3.8689,3.8358,3.8212,3.8175,3.7845,3.7624,3.7566,3.8028,3.7713,3.7052,3.7514,3.711,3.6303,0.0,3.3111,3.2698,3.14,3.0886,2.9901,2.761,2.6865,2.6142,0.0,2.4565,0.0,0.0,0.0,0.0,0.0,2.5126,2.6359,2.6483,2.9333,3.1473,3.2558,3.3498,3.4476,3.5457,3.5519,0.0,0.0,0.0,0.0,0.0,0.0,0.0,0.0,3.54,3.5011,0.0,0.0,0.0,3.2581,3.1612,3.0756,0.0,0.0,2.9895,2.9804,2.9804,2.9804,2.9704,2.924,3.0183,0.0,0.0,0.0,0.0,0.0,3.6161,0.0,0.0,0.0,0.0,0.0,0.0,0.0,4.2418,4.2756,4.3252,4.4008,0.0,0.0,0.0,0.0,0.0,0.0,0.0,0.0,0.0,0.0,0.0,0.0,0.0,0.0,4.4782,4.4691,4.4378,4.3534,4.2653,4.1515,3.9974,3.8374,3.7125,3.634,3.5555,3.5041,3.4857,3.4344,3.4724,3.6009,3.6303,3.6758,3.7419,3.8285,3.8652,3.8542,3.7823,3.7456,3.7309,3.6597,3.6684,3.7235,3.7345,3.6868,3.6156,3.6266,3.6303,3.6303,3.2943,3.3111,3.2698,3.14,3.1128,3.0754,2.9706,2.8832,2.8005,2.7175,2.5504,0.0,0.0,0.0,0.0,0.0,2.4751,2.5504,2.6442,2.8582,3.0652,3.2522,3.3498,3.4476,3.5457,3.5519,3.5519,3.5519,0.0,0.0,0.0,0.0,0.0,0.0,3.4713,3.4292,0.0,0.0,0.0,3.2924,3.191,0.0,3.0932,3.0932,3.0457,2.9804,2.9804,2.9804,2.9819,3.0036,3.0135,3.0395,0.0,0.0,0.0,0.0,0.0,0.0,0.0,0.0,0.0,0.0,0.0,0.0,4.132,4.2163,4.2833,0.0,0.0,0.0,0.0,0.0,0.0,0.0,0.0,0.0,0.0,0.0,0.0,0.0,0.0,0.0,4.4891,4.4691,4.4378,4.3534,4.2139,4.0928,3.9937,3.8374,3.7125,3.634,3.6156,3.5385,3.4064,3.5202,3.5312,3.4321,3.6317,3.7015,3.656,3.8028,3.8358,3.7749,3.7566,3.7125,3.6523,3.634,3.5973,3.5555,3.6266,3.6009,3.5334,3.6046,3.6303,3.6193,3.296,3.3111,3.2896,3.2239,3.2152,3.1829,3.0833,3.0303,2.9669,2.8661,2.7066,0.0,0.0,0.0,0.0,0.0,0.0,0.0,0.0,2.8385,3.0239,3.1838,3.3227,3.4245,3.4739,3.5231,3.5519,3.5519,0.0,0.0,0.0,0.0,0.0,0.0,0.0,0.0,0.0,0.0,3.3119,3.3238,3.2611,0.0,3.1901,3.1901,3.1609,3.1145,3.0658,2.9974,2.9353,2.9266,2.9935,0.0,0.0,3.199,3.3494,0.0,3.3598,3.417,0.0,0.0,0.0,3.6202,0.0,0.0,0.0,3.9302,4.0321,4.1159,0.0,0.0,0.0,0.0,0.0,0.0,0.0,0.0,0.0,0.0,0.0,0.0,0.0,0.0,4.5769,4.5401,4.4819,4.3571,4.2029,4.0912,4.0524,3.8982,3.7734,3.6942,3.6486,3.5679,3.4417,3.4835,3.4614,3.3807,3.5459,3.6266,3.634,3.7551,3.7896,3.7492,3.7088,3.6413,3.5628,3.5238,3.4798,3.4491,3.5298,3.5151,3.4454,3.4908,3.5569,3.6193,3.2566,3.296,3.3061,3.2792,3.2943,3.2742,3.1733,3.1601,3.1134,2.9897,0.0,0.0,0.0,0.0,0.0,0.0,0.0,0.0,0.0,0.0,2.9591,3.113,3.2806,3.3808,3.3979,3.5001,3.5519,3.5519,0.0,0.0,0.0,0.0,0.0,0.0,0.0,0.0,0.0,0.0,0.0,3.3662,0.0,3.3163,3.2876,3.273,3.2569,3.2294,3.1424,3.0116,2.8782,2.8671,2.99,3.1265,3.0002,3.1715,0.0,0.0,0.0,0.0,0.0,0.0,0.0,0.0,0.0,3.6031,0.0,0.0,0.0,0.0,0.0,0.0,0.0,0.0,0.0,0.0,0.0,0.0,0.0,0.0,0.0,0.0,0.0,0.0,0.0,4.5853,4.4892,4.3625,4.2029,4.1095,4.1095,3.9554,3.8322,3.7529,3.7015,3.6266,3.5261,3.4614,3.4211,3.4027,3.4857,3.5628,3.634,3.7309,3.7566,3.7235,3.6574,3.5716,3.4711,3.4064,3.3807,3.3844,3.4527,3.4454,3.4027,3.4027,3.4981,3.6193,3.1562,3.2432,3.2767,3.1763,3.2416,3.3068,3.2896,3.2896,0.0,0.0,0.0,0.0,0.0,0.0,0.0,0.0,0.0,0.0,2.6877,0.0,0.0,3.1055,3.22,3.3122,3.3979,3.5001,3.5519,3.5519,3.5519,0.0,0.0,0.0,0.0,0.0,3.2976,0.0,0.0,0.0,3.3215,0.0,3.4347,3.4123,0.0,3.3269,3.2501,3.1633,3.0911,2.9759,2.8749,0.0,3.0361,3.0392,0.0,3.2275,3.2826,0.0,0.0,0.0,0.0,0.0,0.0,0.0,3.4853,0.0,0.0,0.0,3.5929,3.6238,0.0,0.0,0.0,0.0,0.0,0.0,0.0,0.0,0.0,0.0,0.0,0.0,0.0,0.0,0.0,4.4872,4.3698,4.3497,4.2029,4.1095,4.1095,3.9554,3.8322,3.7529,3.8102,3.7698,3.6156,3.6046,3.5642,3.4857,3.5752,3.6193,3.634,3.7881,3.7771,3.6413,3.634,3.5385,3.3917,3.3844,3.3807,3.3807,3.3917,3.4307,3.4857,3.4857,3.5481,3.6193,3.1738,3.224,3.2315,3.1537,3.2039,3.2566,3.2566,3.2867,0.0,0.0,0.0,0.0,0.0,0.0,0.0,0.0,0.0,2.5165,0.0,0.0,0.0,2.9319,3.0955,3.2236,3.3157,3.4143,3.4905,3.5519,3.5519,0.0,0.0,0.0,0.0,0.0,3.2796,0.0,3.2916,0.0,3.3275,0.0,0.0,0.0,0.0,3.4607,3.3665,3.2371,3.1688,3.051,2.9354,0.0,3.069,0.0,0.0,0.0,0.0,0.0,0.0,0.0,0.0,0.0,0.0,0.0,0.0,0.0,3.3319,0.0,3.3407,0.0,0.0,0.0,0.0,0.0,0.0,0.0,4.1805,0.0,0.0,0.0,0.0,0.0,0.0,0.0,0.0,0.0,0.0,0.0,4.2029,4.1095,4.1095,3.9554,3.8542,3.8212,3.8065,3.7676,3.7015,3.6523,3.6119,3.5752,3.6119,3.6523,3.7015,3.7221,3.6927,3.6266,3.5789,3.4871,3.3807,3.3807,3.3807,3.3807,3.3807,3.4284,3.4931,3.4491,3.5165,3.6119,3.1662,0.0,0.0,3.1085,3.1537,3.2039,3.219,3.2441,0.0,0.0,0.0,0.0,3.1821,3.0449,0.0,0.0,2.7436,2.6736,0.0,0.0,2.7603,0.0,0.0,0.0,3.2558,3.3533,3.4509,3.5519,3.5519,0.0,0.0,0.0,0.0,0.0,0.0,3.2706,3.3066,0.0,0.0,3.4711,3.4233,3.4532,3.522,3.5011,3.412,3.2867,3.2167,3.1082,3.0015,3.0407,3.1162,0.0,3.1326,0.0,0.0,0.0,0.0,0.0,3.3664,0.0,0.0,0.0,0.0,0.0,0.0,0.0,0.0,0.0,0.0,0.0,0.0,0.0,0.0,0.0,0.0,0.0,0.0,0.0,0.0,0.0,0.0,0.0,0.0,0.0,0.0,4.3167,4.1882,4.0985,4.0765,3.946,3.8689,3.8689,3.8138,3.7823,3.7823,3.7052,3.6523,3.6303,3.6523,3.6831,3.7162,3.6795,3.6486,3.6266,3.5371,3.4527,3.3807,3.3807,3.3807,3.3807,3.3807,3.4284,3.4968,3.4614,3.5385,3.645,3.0758,3.106,0.0,0.0,3.0708,3.1587,3.2139,0.0,0.0,0.0,0.0,0.0,0.0,0.0,0.0,0.0,0.0,2.9003,2.9461,0.0,2.9101,0.0,0.0,3.1646,0.0,3.3533,3.4509,3.5519,3.5519,0.0,0.0,0.0,0.0,0.0,0.0,3.3215,3.4444,3.4444,3.4831,3.5459,3.5459,3.507,3.4474,0.0,3.3125,3.2437,3.178,0.0,0.0,3.193,3.1895,0.0,0.0,0.0,0.0,0.0,0.0,0.0,0.0,0.0,0.0,3.2428,0.0,0.0,0.0,0.0,2.9831,0.0,0.0,0.0,0.0,0.0,0.0,0.0,0.0,0.0,0.0,0.0,0.0,0.0,0.0,0.0,0.0,0.0,0.0,4.2396,4.1572,4.0781,3.9974,3.9166,3.8689,3.8689,3.8689,3.8652,3.8652,3.786,3.7088,3.6303,3.7088,3.7088,3.634,3.7125,3.7052,3.6266,3.5371,3.4527,3.3807,3.3807,3.3807,3.3807,3.3807,3.4284,3.5114,3.5936,3.6758,3.7456,0.0,0.0,0.0,0.0,0.0,0.0,0.0,3.1512,0.0,0.0,3.3144,0.0,0.0,3.406,3.3395,0.0,0.0,3.0319,2.9767,2.9219,0.0,0.0,0.0,3.1007,0.0,0.0,0.0,0.0,0.0,0.0,0.0,0.0,0.0,0.0,0.0,3.3245,0.0,0.0,0.0,0.0,0.0,3.4412,3.3754,0.0,0.0,3.2407,3.175,3.1307,0.0,3.1662,3.1931,3.2078,3.2169,3.2647,3.3125,3.2916,3.3006,0.0,0.0,0.0,3.2271,3.3435,0.0,0.0,0.0,0.0,0.0,0.0,0.0,0.0,0.0,0.0,0.0,0.0,0.0,0.0,0.0,0.0,0.0,0.0,0.0,0.0,0.0,0.0,0.0,4.2323,4.1075,4.0194,3.99,3.9129,3.8689,3.8689,3.8689,3.8689,3.8689,3.8432,3.7881,3.7088,3.7382,3.7088,3.6303,3.5973,3.5701,3.5371,3.4578,3.4344,3.4601,3.4601,3.4931,3.5459,3.5459,3.5936,3.656,3.5752,3.5973,3.6795,3.1134,0.0,0.0,0.0,0.0,0.0,0.0,0.0,0.0,0.0,3.4091,0.0,3.5941,0.0,3.4374,0.0,3.303,3.1709,3.0445,3.016,0.0,2.9262,2.9777,0.0,0.0,0.0,0.0,0.0,0.0,3.5519,0.0,0.0,0.0,0.0,0.0,3.3425,3.3814,0.0,3.4562,0.0,0.0,3.3873,0.0,0.0,3.2288,3.2407,0.0,3.1511,3.1511,3.1511,3.178,3.2079,3.163,3.2079,3.2706,3.2258,3.2437,3.2856,3.3095,3.2433,0.0,3.305,3.1663,0.0,3.1426,0.0,0.0,0.0,0.0,0.0,0.0,0.0,0.0,0.0,0.0,0.0,0.0,4.094,0.0,0.0,0.0,0.0,0.0,0.0,4.2506,4.1919,4.0928,4.0084,0.0,0.0,3.8689,3.8689,3.8689,3.8689,3.8689,3.8432,3.8006,3.7492,3.7199,3.6795,3.6266,3.5408,3.5004,3.4968,3.4174,3.4284,3.5004,3.5004,3.5518,3.6303,3.6303,3.6597,3.6978,3.6193,3.645,3.7221,3.2123,3.222,0.0,0.0,3.0752,0.0,0.0,0.0,3.4058,0.0,3.5319,3.488,3.7131,3.5396,3.4262,3.467,3.4198,3.3194,3.1587,3.1938,0.0,0.0,3.0357,3.1216,3.2514,0.0,0.0,0.0,0.0,0.0,0.0,0.0,0.0,0.0,3.4234,0.0,3.2706,3.4622,3.507,3.4444,3.3754,3.3484,3.3335,3.2019,3.1899,3.2407,3.175,3.1511,3.1511,3.1481,3.1481,3.1481,3.1451,3.1451,3.1451,3.1481,3.1481,3.16,3.2258,3.2437,3.2258,3.144,0.0,0.0,0.0,0.0,2.9451,0.0,0.0,0.0,0.0,0.0,0.0,0.0,0.0,0.0,0.0,0.0,0.0,0.0,0.0,0.0,0.0,4.3603,4.2763,4.1205,4.1058,4.0361,0.0,0.0,3.8726,3.8689,3.8689,3.8689,3.8689,3.7933,3.7529,3.7419,3.6684,3.6266,3.6193,3.5371,3.5041,3.5041,3.4247,3.4394,3.5114,3.5114,3.5628,3.6413,3.6413,3.6413,3.6486,3.7235,3.8006,3.8689,3.3106,3.4039,3.4503,0.0,3.2773,3.2225,0.0,0.0,0.0,0.0,3.7098,3.7427,3.8367,3.7236,3.6113,3.5366,3.443,0.0,0.0,0.0,0.0,3.1009,3.0758,3.0893,3.1536,3.2236,0.0,3.4409,0.0,0.0,3.5519,0.0,0.0,0.0,0.0,0.0,3.3305,3.4322,3.4683,3.4444,3.3754,3.3484,0.0,0.0,3.1899,3.2407,3.175,3.1511,3.1421,3.0913,3.1092,3.1421,3.0913,3.0761,3.0853,3.1361,3.1152,3.0883,3.157,3.175,3.1811,3.2079,3.1652,3.118,0.0,0.0,0.0,0.0,0.0,0.0,0.0,0.0,0.0,0.0,0.0,0.0,0.0,0.0,0.0,0.0,0.0,0.0,4.3467,4.2463,4.1535,4.1132,4.0561,3.9753,0.0,0.0,0.0,3.8726,3.8689,3.8689,3.8689,3.8505,3.7771,3.6611,3.6376,3.5973,3.5334,3.5114,3.5334,3.5936,3.5752,3.6119,3.6868,3.6868,3.7331,3.8065,3.8065,3.8065,3.8028,3.7639,3.8006,3.8689,3.4913,3.5596,0.0,3.7014,0.0,0.0,3.6136,3.5883,0.0,3.8263,3.798,0.0,3.8721,3.7633,3.6638,3.6261,3.5409,0.0,3.4129,0.0,0.0,3.2114,3.1352,3.1134,3.1525,3.2228,0.0,3.3979,0.0,0.0,3.5519,0.0,0.0,0.0,0.0,3.4382,0.0,3.3873,3.4234,3.4414,3.3455,0.0,0.0,3.1899,3.172,3.2019,3.163,3.1511,3.1451,3.1062,3.1182,3.1391,3.0731,3.0492,3.0522,3.0642,3.0402,3.0193,3.0582,3.0672,3.0793,3.148,3.122,3.1069,3.2065,3.1546,3.0708,0.0,0.0,0.0,0.0,0.0,0.0,0.0,0.0,0.0,0.0,0.0,0.0,0.0,4.1065,0.0,4.3335,4.1405,4.0487,4.1535,4.0561,0.0,0.0,0.0,0.0,3.9239,3.957,3.957,3.9239,3.8872,3.8248,3.7331,3.6633,3.6229,3.6083,3.5738,3.5862,3.6303,3.6303,3.6758,3.7492,3.7492,3.7955,3.8689,3.8689,3.8689,3.8652,3.8175,3.8322,3.8689,3.6728,3.7053,0.0,0.0,0.0,0.0,0.0,3.8147,0.0,4.0136,0.0,3.7916,3.8832,3.7483,3.6714,3.7146,0.0,3.5991,3.5532,3.5076,3.4339,3.3368,3.2143,3.165,3.2026,3.2418,0.0,0.0,0.0,3.5519,3.5519,0.0,0.0,0.0,0.0,0.0,0.0,3.3544,3.3814,3.4264,3.3006,3.2527,3.2437,3.175,3.1511,3.1511,3.1511,3.1511,3.1481,3.1391,3.1421,3.1391,3.0731,3.0492,3.0402,2.9864,2.9681,2.9621,2.9621,2.9621,2.9741,3.0253,3.0432,3.0821,3.1988,3.1659,3.1137,3.1077,3.0809,3.0508,0.0,0.0,0.0,0.0,0.0,0.0,0.0,0.0,0.0,0.0,0.0,0.0,0.0,4.0785,4.0047,4.2139,4.1001,0.0,0.0,0.0,0.0,3.9937,4.0487,4.0561,4.0047,0.0,3.8689,3.8689,3.7184,3.6831,3.7492,3.6795,3.6523,3.6597,3.6597,3.7,3.7676,3.7676,3.8065,3.8689,3.8689,3.8689,3.8689,3.8689,3.8689,3.8689,3.6782,0.0,0.0,0.0,0.0,4.0167,4.0859,4.0769,4.0539,4.039,4.1002,4.1097,4.0196,3.9024,3.8149,3.771,3.6766,0.0,0.0,0.0,0.0,3.4986,3.3008,3.1978,3.214,3.2454,3.2664,0.0,3.4639,3.5519,3.5519,0.0,0.0,0.0,0.0,0.0,3.4294,3.3724,0.0,3.3604,3.2826,3.2527,3.2437,3.175,3.1511,3.1511,3.1511,3.1511,3.1421,3.0853,3.1032,3.1391,3.0731,3.0492,3.0492,3.0372,2.9983,2.9621,2.9621,2.9621,2.9621,2.9714,3.0133,3.0552,3.0791,3.1127,3.122,3.0593,3.0407,3.0344,3.0297,0.0,0.0,0.0,0.0,0.0,0.0,0.0,0.0,0.0,0.0,0.0,0.0,0.0,0.0,0.0,0.0,0.0,0.0,0.0,0.0,0.0,3.9386,0.0,0.0,0.0,3.8689,3.8689,3.7749,3.7345,3.7492,3.7345,3.7639,3.8285,3.8285,3.8358,3.8505,3.8505,3.8579,3.8689,3.8689,3.8689,3.8689,3.8689,3.8689,3.8689,0.0,0.0,0.0,0.0,0.0,0.0,0.0,4.1722,4.1572,4.0516,4.0337,4.0104,3.9409,3.921,3.8972,3.8649,3.8182,3.7708,3.7362,3.6561,3.5949,3.5667,3.3779,0.0,3.283,3.3175,3.3359,3.3359,3.4773,3.5519,0.0,0.0,0.0,0.0,0.0,3.5307,0.0,0.0,0.0,3.345,3.281,3.2337,3.1959,3.163,3.1511,3.1511,3.1511,3.1511,3.1451,3.1122,3.1241,3.1391,3.0731,3.0492,3.0432,3.0133,2.9564,2.9086,2.9086,2.8843,2.8663,2.8996,2.9564,3.0103,3.0432,3.1002,3.1365,3.0984,3.0925,3.0925,3.0925,3.1248,0.0,0.0,0.0,0.0,0.0,0.0,0.0,0.0,0.0,0.0,0.0,0.0,0.0,0.0,0.0,0.0,0.0,0.0,0.0,0.0,0.0,0.0,0.0,0.0,0.0,3.8689,3.8322,3.8102,3.8102,3.8102,3.8322,3.8689,3.8689,3.8689,3.8689,3.8689,3.8689,3.8689,3.8689,3.8689,3.8689,3.8689,3.8689,3.8689,0.0,4.1085,0.0,0.0,4.1542,0.0,4.1414,4.1871,4.1782,4.0546,3.9469,3.8751,3.8631,3.908,3.9373,3.9373,3.929,3.896,3.8422,3.7357,3.657,3.6222,3.4489,3.3584,3.3759,3.3915,3.3979,0.0,3.5034,3.5519,0.0,0.0,0.0,0.0,0.0,0.0,0.0,0.0,3.4275,3.3692,3.3096,3.2461,3.1936,3.1936,3.1936,3.1936,3.1936,3.1936,3.1936,3.1936,3.1739,3.1421,3.0881,3.0731,3.0582,2.9953,2.9415,2.8936,2.8667,2.8188,2.7914,2.8278,2.8876,2.9505,2.9983,3.0703,3.1301,3.1301,3.1391,3.154,3.169,3.16,0.0,0.0,0.0,0.0,0.0,0.0,0.0,0.0,0.0,0.0,0.0,0.0,0.0,0.0,0.0,0.0,0.0,0.0,0.0,0.0,0.0,4.0891,4.0414,0.0,3.957,3.8946,3.8799,3.8689,3.8689,3.8689,3.8689,3.8689,3.8689,3.8689,3.8689,3.8689,3.8689,3.8689,3.8689,3.8689,3.8689,3.8689,3.8689,3.8689,0.0,0.0,0.0,0.0,0.0,0.0,4.1512,4.1482,4.1205,4.0487,4.0277,3.9978,3.9379,3.9343,3.9373,3.9373,3.8841,3.8452,3.8392,3.7216,3.673,3.7237,3.5107,3.422,3.4829,3.4289,3.3979,0.0,3.5034,3.5519,0.0,0.0,0.0,0.0,0.0,0.0,0.0,3.492,3.4601,3.4537,3.3808,3.3469,3.3417,3.3417,3.3417,3.3417,3.3417,3.3417,3.3417,3.3417,3.2571,3.1481,3.1421,3.1421,3.1271,3.0612,3.0372,3.0073,2.8906,2.8547,2.8368,2.7824,2.8214,2.8697,2.8757,2.9714,3.0582,3.0582,3.1062,3.169,3.2288,3.1899,3.1899,0.0,0.0,0.0,0.0,0.0,0.0,0.0,0.0,0.0,0.0,3.9048,0.0,0.0,0.0,0.0,0.0,0.0,0.0,4.0985,0.0,4.1389,4.2066,4.0634,3.9863,3.979,3.9056,3.8689,3.8689,3.8689,3.8689,3.8689,3.8689,3.8689,3.8689,3.8689,3.8689,3.8689,3.8689,3.8689,3.8689,3.8689,3.8689,3.8689,0.0,0.0,0.0,0.0,0.0,0.0,0.0,4.0786,4.0546,3.9888,3.9798,3.9709,3.9439,3.905,3.8811,3.8811,3.8182,3.7644,3.7255,3.6776,3.6417,3.6267,3.54,3.5023,3.5288,3.5053,3.4905,0.0,0.0,0.0,0.0,0.0,0.0,0.0,0.0,3.721,3.6906,3.6232,3.5687,3.5237,3.452,3.3946,3.3598,3.3598,3.3598,3.3598,3.3598,3.3598,3.3598,3.3598,3.3235,3.2756,3.2756,3.2489,3.2099,3.1824,3.1155,3.0313,2.9415,2.8906,2.8531,2.821,2.8645,2.924,2.9608,3.0398,3.1057,3.1057,3.1243,3.1511,3.1837,3.169,3.169,0.0,0.0,0.0,0.0,0.0,0.0,0.0,0.0,0.0,0.0,0.0,0.0,0.0,0.0,0.0,0.0,0.0,0.0,4.1095,0.0,4.0524,4.0855,4.023,3.9643,3.9166,3.8836,3.8689,3.8689,3.8689,3.8689,3.8689,3.8689,3.8689,3.8689,3.8689,3.8689,3.8689,3.8689,3.8689,3.8689,3.8689,3.8803,3.8933,4.2141,0.0,4.0816,0.0,4.0995,4.0636,4.0427,4.0397,4.0157,3.9499,3.9373,3.9373,3.9373,3.8811,3.8392,3.8392,3.7614,3.6956,3.6507,3.6297,3.5998,3.5519,3.5519,0.0,3.5519,3.5686,3.5814,3.5814,3.6569,0.0,0.0,0.0,0.0,0.0,3.7906,3.8015,3.7775,3.709,3.6505,3.5965,3.521,3.4616,3.4202,3.4202,3.4202,3.4202,3.4202,3.4202,3.4202,3.4202,3.4202,3.4128,3.3726,3.3261,3.2895,3.2895,3.2203,3.1219,3.0421,2.9701,2.9108,2.8854,2.9014,2.937,2.9957,3.0616,3.1198,3.1645,3.1716,3.1814,3.2063,3.2132,3.2193,3.2377,0.0,0.0,0.0,0.0,0.0,0.0,3.3582,3.4325,3.4056,0.0,0.0,0.0,0.0,0.0,0.0,0.0,0.0,0.0,0.0,0.0,0.0,4.012,3.9606,3.9056,3.8799,3.8689,3.8726,3.8946,3.8909,3.8726,3.8946,3.8909,3.8689,3.8689,3.8689,3.8689,3.8689,3.8765,3.8833,3.8833,3.8933,3.9093,4.1542,4.1422,4.1422,4.1422,4.1422,4.1145,4.0487,4.0397,4.0157,3.9499,3.9373,3.9373,3.9373,3.8811,3.8392,3.8392,3.7225,3.6507,3.6477,3.5878,3.5519,0.0,0.0,3.5519,3.5519,3.6228,3.6569,3.6569,0.0,0.0,3.7822,0.0,3.889,3.8946,3.9005,3.8599,3.7831,3.711,3.6795,3.6705,3.5904,3.5577,3.5577,3.5577,3.5577,3.5577,3.5577,3.5577,3.5577,3.5577,3.5577,3.5339,3.4028,3.3598,3.3598,3.3598,3.3598,3.3284,3.1945,3.1104,3.039,2.9689,2.9014,2.8654,2.9248,2.9927,3.0831,3.218,3.2499,3.2691,3.3444,3.3572,3.3796,3.4441,0.0,0.0,0.0,0.0,0.0,0.0,3.5884,3.5881,3.3626,0.0,0.0,0.0,0.0,0.0,0.0,0.0,0.0,4.2286,4.2286,0.0,4.2286,4.0671,3.99,3.9879,3.9093,3.8689,3.8726,3.9533,3.946,3.8726,3.9533,3.9423,3.8689,3.8689,3.8689,3.8689,3.8689,3.8855,3.908,3.908,3.908,3.9093,4.0756,4.0337,4.0038,4.0038,4.0038,3.9978,3.9768,3.9738,3.9499,3.8811,3.8721,3.8542,3.8093,3.7853,3.7554,0.0,3.6297,3.5818,0.0,3.5609,3.5519,3.5519,3.5519,3.5519,3.5519,3.6228,3.66,3.66,0.0,0.0,0.0,3.9376,3.9446,3.9005,3.9537,3.9639,3.9334,3.8058,3.755,3.7449,3.6107,3.56,3.56,3.56,3.56,3.56,3.56,3.56,3.56,3.56,3.56,3.5532,3.5075,3.464,3.4268,3.4268,3.3946,3.3316,3.1911,3.1378,3.103,3.0219,2.9879,2.9892,3.0477,3.1187,3.1857,3.2341,3.2825,3.3259,3.3572,3.3598,3.3848,3.4552,3.4488,0.0,0.0,0.0,0.0,0.0,3.4688,3.4742,0.0,3.6012,0.0,0.0,0.0,0.0,0.0,0.0,0.0,0.0,4.1772,0.0,4.1462,4.0414,3.9606,3.9093,3.8836,3.8982,3.9533,3.979,3.9753,3.957,4.0377,3.9974,3.8726,3.9276,3.9203,3.8689,3.8689,3.8765,3.8848,3.8848,3.8933,3.9093,4.0068,3.9709,3.9373,3.9373,3.9373,3.9373,3.9373,3.92,3.8977,3.8875,3.8637,3.8213,3.7546,3.7752,0.0,3.6573,3.6142,3.5911,3.5911,3.6196,3.6383,3.6383,3.6383,3.6383,3.6383,3.7084,0.0,3.7467,3.8745,3.9376,3.9436,3.9876,3.9876,3.9411,3.991,3.9943,3.9605,3.8396,3.7922,3.7787,3.6208,3.5769,3.6062,3.6062,3.5836,3.5633,3.596,3.5836,3.56,3.56,3.56,3.56,3.56,3.5316,3.4981,3.4981,3.4664,3.4105,3.2975,3.2278,3.1732,3.1221,3.0683,3.0522,3.1409,3.2171,3.2812,3.3128,3.3561,3.3978,3.4292,3.4603,3.4931,3.5389,3.5742,3.5807,3.5545,0.0,0.0,0.0,0.0,0.0,0.0,3.7306,3.8496,0.0,0.0,0.0,0.0,0.0,0.0,4.2763,4.1699,0.0,4.1535,4.0157,3.935,3.9166,3.9166,3.957,4.0377,4.0671,4.0634,4.0377,4.0875,4.0377,3.9166,3.935,3.9166,3.8689,3.8689,3.8743,3.8855,3.8998,3.9073,3.9107,3.9493,3.9373,3.9373,0.0,3.9373,0.0,3.9373,3.8841,3.8676,3.9437,3.8917,3.8239,3.7654,3.8241,3.8088,3.6718,0.0,0.0,0.0,3.7381,3.7793,3.7793,3.7793,3.7793,3.7793,3.8525,3.8935,3.8989,3.9714,4.0113,4.0113,4.0113,4.0113,4.0113,4.0113,3.9706,3.8937,3.8227,3.7922,3.7787,3.6276,3.6163,3.6863,3.6829,3.6366,3.5836,3.6468,3.6265,3.5667,3.5633,3.56,3.56,3.56,3.56,3.56,3.56,3.56,3.5453,3.4797,3.3631,3.2607,3.2506,3.1484,3.085,3.207,3.2949,3.366,3.4336,3.4539,3.4776,3.5464,3.6265,3.6829,3.6863,3.7483,3.7719,3.6998,0.0,0.0,0.0,0.0,0.0,0.0,3.9765,3.9889,0.0,0.0,0.0,0.0,0.0,4.3478,4.3441,4.1956,4.1535,4.2286,4.001,3.9239,3.9974,3.9974,4.0414,4.1205,4.1956,4.1882,4.1168,4.1168,4.0708,3.9827,3.9093,3.8762,3.8689,3.8689,3.884,3.9131,3.9414,3.9327,3.9131,0.0,0.0,3.9373,3.9373,3.9373,3.9373,3.9373,3.8841,3.8495,3.8789,3.7748,3.7174,3.77,3.7365,3.7214,3.7487,3.7508,3.7531,3.7531,3.7706,3.7793,3.7793,3.7793,3.7793,3.7793,3.8525,3.9209,3.9825,4.0003,4.0113,4.0113,4.0113,4.0113,4.0113,4.0113,3.9706,3.8937,3.8227,3.7922,3.7821,3.6874,3.6975,3.7584,3.7032,3.7009,3.7246,3.6242,3.6163,3.64,3.5825,3.56,3.56,3.56,3.56,3.56,3.56,3.56,3.5442,3.4701,3.4275,3.3871,3.3311,3.2908,3.2749,3.3064,3.3694,3.4269,3.4438,3.4945,3.5397,3.5566,3.6265,3.6998,3.755,3.8261,3.8464,3.7753,3.8311,0.0,0.0,3.8161,3.8867,3.8721,3.9164,3.9788,0.0,0.0,0.0,0.0,4.3184,4.3204,4.2616,4.2213,4.2103,4.2286,4.1111,4.0618,4.0818,4.0818,4.1258,4.2029,4.2213,4.2213,4.2029,4.2029,4.1222,3.99,3.968,3.9239,3.8689,3.8689,3.875,3.8803,3.8892,3.8877,3.8803,3.9373,3.9373,3.9373,3.9373,3.9373,3.932,3.899,3.8362,3.7982,3.8143,3.724,3.6877,3.7709,3.7732,3.7815,3.8274,3.8302,3.8302,3.8302,3.8668,3.8859,3.8859,3.8859,3.8859,3.8859,3.9236,3.9662,4.0113,4.0113,4.0113,4.0113,4.0113,4.0113,4.0113,4.0113,3.9876,3.9411,3.8362,3.8294,3.8768,3.7371,3.7415,3.8362,3.7956,3.7821,3.7855,3.7347,3.7212,3.7246,3.6806,3.6434,3.6163,3.6163,3.5926,3.56,3.56,3.56,3.5498,3.5115,3.4742,3.4303,3.3592,3.366,3.3897,3.3897,3.4472,3.5013,3.5013,3.5295,3.56,3.56,3.6535,3.7415,3.7855,3.9034,3.9634,3.8858,3.9614,0.0,3.869,3.9469,4.0208,4.048,4.0659,4.1035,4.1813,4.2077,0.0,4.291,4.3294,4.3294,4.2873,4.2506,4.2286,4.2286,4.1515,4.1279,4.1662,4.1662,4.2066,4.2837,4.2837,4.2837,4.28,4.2066,4.1258,4.0377,3.9643,3.9093,3.8689,3.8689,3.8689,3.8704,3.8826,3.8803,3.8719,3.929,3.9313,3.9379,3.929,3.926,3.902,3.8332,3.7674,3.7349,3.7589,3.6909,3.6783,3.7706,3.8358,3.8772,3.8881,3.9016,3.9069,3.9069,3.9714,4.0113,4.0113,4.0113,4.0113,4.0113,4.0113,4.0113,4.0113,4.0113,4.0113,4.0113,4.0113,4.0113,4.0113,4.0113,3.9977,3.9706,3.8531,3.8734,3.9605,3.7845,3.7946,3.914,3.9039,3.8667,3.8294,3.87,3.8497,3.8058,3.7956,3.7483,3.6965,3.6965,3.6502,3.5938,3.5938,3.587,3.5735,3.5633,3.5148,3.4506,3.3897,3.4201,3.4675,3.4675,3.5148,3.56,3.56,3.56,3.5633,3.5769,3.6941,3.7946,3.8143,3.9707,4.0631,3.9877,0.0,4.0872,4.0562,4.0882,4.155,4.2582,4.2642,4.2614,4.2472,4.2983,4.3057,4.2506,4.313,4.3515,4.3515,4.2837,4.247,4.247,4.1809,4.1809,4.247,4.247,4.2837,4.3515,4.3515,4.3515,4.3404,4.1809,4.1095,4.0985,3.935,3.8689,3.8689,3.8689,3.8689,3.8719,3.8961,3.8913,3.875,3.8661,3.902,3.923,3.8661,3.8542,3.8332,3.7674,3.7015,3.6899,3.7527,3.6466,3.6227,3.7648,3.7908,3.8218,3.8854,3.9532,3.9927,3.9927,4.0003,4.0113,4.0113,4.0113,4.0113,4.0113,4.0113,4.0113,4.0113,4.0113,4.0113,4.0113,4.0113,4.0113,4.0113,4.0113,3.9436,3.8261,3.8667,3.8599,3.8261,3.8531,3.9165,3.9876,3.9242,3.9334,3.9605,3.8464,3.8396,3.8734,3.8125,3.7821,3.7719,3.7719,3.7652,3.755,3.755,3.711,3.6468,3.5769,3.5532,3.5397,3.5295,3.5329,3.543,3.543,3.5532,3.56,3.56,3.56,3.5825,3.6491,3.7313,3.8258,3.9307,4.0297,4.0582,3.9679,0.0,4.1737,3.9909,4.1684,4.2978,4.2732,4.2486,4.2622,4.3277,4.28,4.2727,4.3277,4.3441,4.3515,4.3515,4.3404,4.3314,4.3314,4.3167,4.3167,4.3314,4.3314,4.3404,4.3515,4.3515,4.3515,4.3404,4.1809,4.1095,4.0985,3.935,3.8689,3.8689,3.8689,3.8689,3.8689,3.875,3.8735,3.875,3.9889,3.9644,3.949,3.9154,3.8409,3.7644,3.7015,3.6656,3.6493,3.6491,3.6252,3.6538,3.7677,3.8133,3.869,3.9506,3.9901,4.0113,4.0113,4.0113,4.0113,4.0113,4.0113,4.0113,4.0113,4.0113,4.0113,4.0113,4.0113,4.0113,4.0113,4.0113,4.0113,4.0113,4.0113,3.9503,3.8497,3.887,3.8802,3.8531,3.887,3.9436,4.0079,3.974,3.9808,4.0011,3.9309,3.9276,3.9537,3.9174,3.8802,3.8497,3.8497,3.8227,3.7922,3.7922,3.7381,3.6728,3.6332,3.5926,3.5701,3.6129,3.5926,3.5701,3.6163,3.6231,3.6366,3.6772,3.6817,3.6952,3.7313,3.799,3.8782,3.9652,4.0672,0.0,0.0,4.2319,4.2778,4.1759,4.274,4.3391,4.316,4.3009,4.3094,4.3478,4.3167,4.3094,4.3478,4.3515,4.3515,4.3515,4.3515,4.3515,4.3515,4.3515,4.3515,4.3515,4.3515,4.3515,4.3515,4.3515,4.3515,4.3404,4.1809,4.1095,4.0985,3.935,3.8689,3.8689,3.8689,3.8689,3.8689,3.8689,3.8689,3.875,4.0607,4.0037,3.9608,3.9267,3.8241,3.7258,3.6625,3.6504,3.6323,3.581,3.6259,3.6843,3.744,3.8358,3.9156,3.9765,3.9978,4.0113,4.0113,4.0113,4.0113,4.0113,4.0113,4.0113,4.0113,4.0113,4.0113,4.0113,4.0113,4.0113,4.0113,4.0113,4.0113,4.0113,4.0113,3.9706,3.9005,3.9174,3.914,3.9005,3.9174,3.9605,4.0113,4.0113,4.0113,4.0113,4.0113,4.0113,4.0113,4.0113,3.974,3.9242,3.9242,3.887,3.8396,3.8396,3.7889,3.7269,3.71,3.6603,3.6276,3.6907,3.6603,3.6299,3.6907,3.7066,3.7235,3.7787,3.8007,3.8159,3.8306,3.8924,3.964,4.0355,0.0,0.0,0.0,4.3122,4.3441,4.3258,4.3404,4.3515,4.3515,4.3515,4.3515,4.3515,4.3515,4.3515,4.3515,4.3515,4.3515,4.3515,4.3515,4.3515,4.3515,4.3515,4.3515,4.3515,4.3515,4.3515,4.3515,4.3515,4.3515,4.3441,4.1992,4.1279,4.0985,3.957,3.8872,3.8726,3.8909,3.8982,3.8982,3.8982,3.8982,3.9007,3.9361,3.9377,3.9298,3.7994,3.7683,3.7341,3.6693,3.66,3.6569,3.6538,3.6569,3.66,3.6661,3.8015,3.8908,3.8989,3.9662,4.0113,4.0113,4.0113,4.0113,4.0113,4.0113,4.0113,4.0113,4.0113,4.0113,4.0113,4.0113,4.0113,4.0113,4.0113,4.0113,4.0113,4.0113,3.9706,3.9039,3.974,3.9639,3.9039,3.974,4.0045,4.0113,4.0113,4.0113,4.0113,4.0113,4.0113,4.0113,4.0113,4.0079,4.0011,4.0011,3.9977,3.9943,3.9943,3.9436,3.8667,3.799,3.7787,3.7753,3.7821,3.7787,3.7753,3.7821,3.7821,3.7855,3.7889,3.8311,3.8854,3.9524,4.0162,4.0993,4.2282,0.0,0.0,4.235,4.3003,4.3204,4.247,4.3057,4.3515,4.3515,4.3515,4.3515,4.3515,4.3515,4.3515,4.3515,4.3515,4.3515,4.3515,4.3515,4.3515,4.3515,4.3515,4.3515,4.3515,4.3515,4.3515,4.3515,4.3515,4.3515,4.3441,4.258,4.1809,4.1022,4.0157,3.935,3.8762,3.9533,3.979,3.979,3.979,3.979,3.9743,4.1105,4.041,3.9782,3.9234,3.8376,3.7638,3.7385,3.7322,3.7322,3.7322,3.7729,3.8015,3.8015,3.8989,3.9636,3.9636,3.9927,4.0113,4.0113,4.0113,4.0113,4.0113,4.0113,4.0113,4.0113,4.0113,4.0113,4.0113,4.0113,4.0113,4.0113,4.0113,4.0113,4.0113,4.0113,3.9706,3.9039,3.9808,3.9673,3.9039,3.9808,4.0113,4.0113,4.0113,4.0113,4.0113,4.0113,4.0113,4.0113,4.0113,4.0113,4.0113,4.0113,4.0113,4.0113,4.0113,3.991,3.9639,3.9343,3.8599,3.8024,3.8464,3.8227,3.8024,3.8497,3.8843,3.9192,3.9673,4.0212,4.0699,4.0994,4.1223,4.1665,4.258,0.0,4.2792,4.3005,4.3314,4.3404,4.3057,4.3314,4.3515,4.3515,4.3515,4.3515,4.3515,4.3515,4.3515,4.3515,4.3515,4.3515,4.3515,4.3515,4.3515,4.3515,4.3515,4.3515,4.3515,4.3515,4.3515,4.3515,4.3515,4.3515,4.3478,4.2653,4.2139,4.1735,4.0451,3.9717,3.9423,3.9239,3.9166,3.9166,3.9166,3.9166,3.9185,4.1677,4.0775,4.0018,3.9787,3.8823,3.8133,3.8133,3.8133,3.8048,3.7851,3.8246,3.8469,3.8213,3.8914,3.948,3.9688,3.9714,3.985,4.0087,4.0113,4.0113,4.0113,4.0113,4.0113,4.0113,4.0113,4.0113,4.0113,4.0113,4.0113,4.0113,4.0113,4.0113,4.0113,4.0113,3.9842,3.9377,3.991,3.9808,3.9402,3.991,4.0113,4.0113,4.0113,4.0113,4.0113,4.0113,4.0113,4.0113,4.0113,4.0113,4.0113,4.0113,4.0113,4.0104,4.0294,4.0343,4.0392,4.0587,3.9903,3.9157,3.9331,3.8971,3.8734,3.9208,3.975,4.0297,4.0816,4.1516,4.2062,4.2062,4.2206,4.2482,4.2884,4.294,4.3087,4.3463,4.3515,4.3515,4.3515,4.3515,4.3515,4.3515,4.3515,4.3515,4.3515,4.3515,4.3515,4.3515,4.3515,4.3515,4.3515,4.3515,4.3515,4.3515,4.3515,4.3515,4.3515,4.3515,4.3515,4.3515,4.3515,4.3515,4.3478,4.291,4.2543,4.2176,4.0855,4.0267,4.023,3.968,3.9606,3.9827,3.9827,3.968,3.9479,4.0383,4.0107,3.9853,3.904,3.8908,3.8908,3.8908,3.8908,3.8635,3.7908,3.7822,3.7499,3.6722,3.7322,3.8104,3.8854,3.8908,3.9262,4.0028,4.0113,4.0113,4.0113,4.0113,4.0113,4.0113,4.0113,4.0113,4.0113,4.0113,4.0113,4.0113,4.0113,4.0113,4.0113,4.0113,4.0113,4.0113,4.0113,4.0113,4.0113,4.0113,4.0113,4.0113,4.0113,4.0113,4.0113,4.0113,4.0113,4.0113,4.0113,4.0113,4.0113,4.0113,4.0113,4.0204,4.0733,4.092,4.1024,4.166,4.181,4.153,4.0392,4.0138,4.0138,4.0138,4.0528,4.0886,4.0886,4.1874,4.2693,4.2693,4.3142,4.3515,4.3515,4.3515,4.3515,4.3515,4.3515,4.3515,4.3515,4.3515,4.3515,4.3515,4.3515,4.3515,4.3515,4.3515,4.3515,4.3515,4.3515,4.3515,4.3515,4.3515,4.3515,4.3515,4.3515,4.3515,4.3515,4.3515,4.3515,4.3515,4.3515,4.3515,4.3515,4.3515,4.3057,4.2249,4.1425,4.1095,4.1095,4.1095,4.1572,4.2286,4.2286,4.1772,4.1013,4.0865,4.0441,4.0008,3.9773,3.974,3.974,3.974,3.974,3.9662,3.9454,3.9428,3.9315,3.9102,3.9262,3.9506,3.9714,3.974,3.985,4.0087,4.0113,4.0113,4.0113,4.0113,4.0113,4.0113,4.0113,4.0113,4.0113,4.0113,4.0113,4.0113,4.0113,4.0113,4.0113,4.0113,4.0113,4.0113,4.0113,4.0113,4.0113,4.0113,4.0113,4.0113,4.0113,4.0113,4.0113,4.0113,4.0113,4.0113,4.0113,4.0113,4.0113,4.0113,4.0113,4.0204,4.0733,4.092,4.1024,4.166,4.181,4.1725,4.1375,4.1286,4.1286,4.1286,4.1746,4.2144,4.2144,4.2734,4.325,4.325,4.3374,4.3515,4.3515,4.3515,4.3515,4.3515,4.3515,4.3515,4.3515,4.3515,4.3515,4.3515,4.3515,4.3515,4.3515,4.3515,4.3515,4.3515,4.3515,4.3515,4.3515,4.3515,4.3515,4.3515,4.3515,4.3515,4.3515,4.3515,4.3515,4.3515,4.3515,4.3515,4.3515,4.3515,4.3368,4.302,4.1645,4.1425,4.1846,4.0708,4.0744,4.1405,4.0818,4.0451,4.0215,4.0663,4.0417,4.0113,4.0113,4.0113,4.0113,4.0113,4.0113,3.9978,3.9662,3.9636,3.9532,3.9209,3.9183,3.9322,3.961,3.9927,4.0113,4.0113,4.0113,4.0113,4.0113,4.0113,4.0113,4.0113,4.0113,4.0113,4.0113,4.0113,4.0113,4.0113,4.0113,4.0113,4.0113,4.0113,4.0113,4.0113,4.0113,4.0113,4.0113,4.0113,4.0113,4.0113,4.0113,4.0113,4.0113,4.0113,4.0113,4.0113,4.0113,4.0113,4.0113,4.0113,4.0113,4.0254,4.1036,4.1251,4.1429,4.2266,4.2306,4.218,4.218,4.1979,4.181,4.181,4.2282,4.2693,4.2693,4.3142,4.3515,4.3515,4.3515,4.3515,4.3515,4.3515,4.3515,4.3515,4.3515,4.3515,4.3515,4.3515,4.3515,4.3515,4.3515,4.3515,4.3515,4.3515,4.3515,4.3515,4.3515,4.3515,4.3515,4.3515,4.3515,4.3515,4.3515,4.3515,4.3515,4.3515,4.3515,4.3515,4.3515,4.3515,4.3515,4.3515,4.3515,4.3387,4.2103,4.2066,4.2616,4.1001,4.0891,4.1479,4.0671,4.0157,3.9915,4.0113,4.0113,4.0113,4.0113,4.0113,4.0113,4.0113,4.0113,3.985,3.9096,3.8989,3.8745,3.8108,3.8023,3.8274,3.8935,3.9662,4.0113,4.0113,4.0113,4.0113,4.0113,4.0113,4.0113,4.0113,4.0113,4.0113,4.0113,4.0113,4.0113,4.0113,4.0113,4.0113,4.0113,4.0113,4.0113,4.0113,4.0113,4.0113,4.0113,4.0113,4.0113,4.0113,4.0113,4.0113,4.0113,4.0113,4.0113,4.0113,4.0113,4.0113,4.0113,4.0113,4.0113,4.0328,4.1397,4.1725,4.1979,4.3051,4.2977,4.2616,4.2616,4.2221,4.181,4.181,4.2241,4.2635,4.2674,4.3105,4.3445,4.3445,4.348,4.3497,4.3445,4.348,4.3515,4.3515,4.3515,4.3515,4.3515,4.3515,4.3515,4.3515,4.3515,4.3515,4.3515,4.3515,4.3515,4.3515,4.3515,4.3515,4.3515,4.3515,4.3515,4.3515,4.3515,4.3515,4.3515,4.3515,4.3515,4.3515,4.3515,4.3515,4.3515,4.3515,4.3515,4.3441,4.2543,4.2727,4.3331,4.1662,4.1552,4.2176,4.1315,4.054,3.9998,4.0113,4.0113,4.0113,4.0113,4.0113,4.0113,4.0113,4.0113,4.0062,3.9876,3.985,3.9799,3.961,3.9584,3.9696,3.985,3.9978,4.0113,4.0113,4.0113,4.0113,4.0113,4.0113,4.0113,4.0113,4.0113,4.0113,4.0113,4.0113,4.0113,4.0113,4.0113,4.0113,4.0113,4.0113,4.0113,4.0113,4.0113,4.0113,4.0113,4.0113,4.0113,4.0113,4.0113,4.0113,4.0113,4.0113,4.0113,4.0113,4.0113,4.0113,4.0113,4.0113,4.0113,4.0229,4.0897,4.1127,4.1251,4.1943,4.2083,4.2,4.2,4.1895,4.181,4.181,4.1895,4.2124,4.2616,4.277,4.2865,4.2865,4.3214,4.3356,4.2957,4.3232,4.3515,4.3515,4.3515,4.3515,4.3515,4.3515,4.3515,4.3515,4.3515,4.3515,4.3515,4.3515,4.3515,4.3515,4.3515,4.3515,4.3515,4.3515,4.3515,4.3515,4.3515,4.3515,4.3515,4.3515,4.3515,4.3515,4.3515,4.3515,4.3515,4.3515,4.3515,4.3404,4.1956,4.2213,4.3294,4.1038,4.1038,4.2139,4.0671,4.0176,4.023,4.0113,4.0113,4.0113,4.0113,4.0113,4.0113,4.0113,4.0113,4.0113,4.0113,4.0113,4.0113,4.0113,4.0113,4.0113,4.0113,4.0113,4.0113,4.0113,4.0113,4.0113,4.0113,4.0113,4.0113,4.0113,4.0113,4.0113,4.0113,4.0113,4.0113,4.0113,4.0113,4.0113,4.0113,4.0113,4.0113,4.0113,4.0113,4.0113,4.0113,4.0113,4.0113,4.0113,4.0113,4.0113,4.0113,4.0113,4.0113,4.0113,4.0113,4.0113,4.0113,4.0113,4.0113,4.0204,4.0733,4.1093,4.1451,4.2062,4.2241,4.218,4.1874,4.156,4.1464,4.1746,4.181,4.1895,4.2221,4.2282,4.2362,4.2635,4.2939,4.3124,4.3105,4.3303,4.3515,4.3515,4.3515,4.3515,4.3515,4.3515,4.3515,4.3515,4.3515,4.3515,4.3515,4.3515,4.3515,4.3515,4.3515,4.3515,4.3515,4.3515,4.3515,4.3515,4.3515,4.3515,4.3515,4.3515,4.3515,4.3515,4.3515,4.3515,4.3515,4.3515,4.3515,4.3387,4.2176,4.2176,4.2727,4.0671,4.0414,4.1001,3.979,3.9614,3.9965,4.0113,4.0113,4.0113,4.0113,4.0113,4.0113,4.0113,4.0113,4.0113,4.0113,4.0113,4.0113,4.0113,4.0113,4.0113,4.0113,4.0113,4.0113,4.0113,4.0113,4.0113,4.0113,4.0113,4.0113,4.0113,4.0113,4.0113,4.0113,4.0113,4.0113,4.0113,4.0113,4.0113,4.0113,4.0113,4.0113,4.0113,4.0113,4.0113,4.0113,4.0113,4.0113,4.0113,4.0113,4.0113,4.0113,4.0113,4.0113,4.0113,4.0113,4.0113,4.0113,4.0113,4.0113,4.0179,4.0648,4.1127,4.1639,4.2241,4.2382,4.2302,4.1895,4.134,4.1024,4.1516,4.1595,4.1552,4.1639,4.166,4.1832,4.2422,4.2635,4.2827,4.3286,4.3463,4.3515,4.3515,4.3515,4.3515,4.3515,4.3515,4.3515,4.3515,4.3515,4.3515,4.3515,4.3515,4.3515,4.3515,4.3515,4.3515,4.3515,4.3515,4.3515,4.3515,4.3515,4.3515,4.3515,4.3515,4.3515,4.3515,4.3515,4.3515,4.3515,4.3515,4.3515,4.3441,4.2616,4.2286,4.2139,4.0524,3.99,3.9806,3.9059,3.9087,3.9522,4.0113,4.0113,4.0113,4.0113,4.0113,4.0113,4.0113,4.0113,4.0113,4.0113,4.0113,4.0113,4.0113,4.0113,4.0113,4.0113,4.0113,4.0113,4.0113,4.0113,4.0113,4.0113,4.0113,4.0113,4.0113,4.0113,4.0113,4.0113,4.0113,4.0113,4.0113,4.0113,4.0113,4.0113,4.0113,4.0113,4.0113,4.0113,4.0113,4.0113,4.0113,4.0113,4.0113,4.0113,4.0113,4.0113,4.0113,4.0113,4.0113,4.0113,4.0113,4.0113,4.0113,4.0113,4.0138,4.0179,4.0279,4.0441,4.1013,4.1138,4.1228,4.1703,4.134,4.0909,4.0978,4.0672,4.0466,4.0943,4.1001,4.1183,4.181,4.2342,4.2713,4.2789,4.3196,4.3515,4.3515,4.3515,4.3515,4.3515,4.3515,4.3515,4.3515,4.3515,4.3515,4.3515,4.3515,4.3515,4.3515,4.3515,4.3515,4.3515,4.3515,4.3515,4.3515,4.3515,4.3515,4.3515,4.3515,4.3515,4.3515,4.3515,4.3515,4.3515,4.3515,4.3515,4.3441,4.2616,4.2286,4.2139,4.0524,3.99,3.9837,3.9258,3.9117,3.9238,4.0113,4.0113,4.0113,4.0113,4.0113,4.0113,4.0113,4.0113,4.0113,4.0113,4.0113,4.0113,4.0113,4.0113,4.0113,4.0113,4.0113,4.0113,4.0113,4.0113,4.0113,4.0113,4.0113,4.0113,4.0113,4.0113,4.0113,4.0113,4.0113,4.0113,4.0113,4.0113,4.0113,4.0113,4.0113,4.0113,4.0113,4.0113,4.0113,4.0113,4.0113,4.0113,4.0113,4.0113,4.0113,4.0113,4.0113,4.0113,4.0113,4.0113,4.0113,4.0113,4.0113,4.0113,4.0113,4.0113,4.0294,4.0601,4.085,4.1138,4.1397,4.1296,4.134,4.1241,4.0601,4.048,4.0528,4.049,4.0466,4.0625,4.1183,4.1495,4.181,4.2124,4.2422,4.2676,4.3032,4.3069,4.3069,4.3069,4.3069,4.3069,4.3069,4.3321,4.3515,4.3515,4.3515,4.3515,4.3515,4.3515,4.3515,4.3515,4.3515,4.3515,4.3515,4.3515,4.3515,4.3515,4.3515,4.3515,4.3515,4.3515,4.3515,4.3515,4.3515,4.3515,4.3441,4.2616,4.2286,4.2139,4.0524,3.9643,3.9182,3.8958,3.8975,3.9133]}]]